GFSCGP_925_thetae_000.txt.gz
Theta_e
308 308 309 309 307 309 307 306 306 306 307 308 309 309 309 308 307 309 309 308 308 309 308 309 309 309 309 307 305 304 303 301 301 301 301 300 301 302 301 299 297 298 297 297
308 309 309 308 308 308 308 308 309 309 308 307 308 309 309 308 309 308 309 309 309 308 307 307 306 307 307 308 306 303 302 301 300 299 299 299 299 298 300 299 297 297 297 296
311 310 308 308 308 309 307 308 309 309 307 306 305 309 307 307 306 307 307 307 305 305 307 307 303 304 306 304 305 304 303 301 299 298 297 298 298 297 296 296 297 297 297 296
308 308 309 308 308 308 310 307 308 308 308 310 307 311 307 307 307 306 306 304 303 304 303 302 301 301 304 306 305 303 301 299 298 298 297 297 297 296 296 296 297 297 297 296
309 309 309 309 309 307 310 308 307 307 307 307 308 307 310 306 308 307 306 305 304 303 302 302 301 302 304 304 304 303 301 299 298 297 297 297 296 297 297 296 295 296 296 295
307 305 306 307 306 306 307 308 306 305 306 310 309 308 313 307 308 309 307 309 304 303 302 300 301 301 302 300 300 300 299 298 297 297 296 296 296 296 295 295 294 294 294 295
308 306 306 306 308 306 307 307 309 308 309 312 307 307 311 309 309 307 306 305 304 302 300 300 299 298 299 298 296 296 297 296 296 296 296 296 296 297 297 296 294 293 293 293
312 320 307 304 307 308 306 308 310 314 311 314 303 310 315 311 307 305 303 303 302 302 301 300 300 297 298 297 296 296 296 296 296 296 296 296 296 295 295 295 294 294 294 294
309 310 305 304 306 306 306 308 308 311 312 311 313 310 309 311 307 306 306 303 303 302 301 301 300 299 299 297 297 297 296 297 296 296 296 295 296 295 295 295 295 295 295 294
310 312 308 306 305 305 306 306 310 308 314 315 312 311 313 311 312 308 305 303 306 303 301 300 300 299 299 298 297 296 295 295 296 296 296 295 295 296 295 295 295 295 295 294
307 311 313 312 308 310 310 307 306 307 311 316 317 315 310 312 311 305 305 306 304 300 299 299 298 298 298 298 298 297 297 296 295 294 294 294 294 293 294 294 295 295 294 294
307 317 319 315 310 307 306 311 310 313 313 310 312 314 309 308 308 304 300 299 299 297 296 296 296 296 297 297 298 297 297 297 297 296 295 295 294 294 293 293 293 293 293 293
315 317 318 315 310 309 314 314 313 314 314 318 318 316 310 305 297 298 296 293 293 293 294 294 295 295 296 296 296 295 295 295 295 295 296 296 295 294 294 294 293 292 292 292
311 314 316 316 313 313 316 314 313 315 318 316 316 314 312 297 296 293 293 290 290 291 292 293 294 295 295 295 295 294 294 293 293 293 293 293 294 294 293 293 292 292 291 290
310 314 312 312 313 312 311 310 308 310 310 312 311 311 303 292 292 292 293 291 291 291 293 294 294 295 295 294 294 293 293 292 291 291 292 292 292 293 293 292 293 292 290 290
306 307 305 304 303 302 304 305 305 305 305 306 307 304 291 292 291 291 291 292 290 291 293 295 293 295 293 293 293 292 292 291 290 290 290 290 291 292 292 293 292 291 290 288
302 304 303 303 300 300 300 300 302 302 301 300 301 293 291 291 290 289 290 292 289 290 292 294 291 291 290 291 292 291 291 291 290 289 289 289 289 289 290 291 291 290 288 287
300 299 297 301 294 299 297 296 297 297 295 294 293 290 290 290 289 289 292 288 289 290 292 291 289 288 288 288 289 289 290 289 290 289 288 288 288 288 289 289 289 289 287 286
297 298 293 295 289 294 297 293 293 295 295 292 292 292 292 290 289 287 287 288 289 288 291 287 286 286 286 285 286 288 285 286 288 289 289 287 287 287 287 287 287 287 285 284
293 296 297 289 293 289 294 291 291 292 291 287 289 290 290 289 287 286 287 288 288 289 286 284 283 283 284 284 285 283 283 284 284 286 286 286 286 287 286 285 285 284 284 283
280 277 288 285 284 284 287 288 288 287 287 283 288 289 288 288 286 287 287 285 286 286 282 282 281 281 281 283 281 280 281 281 281 281 280 284 286 286 287 284 283 282 282 281
288 281 277 274 277 283 288 287 287 285 286 286 287 289 289 288 288 287 285 284 283 281 281 280 279 279 279 279 278 278 278 278 277 277 278 280 281 284 284 283 281 280 280 279
285 286 282 283 283 288 289 288 289 287 286 287 288 289 287 287 286 285 283 282 282 280 280 279 278 277 277 277 276 275 275 274 274 274 275 276 278 281 282 281 280 278 278 277
287 287 288 288 288 288 288 288 287 287 287 287 287 287 286 285 283 282 281 280 280 279 278 277 276 276 275 275 274 273 272 271 271 271 272 272 274 277 281 279 279 278 277 277
288 287 286 288 288 288 288 288 288 288 287 285 284 283 282 280 280 280 279 278 277 277 276 275 274 274 273 272 271 270 269 268 268 268 269 270 271 274 278 279 279 278 278 279
289 288 288 288 288 288 288 288 285 285 284 280 279 279 279 278 278 277 276 275 275 274 273 272 271 270 270 269 268 267 266 266 265 266 266 268 270 272 274 279 278 278 279 278

GFSCGP_925_thetae_003.txt.gz
Theta_e
307 307 309 309 307 307 307 305 305 304 305 307 309 309 308 308 306 308 309 309 308 307 308 306 307 308 308 308 307 305 305 304 305 307 307 306 307 308 309 310 308 306 302 298
307 309 309 307 306 306 306 307 308 307 307 305 307 309 309 308 309 309 309 309 307 306 307 306 305 306 306 306 306 304 303 302 303 305 305 304 303 302 304 306 306 305 302 298
309 310 307 308 308 308 306 307 309 308 305 305 304 307 306 308 305 306 306 305 305 304 304 304 303 302 303 305 304 304 303 301 300 302 302 301 301 300 299 300 301 302 301 298
308 307 308 307 309 307 309 306 307 307 307 309 306 310 307 308 307 307 306 304 303 303 303 301 300 302 301 301 302 302 301 301 299 300 299 299 299 298 297 297 298 300 299 297
309 307 308 309 309 306 309 307 307 306 307 306 307 306 307 306 308 307 306 307 305 302 302 303 301 301 299 299 300 301 300 299 298 298 298 298 298 298 298 298 297 297 297 296
306 304 306 307 306 306 305 306 304 304 306 309 308 308 310 307 309 307 306 307 304 303 302 303 301 300 298 298 298 297 297 297 297 297 297 297 297 296 296 296 296 296 295 295
307 306 306 306 308 305 307 307 310 310 308 311 305 307 310 309 309 306 307 303 302 302 301 301 299 298 297 296 295 296 296 295 295 295 295 296 296 296 296 295 295 293 293 293
315 321 307 304 307 308 306 307 313 315 314 316 303 314 316 308 308 305 301 301 302 300 298 298 297 297 297 296 295 294 294 294 294 294 294 295 295 295 295 295 295 295 295 295
311 310 305 303 305 306 306 308 308 311 310 314 313 311 311 312 305 303 302 298 297 296 296 296 296 296 296 297 295 294 293 294 294 294 294 294 294 294 294 294 294 295 295 294
311 318 309 306 305 305 306 306 309 307 311 315 312 312 313 311 305 300 298 296 294 293 294 295 295 295 295 295 295 294 294 293 293 292 293 293 293 293 293 294 294 295 295 295
307 311 312 311 308 308 307 306 306 307 310 314 315 315 310 303 300 298 294 291 291 292 293 293 294 295 295 294 294 293 293 292 292 292 292 292 292 293 293 293 293 294 294 294
307 313 315 314 310 306 308 311 312 317 317 311 315 316 298 296 295 293 289 290 290 291 292 293 293 294 295 294 293 293 292 292 291 291 292 292 292 291 292 292 293 293 293 293
313 313 315 312 308 310 312 311 310 313 313 316 316 316 298 293 293 293 293 290 290 290 291 293 293 293 295 293 292 292 291 291 291 290 290 291 292 292 291 291 291 291 292 292
310 313 315 314 309 309 312 310 311 313 315 313 314 314 309 295 292 292 293 292 290 290 290 292 293 292 294 291 291 292 290 290 290 289 289 290 290 290 292 291 291 291 291 290
309 313 312 311 311 308 307 306 304 305 306 307 307 306 306 291 291 291 290 293 291 289 290 291 293 290 290 289 289 289 289 289 290 289 289 289 289 288 288 292 292 291 291 290
304 309 303 301 303 302 303 301 301 301 301 303 303 305 291 291 290 289 288 293 290 288 289 290 293 289 289 288 287 287 288 288 287 288 289 288 288 287 286 288 291 291 290 290
303 305 302 305 300 299 301 298 299 299 298 298 299 293 288 289 290 288 287 292 288 287 288 288 291 288 287 286 286 285 286 286 284 286 287 288 287 285 285 286 288 291 289 289
301 299 300 301 292 300 297 293 296 297 294 291 290 288 289 290 290 289 289 290 287 287 288 287 289 286 284 284 284 283 284 283 283 284 284 285 284 282 284 285 285 287 288 286
296 297 291 295 291 294 295 294 293 294 293 291 289 289 290 291 289 288 287 286 286 287 287 287 288 284 282 282 282 282 284 282 281 282 282 282 280 280 283 284 284 284 286 285
292 295 296 283 289 286 291 290 291 289 288 287 285 285 286 288 287 287 285 285 286 286 286 286 284 281 281 280 280 281 282 279 279 280 280 278 278 278 282 282 282 283 283 284
278 280 295 294 295 287 286 287 289 285 286 285 284 286 286 288 288 287 286 285 285 284 284 283 281 280 279 279 278 278 278 277 277 277 276 275 275 276 278 279 281 281 282 282
288 281 276 273 279 287 286 287 287 286 286 285 286 287 287 288 289 288 287 286 284 282 282 281 279 279 278 278 277 276 276 276 275 274 272 272 272 272 274 275 277 280 280 281
287 286 283 283 283 287 287 288 288 288 288 288 286 287 287 288 288 287 284 282 281 281 280 279 278 277 276 275 275 274 274 273 271 270 269 269 269 269 271 272 274 278 280 279
286 286 287 288 288 287 288 288 288 287 287 287 286 286 286 286 285 283 281 281 280 279 278 276 275 274 273 273 272 271 270 268 267 266 266 266 266 267 268 269 272 275 279 280
288 286 286 288 288 288 288 288 288 288 287 285 284 283 282 281 280 279 279 278 277 276 274 273 272 271 270 269 268 267 265 264 264 264 264 264 264 265 266 268 270 273 277 279
289 289 289 289 288 288 288 288 285 286 285 281 280 279 279 278 278 276 275 274 273 272 271 269 268 266 266 265 264 263 262 262 262 262 262 262 263 263 264 266 267 270 273 277

GFSCGP_925_thetae_006.txt.gz
Theta_e
311 314 316 316 315 315 313 313 314 314 313 312 313 313 313 313 312 313 313 313 313 313 312 310 309 308 307 307 307 307 307 307 312 313 314 315 315 314 313 312 310 308 307 306
312 315 316 312 311 312 313 313 314 314 313 310 313 313 312 313 313 313 313 313 313 311 310 309 307 306 305 304 304 304 305 305 308 311 312 313 312 312 311 311 308 307 305 305
315 316 313 311 313 313 313 313 315 314 312 312 311 316 314 314 311 311 311 311 310 309 309 307 305 303 302 301 301 301 302 302 304 307 309 309 304 306 307 308 306 304 304 302
313 310 311 311 312 313 315 314 312 312 312 318 311 319 317 315 314 312 312 311 310 308 307 305 303 301 300 298 298 299 300 300 300 303 305 305 304 304 303 303 303 303 302 301
314 311 310 312 313 311 314 309 309 309 312 312 313 313 318 312 312 312 311 308 309 305 304 303 302 301 299 298 297 297 297 297 298 300 301 302 303 303 302 300 301 301 300 299
312 307 309 311 309 309 307 310 309 310 312 316 315 314 316 314 312 312 308 306 304 303 302 301 300 300 299 297 296 296 296 295 295 296 298 299 300 300 300 299 299 299 298 297
314 310 309 307 310 308 309 312 321 319 320 320 312 312 314 313 309 308 307 304 302 301 301 300 300 299 298 297 296 295 295 295 295 294 295 295 296 297 298 298 298 298 297 296
319 322 312 308 313 318 312 314 319 321 323 321 309 315 316 311 306 304 303 301 299 299 300 300 299 298 297 296 295 295 295 295 294 294 294 294 294 294 295 296 296 297 297 296
322 322 307 306 307 310 311 312 312 316 317 316 315 315 315 313 306 304 301 299 297 297 297 297 297 297 295 295 294 294 293 293 294 294 294 294 294 293 294 294 294 294 295 295
316 322 317 311 306 307 309 310 314 312 317 321 315 314 316 313 309 302 299 297 296 295 295 295 296 296 295 294 294 293 293 292 291 292 293 293 293 293 293 293 292 292 292 293
314 318 318 312 314 314 312 310 309 310 313 318 320 316 310 309 304 300 296 295 294 294 295 295 294 295 295 293 293 292 291 291 291 290 291 291 292 292 292 292 292 292 291 291
313 314 318 316 314 309 311 313 313 318 317 315 315 315 304 302 299 296 293 292 292 293 293 293 294 292 294 292 291 292 291 290 290 289 289 289 289 289 289 290 292 292 292 292
315 318 319 317 313 311 314 313 313 314 316 319 320 317 302 300 298 296 297 293 292 292 290 291 294 292 291 290 290 289 290 289 289 288 289 289 288 287 287 286 288 290 291 291
311 314 316 316 314 312 313 313 312 313 316 315 315 313 311 305 302 298 295 293 293 291 290 290 292 292 290 289 288 288 288 287 288 287 288 288 288 288 286 285 285 286 288 290
310 314 312 313 312 313 313 313 311 311 311 311 310 310 308 308 301 295 291 291 293 289 289 289 290 292 290 288 287 287 286 286 287 285 286 287 287 287 285 284 284 284 285 286
306 309 307 307 307 307 308 308 308 306 305 304 304 304 303 293 292 292 290 289 292 289 289 289 289 289 290 288 286 286 285 285 286 284 284 285 286 285 283 282 283 284 284 284
304 305 306 307 305 303 305 303 303 302 302 302 301 300 294 292 291 291 290 290 291 289 289 289 289 288 289 288 285 285 284 283 284 283 282 282 283 282 282 281 282 284 284 284
301 303 304 304 302 303 300 297 298 298 299 296 294 292 293 291 290 292 291 290 290 289 289 289 288 288 288 286 284 284 283 282 283 283 282 282 282 281 280 279 280 283 283 283
299 300 301 301 300 299 297 296 296 297 297 295 295 291 290 290 292 291 291 290 290 289 289 288 287 287 285 284 283 282 281 281 282 282 280 280 280 279 277 277 278 279 280 282
293 297 298 293 296 295 294 292 292 291 294 294 291 290 290 289 289 290 290 289 289 288 288 287 286 284 283 283 281 280 279 279 279 279 279 278 278 276 275 275 275 276 278 280
291 292 295 297 296 295 293 291 292 293 293 292 290 290 290 290 290 290 290 289 288 288 287 285 284 283 282 281 279 278 278 278 277 277 276 275 275 274 273 272 273 274 275 276
290 291 291 288 292 292 290 289 291 292 291 291 290 290 289 290 290 289 290 290 289 287 285 283 282 281 280 278 277 276 276 275 274 273 272 271 271 270 270 270 270 271 272 273
291 291 291 289 291 290 290 291 290 291 291 291 290 290 290 289 289 289 289 288 285 283 282 280 278 277 276 275 274 273 272 271 270 269 268 267 267 267 267 267 268 269 270 272
290 290 290 291 290 291 291 291 290 290 291 290 290 289 289 288 288 287 285 283 282 280 278 276 274 273 272 271 270 269 268 267 266 265 265 264 264 264 264 265 265 267 268 270
290 289 289 290 290 290 290 290 290 290 290 289 288 286 286 284 284 282 281 279 277 276 274 273 271 270 269 268 267 266 265 264 263 263 263 263 263 263 263 263 264 265 266 268
290 290 290 290 290 290 290 290 290 289 288 285 283 282 280 279 278 277 276 275 273 272 270 269 268 267 266 265 264 264 263 263 262 263 263 263 263 263 263 263 263 264 265 267

GFSCGP_925_thetae_009.txt.gz
Theta_e
314 315 317 318 319 318 318 318 318 318 318 317 316 315 315 316 316 316 317 316 314 312 311 307 306 304 304 304 304 306 308 310 311 316 318 320 320 321 320 319 318 317 314 311
314 316 317 317 315 315 316 317 317 318 317 314 315 316 316 316 316 315 314 314 313 312 309 307 305 304 302 301 301 303 304 306 308 313 315 316 317 318 318 317 316 315 313 310
317 320 317 316 316 316 316 316 317 317 316 316 316 317 319 318 317 314 312 312 310 308 307 306 305 302 301 300 300 300 301 302 304 308 310 312 312 309 310 313 313 312 311 309
317 315 314 314 315 315 317 317 316 315 316 320 315 319 318 318 317 313 312 311 308 307 306 305 303 302 300 300 299 299 298 299 301 303 306 307 308 307 307 307 308 309 308 308
317 314 314 315 315 315 316 312 313 313 316 317 318 317 318 316 316 313 311 308 307 305 304 303 303 301 300 299 299 298 298 298 298 299 301 302 303 304 305 303 302 304 304 304
314 309 311 314 313 312 310 312 314 315 316 321 319 319 317 316 315 311 309 307 305 305 304 303 301 300 299 298 298 297 298 297 297 297 297 297 298 299 300 301 301 301 302 302
317 316 312 310 313 311 311 314 321 324 325 324 318 316 317 315 312 312 309 305 304 304 303 302 302 300 298 297 297 296 296 296 296 296 296 296 296 296 297 298 298 299 300 300
320 320 316 311 314 317 318 318 324 326 326 325 315 320 318 312 309 306 305 303 302 301 301 300 300 298 297 297 296 296 295 294 295 295 295 295 295 295 295 295 295 296 297 298
320 320 313 311 311 312 315 315 313 317 318 321 318 318 316 310 308 305 303 301 300 299 299 299 298 298 296 296 295 294 294 293 292 293 294 294 293 294 294 294 294 294 294 294
318 320 318 313 309 311 314 317 322 318 322 322 317 315 315 315 312 306 303 301 300 299 298 298 296 297 296 294 294 293 292 292 291 291 291 291 291 291 291 292 293 293 293 292
315 318 317 316 315 315 313 312 312 313 314 318 318 315 312 312 310 307 302 299 298 297 296 296 296 294 294 292 292 292 291 290 290 289 290 289 289 288 288 287 288 287 290 291
315 315 319 316 314 314 314 314 314 317 317 316 316 318 314 308 306 302 299 296 295 295 292 293 295 292 292 291 291 290 290 290 289 288 289 289 289 288 287 285 285 285 286 286
315 316 318 316 311 313 315 313 314 315 315 317 319 316 310 304 302 301 301 297 295 294 292 291 293 293 291 290 290 289 288 288 288 287 287 288 288 288 287 285 284 284 285 285
311 312 314 315 311 312 314 313 314 315 317 317 316 313 312 310 307 306 301 298 297 295 291 291 291 291 291 290 289 288 288 287 287 287 286 286 287 287 287 285 284 284 284 284
311 312 310 310 310 310 310 309 308 310 311 311 310 311 310 309 307 304 304 296 294 294 290 290 290 290 290 290 289 288 287 287 286 286 286 285 285 284 284 284 283 282 283 284
306 307 307 306 305 305 306 306 306 307 308 308 307 306 304 302 296 296 295 292 291 293 290 290 290 290 289 289 289 287 286 286 286 284 284 283 283 283 283 283 282 281 282 283
303 305 303 303 302 303 304 303 303 304 304 303 303 302 296 296 294 294 293 292 290 292 290 290 290 289 289 289 289 287 286 285 284 283 283 284 283 282 282 282 281 280 280 281
301 301 302 302 301 302 300 299 298 298 298 299 300 295 294 292 291 291 292 291 291 291 291 290 290 289 289 288 286 285 284 283 283 282 282 283 282 281 281 281 280 279 278 279
299 299 299 301 301 299 299 298 298 296 297 298 298 292 290 290 290 291 292 292 291 291 290 290 289 288 287 286 285 283 282 281 281 280 280 280 280 280 279 279 278 277 277 277
294 297 299 300 298 297 294 295 293 293 295 298 293 291 291 290 290 291 291 291 291 290 290 290 288 286 286 285 283 280 280 279 279 279 278 278 277 277 276 276 276 275 274 274
293 295 298 298 298 296 297 293 292 294 295 296 293 292 292 291 291 291 291 291 290 290 289 287 286 285 284 282 279 278 278 277 276 275 274 273 273 273 272 272 272 272 271 271
291 293 295 293 293 292 292 292 292 293 294 293 291 291 291 291 291 291 290 290 290 289 287 285 283 282 280 278 276 275 275 274 273 271 270 269 268 267 267 267 267 267 268 268
291 292 292 293 292 292 291 292 292 293 294 293 292 292 291 291 290 290 290 290 288 286 283 280 278 277 276 274 273 272 272 270 269 268 266 266 265 265 265 265 265 265 265 266
292 292 292 292 291 292 292 292 292 292 292 292 291 291 291 290 290 289 288 286 284 281 279 276 275 274 273 271 270 270 268 267 266 265 264 264 264 264 264 264 264 264 264 265
293 291 291 291 291 291 291 291 291 291 291 291 291 290 289 288 287 286 284 281 279 277 275 273 272 271 270 269 268 267 266 265 264 264 263 263 263 263 264 264 264 264 264 264
292 292 291 292 291 291 291 291 291 290 290 290 289 287 283 281 281 279 278 277 275 273 272 270 269 268 268 267 266 265 265 264 263 262 262 262 262 262 262 263 263 264 265 266

GFSCGP_925_thetae_012.txt.gz
Theta_e
314 314 315 315 315 315 316 316 316 316 315 316 315 314 313 313 314 313 312 309 308 307 306 304 302 301 300 300 300 301 304 306 310 315 317 319 321 321 322 322 321 321 319 318
314 315 315 316 316 316 315 315 315 315 316 314 314 314 314 314 314 314 310 308 306 305 304 303 301 300 300 300 299 299 300 303 306 310 312 314 314 316 316 318 319 318 317 316
316 318 317 316 316 317 316 315 315 315 315 314 313 314 314 315 315 310 309 307 306 304 304 302 301 300 299 299 298 298 298 299 302 305 307 310 311 311 310 312 313 314 315 314
316 316 315 315 315 315 316 315 315 315 315 316 315 317 316 315 310 310 308 305 304 303 302 301 300 299 299 298 298 298 298 297 298 300 301 301 303 304 305 306 306 307 309 311
318 314 313 315 315 315 316 312 312 313 314 315 316 316 315 313 311 310 307 305 303 302 301 300 299 299 298 297 296 297 297 297 297 297 297 297 298 298 300 300 301 301 303 304
313 309 312 314 313 313 310 311 312 311 314 318 317 317 317 314 312 308 306 304 303 302 301 300 300 298 297 297 296 295 295 296 296 296 296 296 296 296 296 297 297 298 299 301
315 313 312 311 312 311 310 313 318 319 318 319 315 315 315 311 310 308 305 303 302 300 299 298 297 297 297 296 296 295 293 293 294 294 294 294 295 295 295 295 294 295 295 296
320 320 314 310 313 315 315 317 322 324 318 317 315 317 317 309 306 304 303 301 300 299 298 298 298 297 296 295 294 293 292 291 291 292 292 291 291 292 293 293 293 293 293 293
318 317 310 312 312 312 314 315 314 315 310 316 316 315 313 307 305 302 301 300 298 298 297 296 297 296 295 294 293 292 291 290 290 290 289 288 288 288 287 287 287 288 290 292
317 320 317 310 309 310 312 315 319 317 321 318 317 315 315 311 307 303 301 299 298 297 296 295 294 296 293 292 292 291 290 290 289 289 289 288 287 286 286 285 285 285 285 285
314 318 316 314 315 316 312 312 316 315 314 314 315 312 310 310 308 303 301 299 297 295 293 294 293 292 292 291 290 290 290 289 288 287 288 288 287 287 286 285 284 284 284 285
315 316 315 314 312 312 312 314 314 316 316 314 315 315 311 307 303 302 298 297 295 295 291 292 293 291 291 290 289 289 288 288 288 287 286 287 287 286 286 285 284 284 284 284
314 313 314 309 310 311 315 313 312 312 311 314 316 312 309 302 301 301 300 296 295 294 292 290 290 291 290 290 289 288 288 287 287 287 287 286 285 285 285 285 284 284 284 284
312 313 311 309 307 308 309 309 309 311 314 311 311 310 310 308 308 308 302 298 296 294 292 289 289 289 290 290 289 288 287 287 287 286 285 284 284 284 284 283 283 283 283 282
310 307 308 309 309 308 308 307 307 307 307 309 307 305 304 303 301 297 297 296 294 294 290 289 289 289 289 289 290 289 288 287 286 286 285 284 284 283 283 283 282 282 282 282
305 301 303 300 304 303 304 303 302 302 302 302 302 304 302 296 295 295 296 293 292 291 291 289 289 289 289 289 289 289 288 287 286 285 284 283 282 281 282 282 281 281 281 281
301 299 293 300 300 299 295 299 299 300 300 301 301 298 293 294 294 292 291 291 291 290 289 289 288 289 289 288 288 287 287 286 285 284 282 282 282 281 281 281 281 280 280 279
299 294 294 292 290 294 296 298 297 297 296 296 295 290 292 291 290 290 290 290 290 290 289 289 289 289 289 287 286 285 284 283 282 281 281 280 280 279 279 279 278 278 278 278
297 299 299 293 291 295 296 295 295 294 293 294 293 293 289 289 289 288 290 290 290 289 289 289 289 288 287 286 284 283 281 280 280 279 279 278 278 277 276 275 275 275 275 274
293 296 297 290 292 288 293 293 292 292 291 289 289 287 289 290 287 287 290 289 289 290 289 289 288 286 285 283 281 279 278 277 277 276 275 274 274 273 272 271 271 271 270 270
286 287 292 294 294 291 292 291 291 289 291 289 287 289 289 288 288 288 289 288 290 289 289 287 286 284 282 280 279 277 275 274 274 273 271 270 269 268 268 267 267 267 267 267
290 286 285 285 285 289 291 291 290 290 292 291 291 289 289 289 288 289 288 287 288 287 285 283 282 280 279 277 275 273 273 272 271 269 268 267 266 265 265 265 265 264 264 264
288 290 286 289 288 291 290 290 291 291 289 291 290 289 288 288 288 287 287 287 285 283 281 280 278 276 275 274 272 271 271 269 268 267 266 265 264 264 264 264 264 264 264 264
289 289 289 289 289 290 290 290 289 289 289 289 288 287 288 288 287 287 287 284 282 280 278 276 275 273 272 271 270 269 268 267 266 265 264 264 264 263 263 263 263 263 263 264
290 289 289 289 290 290 290 290 290 289 289 287 287 287 287 287 286 286 282 279 279 277 275 274 272 271 270 269 268 267 267 266 264 264 264 263 263 262 262 262 262 263 263 264
291 291 290 290 290 290 290 289 289 289 288 287 287 286 283 283 283 280 278 277 275 274 272 270 269 269 268 267 266 267 266 264 264 263 263 263 262 262 262 262 262 263 264 266

GFSCGP_925_thetae_015.txt.gz
Theta_e
311 310 311 310 310 312 313 314 314 313 313 314 313 312 312 310 310 308 305 304 304 302 301 299 299 298 298 298 298 300 304 308 312 314 316 317 318 319 321 322 322 323 323 322
311 312 311 311 312 313 313 314 313 312 313 313 312 312 310 311 312 307 305 304 304 302 300 299 298 298 298 297 297 298 300 303 305 307 310 311 311 310 311 314 318 317 317 318
312 314 313 313 313 314 314 314 313 313 312 312 312 311 312 311 307 306 305 304 303 301 300 298 297 297 297 297 297 297 297 298 301 303 305 306 306 306 308 306 307 312 312 313
312 312 314 313 315 313 315 313 313 314 313 314 313 315 313 311 308 306 304 302 301 300 299 298 297 297 296 296 296 296 296 297 297 298 299 298 297 298 298 299 300 301 302 307
316 313 312 313 313 312 313 311 311 312 312 312 313 314 312 309 309 307 303 302 300 299 298 297 297 297 296 294 294 295 295 295 296 296 296 296 296 296 296 297 298 298 299 301
311 308 310 311 311 312 309 310 311 310 312 314 313 314 313 309 310 306 303 302 301 299 297 297 297 296 295 294 293 293 293 294 294 294 294 295 294 294 294 294 294 294 295 296
314 312 310 310 311 309 309 311 317 316 314 317 313 314 314 309 307 306 303 301 299 298 296 295 295 295 294 293 292 291 291 291 290 290 291 290 291 291 289 289 289 291 292 293
317 319 311 309 311 314 310 314 319 322 317 314 312 316 315 304 302 301 300 299 298 298 297 295 295 294 294 292 292 290 289 289 288 288 287 287 286 286 286 286 286 286 286 286
320 318 311 310 311 313 314 315 313 315 305 312 315 313 308 304 302 301 300 298 297 296 295 295 295 294 294 292 291 290 289 288 288 288 287 287 286 286 285 285 285 285 285 285
316 318 315 310 310 311 313 313 317 315 314 313 314 313 314 308 304 301 299 297 296 295 294 292 294 293 292 291 291 290 289 288 287 287 287 287 286 286 285 285 284 284 284 284
314 316 315 312 313 313 312 311 316 315 313 312 310 311 308 309 305 301 298 297 294 293 292 293 291 292 291 290 289 289 288 287 287 286 286 285 285 285 285 284 284 284 284 284
314 314 310 314 311 310 311 312 312 316 313 310 315 313 304 301 300 299 297 296 294 292 289 291 291 290 290 289 288 288 288 287 287 286 286 285 285 284 284 284 284 284 284 284
314 312 308 307 306 311 313 311 309 311 311 314 315 312 302 300 299 298 297 295 295 294 290 289 289 288 289 289 288 287 287 287 286 286 285 285 284 284 283 283 282 282 282 282
312 313 308 309 304 307 308 307 306 309 311 307 308 308 305 304 303 300 299 298 293 293 290 288 287 288 289 289 288 288 288 287 286 286 286 285 284 283 282 282 282 281 281 281
309 307 308 308 307 306 307 306 306 306 306 306 305 304 303 302 297 296 294 296 295 293 289 288 287 288 288 289 289 289 289 289 288 287 286 285 285 284 282 281 281 280 280 280
305 301 302 298 303 303 303 301 301 301 302 302 302 301 299 295 294 294 294 292 290 291 289 287 287 288 288 288 288 288 288 288 287 286 285 284 283 281 280 280 279 279 279 279
301 298 294 298 301 298 294 298 297 297 296 297 298 297 291 293 293 290 290 290 290 289 289 287 286 288 288 288 288 288 287 286 285 284 284 282 280 279 279 278 278 277 276 276
299 294 289 289 286 291 294 294 295 296 295 293 293 288 289 291 289 289 289 289 288 288 288 288 288 287 288 287 286 286 285 284 283 281 279 278 278 278 277 275 274 273 273 273
299 297 289 290 282 291 294 294 294 294 291 291 289 290 290 289 288 287 288 289 289 288 288 288 288 287 287 285 284 283 281 280 278 277 276 276 275 274 272 271 271 270 270 270
294 297 295 285 293 290 291 292 291 290 291 286 284 287 286 288 287 285 288 288 288 289 289 287 287 286 284 281 280 280 278 275 275 274 273 272 271 270 269 268 267 267 267 267
283 282 296 296 296 290 289 289 290 287 289 285 285 286 288 287 287 287 287 287 288 288 288 286 285 282 280 279 278 276 274 273 273 271 269 269 268 267 266 266 265 265 265 264
289 287 282 279 280 289 289 289 290 289 290 289 288 288 288 288 287 287 287 286 286 286 285 283 282 280 278 277 275 273 272 271 269 268 267 266 266 265 265 264 264 263 263 263
288 289 285 288 287 289 289 288 289 289 288 290 288 288 287 288 287 287 286 285 285 285 282 280 279 277 275 273 272 270 270 269 267 266 266 265 265 264 264 263 263 262 263 263
288 288 288 287 288 289 288 288 288 288 288 288 288 288 287 287 286 286 285 285 282 280 279 278 276 274 272 271 270 269 268 267 266 265 265 265 264 263 263 263 262 262 262 262
288 288 286 287 289 288 288 288 289 288 287 287 286 285 286 286 286 285 284 281 280 278 276 275 274 272 270 269 268 268 267 265 265 264 264 264 263 263 262 262 262 262 263 264
290 290 290 290 290 289 289 289 288 288 288 287 286 286 285 285 285 282 280 280 277 275 273 272 270 269 269 267 267 267 266 264 264 263 263 263 262 262 262 262 262 262 264 266

GFSCGP_925_thetae_018.txt.gz
Theta_e
310 309 309 309 310 309 312 312 312 311 311 312 311 310 310 310 305 303 303 302 301 299 298 297 297 297 298 299 300 302 306 309 313 314 315 315 313 313 317 318 319 320 322 324
310 309 309 309 309 310 310 312 312 311 311 310 311 311 310 309 309 305 304 302 301 299 297 297 296 296 296 296 297 298 299 302 306 309 309 308 307 306 306 308 310 312 315 316
311 313 311 311 312 312 312 312 312 313 312 310 311 311 311 307 305 304 303 301 300 298 297 295 295 295 295 296 296 296 296 297 299 302 304 304 304 306 308 304 303 301 305 308
310 310 312 312 314 313 315 312 312 313 312 313 311 313 311 310 306 304 302 300 298 297 296 295 295 293 293 294 295 295 296 296 296 297 298 298 296 295 295 296 298 299 300 301
314 313 312 313 312 311 314 310 311 311 310 311 311 312 310 308 308 305 301 299 298 296 295 294 294 294 293 293 293 294 293 293 294 295 295 295 294 294 294 295 296 296 296 297
310 309 310 310 310 310 309 310 309 309 309 312 310 311 312 309 309 304 301 299 298 296 295 294 294 293 292 291 291 291 290 290 291 291 292 290 288 288 288 288 288 288 289 291
312 311 310 309 310 309 308 310 316 316 312 316 312 312 312 308 305 305 301 299 297 295 294 293 293 292 291 290 289 289 288 288 287 287 286 286 286 286 285 285 285 285 285 285
317 320 310 308 310 311 308 311 317 322 315 314 311 315 313 302 301 300 300 298 297 297 295 293 293 292 291 290 289 289 288 288 287 287 286 286 285 285 285 284 284 284 284 284
315 317 310 309 310 312 313 314 313 315 303 310 314 312 305 302 300 299 298 297 296 295 295 294 293 293 292 291 289 288 287 287 287 287 286 286 285 285 285 284 284 284 284 284
316 317 313 310 311 309 311 311 314 312 314 311 313 312 312 305 302 299 298 297 295 294 293 293 292 292 292 291 290 288 287 286 286 286 286 285 285 285 285 285 284 284 284 284
313 315 314 311 312 313 310 312 314 313 310 310 308 309 307 307 303 300 297 296 295 293 292 291 293 292 291 290 289 288 287 287 286 286 285 285 285 285 285 284 284 283 283 283
312 312 310 313 310 309 311 311 311 313 312 310 312 312 306 305 302 299 297 296 294 294 292 291 290 290 290 289 288 288 287 287 286 286 285 285 285 285 284 283 283 282 282 282
312 311 306 310 306 310 311 310 309 309 308 307 312 311 302 300 299 298 297 295 294 293 289 290 288 288 288 288 287 287 287 286 286 286 286 285 285 284 283 282 282 281 281 281
313 311 311 314 306 308 308 307 306 307 309 306 308 308 304 301 301 299 297 296 294 292 289 287 286 287 287 287 288 287 287 287 287 287 286 286 285 284 284 283 282 281 281 280
311 310 310 309 307 307 307 307 305 306 305 306 305 301 301 301 299 296 295 294 295 291 288 287 286 286 288 288 288 288 288 287 288 288 287 286 285 284 283 282 280 280 280 279
305 305 302 298 304 303 303 302 302 303 303 303 303 304 302 296 294 294 293 293 293 292 290 287 286 287 287 288 288 288 288 288 288 287 286 284 284 283 281 279 279 278 277 276
303 301 297 299 299 297 295 296 298 297 298 297 296 296 290 295 294 292 290 290 290 288 288 287 286 287 288 289 289 288 288 287 286 285 284 283 281 279 278 277 276 275 275 274
300 295 295 294 288 291 296 293 294 295 294 292 293 288 289 292 291 289 288 288 287 287 287 286 287 287 288 288 287 286 285 284 283 282 280 279 277 276 275 274 274 273 272 270
298 298 295 293 287 291 294 293 294 294 293 290 291 288 291 289 287 287 287 286 287 286 288 289 289 288 287 286 285 285 283 282 282 280 277 275 274 273 272 271 270 269 268 267
295 297 295 281 287 289 291 292 290 290 290 285 284 285 286 287 285 286 286 287 287 288 288 288 288 286 285 283 282 281 280 279 277 275 274 273 272 271 269 268 268 267 266 266
286 289 297 293 285 286 288 288 290 289 290 283 284 287 286 286 287 287 286 286 288 288 288 288 286 285 283 281 280 278 276 274 273 271 271 271 270 269 268 268 266 265 265 264
290 289 289 287 291 291 289 288 290 289 288 288 288 288 288 288 287 287 286 286 286 286 286 286 283 281 279 278 276 274 273 272 270 270 270 269 268 268 267 266 265 265 264 263
288 289 285 288 289 290 288 289 289 288 288 290 288 287 287 287 287 286 286 285 285 286 285 283 281 279 276 275 274 273 271 270 269 268 268 268 267 267 266 264 264 263 263 262
287 287 288 287 288 289 289 289 288 288 289 288 288 287 287 287 287 286 285 284 284 285 282 281 278 275 274 273 271 270 269 268 268 267 267 266 265 265 264 264 264 263 262 262
287 287 285 287 289 288 287 287 287 287 287 287 286 286 287 286 286 284 284 283 284 282 280 278 276 274 272 271 269 269 268 267 267 266 265 265 264 264 264 263 263 263 263 264
288 290 289 288 290 290 289 288 288 288 287 286 286 285 284 284 285 284 283 284 283 279 276 274 273 272 270 269 269 268 267 266 265 264 264 264 263 263 263 262 262 264 264 266

GFSCGP_925_thetae_021.txt.gz
Theta_e
309 308 309 308 308 308 310 311 312 310 310 312 310 309 309 308 304 302 300 299 298 297 296 295 295 295 296 297 299 300 304 306 312 315 314 312 310 310 312 314 316 317 319 320
309 308 308 307 308 310 310 311 310 310 310 309 310 310 309 307 306 303 301 299 298 296 295 294 294 294 295 295 296 297 298 301 304 305 304 304 302 299 300 302 305 308 310 312
310 312 309 309 309 310 310 310 311 312 311 310 310 309 310 305 303 302 300 299 297 295 294 293 292 293 293 294 295 296 296 297 299 301 302 302 302 301 299 297 298 299 300 301
310 309 312 311 311 309 313 310 311 312 312 314 309 313 309 307 304 302 300 297 296 295 294 293 292 291 292 292 294 295 296 297 297 297 297 296 293 292 291 292 293 294 295 296
313 313 311 311 311 311 313 310 310 310 310 310 309 310 308 307 307 303 299 297 295 294 293 292 292 291 291 291 292 292 293 294 293 294 294 292 289 288 288 288 289 288 287 288
311 308 309 311 309 310 308 309 309 308 308 311 310 310 310 309 309 303 300 298 296 294 293 292 292 291 290 290 289 290 290 289 290 290 289 288 287 286 286 285 285 285 285 285
311 311 310 308 310 308 308 310 314 315 312 315 309 310 310 308 304 303 301 297 295 294 292 291 291 290 289 289 288 288 287 286 286 286 286 286 285 285 285 284 284 285 285 285
315 319 309 307 309 310 307 310 315 317 315 313 310 314 313 302 300 300 299 297 295 293 292 291 291 291 289 288 288 288 287 287 286 286 286 285 285 285 285 285 285 284 284 284
315 317 309 307 309 310 310 311 310 314 299 308 313 311 304 301 300 298 297 296 295 294 293 292 292 291 290 288 288 288 287 287 286 286 285 285 285 285 285 285 284 284 284 283
315 318 311 309 308 308 310 309 313 310 314 312 314 311 312 304 302 299 298 297 295 294 293 292 292 292 290 289 288 287 287 287 286 285 285 285 285 285 284 284 284 283 283 283
312 314 313 311 311 311 311 313 313 311 310 312 309 310 305 305 301 300 299 297 295 293 293 292 292 292 291 290 289 287 287 286 285 285 285 285 285 285 285 284 283 283 283 283
311 312 310 312 309 307 309 311 312 316 313 309 310 313 303 305 301 299 298 296 294 293 292 291 292 291 290 290 289 288 287 286 286 285 285 285 285 285 285 284 283 283 282 282
312 311 307 314 309 309 311 309 309 309 308 308 312 311 302 300 300 299 298 295 294 294 292 290 289 289 289 289 288 288 287 286 286 286 286 285 285 284 284 284 283 282 281 281
313 312 314 317 311 308 310 307 306 308 309 313 312 310 304 303 301 300 297 296 294 293 291 288 286 288 289 288 287 287 287 286 286 286 286 285 285 285 284 283 283 282 281 280
312 312 309 309 305 307 307 307 305 306 305 307 306 304 302 301 301 299 298 297 295 295 290 287 288 286 287 287 287 287 286 287 287 286 286 285 285 284 284 284 283 281 280 279
304 306 305 305 306 307 310 308 306 307 308 306 306 305 302 298 296 294 293 292 293 293 290 287 286 286 286 287 287 287 288 287 286 285 285 285 284 284 284 282 281 280 279 278
306 302 304 312 300 302 304 299 301 302 301 301 303 301 290 294 293 292 291 290 290 288 290 288 286 287 288 288 289 288 288 287 286 285 284 284 284 283 281 279 278 278 277 276
303 302 301 301 292 304 301 293 295 297 295 293 293 289 289 293 293 291 288 288 288 288 287 286 287 288 289 289 288 287 286 286 284 284 284 283 282 280 278 278 277 275 274 273
299 301 297 302 293 296 297 293 292 293 292 291 293 290 291 290 287 287 286 286 287 286 287 288 289 289 289 288 287 286 285 284 283 283 282 281 279 277 277 276 275 273 271 270
294 297 302 288 294 297 295 292 290 291 291 285 287 287 287 286 287 287 286 286 286 288 288 289 289 288 287 286 286 285 283 282 281 280 279 277 276 275 274 273 271 270 269 268
290 293 300 297 298 290 288 288 290 289 292 283 285 286 286 286 287 287 285 285 288 288 289 289 288 287 287 284 283 282 281 281 280 279 277 275 273 272 271 270 270 269 267 266
291 290 291 288 286 291 289 289 292 290 287 287 287 288 287 287 287 286 286 285 286 287 288 288 287 286 284 282 281 280 279 278 277 275 274 273 272 271 271 269 268 267 266 265
291 292 290 292 292 290 289 290 289 288 288 288 289 288 288 287 287 286 285 284 285 287 288 287 286 283 281 280 279 278 276 275 273 272 271 271 270 270 269 268 268 266 265 263
287 286 288 289 288 288 288 289 288 288 288 288 288 288 287 287 286 286 285 284 284 286 286 286 283 280 279 278 276 275 273 272 271 270 269 268 268 268 268 267 266 265 264 263
288 287 286 286 288 288 288 288 289 288 287 287 286 286 286 286 286 284 285 283 284 285 284 284 281 279 277 276 274 273 271 270 269 268 267 267 266 266 266 265 265 265 265 264
287 289 288 288 289 289 290 288 288 288 287 286 285 285 284 284 285 284 284 285 285 283 282 279 278 277 276 274 272 270 269 268 267 267 266 265 265 265 264 264 264 266 265 266

GFSCGP_925_thetae_024.txt.gz
Theta_e
308 308 309 309 307 309 308 309 311 310 309 311 310 309 309 308 302 300 298 298 296 295 294 294 294 295 296 299 301 305 308 310 314 314 310 308 302 305 307 307 309 309 310 312
308 309 308 307 308 308 309 310 309 308 308 310 309 309 307 307 305 302 299 297 296 294 293 293 293 294 294 295 296 299 303 305 307 308 304 301 300 299 299 300 302 303 304 304
308 311 307 308 307 308 308 309 309 310 310 309 309 309 308 304 303 300 299 297 295 294 293 291 292 292 294 295 295 296 298 301 302 303 303 303 300 297 296 294 295 295 297 298
308 308 311 308 309 307 309 307 309 310 312 315 309 313 309 306 304 301 298 296 294 293 292 291 291 291 291 292 294 295 297 298 298 299 300 299 294 289 287 288 289 289 290 291
314 310 310 311 311 308 311 309 309 310 310 309 309 310 308 305 306 302 299 296 294 293 292 291 290 290 290 291 291 291 292 293 293 294 295 293 289 287 287 287 287 286 286 286
310 308 308 310 308 309 306 308 308 306 307 310 310 310 309 307 308 303 299 296 295 293 292 291 290 289 288 289 289 289 289 289 290 290 289 288 287 286 286 285 285 285 285 285
311 311 309 307 309 307 307 309 314 315 312 315 308 308 310 307 304 303 301 297 294 293 291 290 289 289 288 288 287 287 287 286 287 287 286 286 285 285 285 285 285 285 285 284
313 317 310 307 311 310 307 310 315 317 314 314 308 313 312 302 299 298 299 296 294 292 291 290 290 289 288 288 287 287 287 286 286 286 285 285 285 285 285 284 284 284 284 283
314 317 308 306 307 309 308 310 309 312 296 307 313 311 304 301 300 298 296 295 294 292 291 290 291 290 288 288 288 287 286 286 285 285 285 285 285 285 285 284 284 284 284 283
313 318 310 308 308 307 309 307 312 309 313 314 314 312 314 306 303 298 297 296 294 293 292 291 291 291 289 288 287 287 287 286 285 285 286 285 285 285 285 285 284 284 283 283
311 315 313 309 309 310 311 312 311 310 311 315 310 313 304 305 301 299 298 297 295 294 293 291 292 292 290 289 287 286 286 286 285 285 285 285 285 285 285 284 284 283 282 282
311 311 310 312 308 307 308 310 311 315 313 307 311 315 302 303 300 299 298 297 295 293 292 292 293 292 290 289 288 287 286 286 285 285 285 285 284 284 284 284 284 283 282 281
311 312 308 311 310 308 310 308 308 308 307 309 316 314 302 301 299 299 298 296 295 294 292 290 291 290 290 289 289 287 287 286 286 285 285 285 284 284 284 284 283 283 282 281
312 310 311 316 311 309 311 308 307 310 315 316 314 313 305 303 302 299 297 296 294 293 293 290 288 289 290 290 289 288 287 286 286 285 285 285 284 284 284 284 283 282 281 281
313 312 310 310 308 306 308 308 306 308 310 314 313 310 305 305 302 299 297 296 295 294 292 289 288 288 288 288 288 287 287 286 286 286 285 285 284 284 283 283 284 283 282 281
306 314 308 306 307 306 307 307 304 307 307 306 306 306 303 301 297 297 297 296 294 293 293 291 288 288 287 288 288 288 287 286 286 285 285 285 284 283 284 284 284 283 281 279
307 305 303 313 300 303 309 306 307 306 304 307 309 307 293 296 296 295 293 291 291 291 291 290 288 287 287 288 289 287 287 286 285 285 285 284 283 283 283 283 282 280 279 278
306 304 305 303 300 308 302 292 298 306 304 300 294 291 291 292 292 292 289 290 289 288 286 287 289 288 288 289 288 288 287 287 285 285 284 284 282 282 282 282 280 278 277 276
301 303 300 306 303 302 302 293 293 295 295 291 295 293 292 290 288 288 287 286 287 285 286 287 288 288 288 288 288 287 286 285 285 284 283 282 281 281 281 279 278 277 275 275
298 301 309 295 302 305 297 291 291 292 293 288 291 291 287 287 287 287 287 285 285 286 287 288 288 288 289 289 288 286 285 285 284 283 281 280 280 280 279 277 276 275 274 272
297 297 305 301 305 299 291 289 290 293 297 284 286 287 286 287 288 287 287 285 287 287 288 288 288 288 289 288 287 285 284 283 282 280 279 279 278 278 277 276 274 273 272 271
296 298 293 294 299 302 289 289 293 292 287 288 287 287 288 287 287 286 286 285 285 286 287 288 288 288 288 287 285 284 282 281 280 279 278 277 276 275 275 273 272 271 270 269
294 293 293 295 295 290 289 291 290 289 288 288 287 287 287 287 287 286 285 284 285 286 287 288 287 288 287 286 284 282 282 279 278 277 276 275 275 274 272 271 271 270 269 267
288 287 289 290 289 289 289 289 289 287 288 288 287 287 286 287 287 286 285 284 284 286 286 288 286 285 286 284 282 281 279 278 276 275 274 273 273 272 271 270 269 268 267 266
289 287 287 287 288 288 288 288 289 288 287 287 287 287 287 286 286 284 284 283 284 285 286 285 285 285 285 283 280 278 277 276 275 273 272 271 270 270 269 268 268 267 267 266
287 288 289 289 289 289 289 289 288 288 288 286 286 285 284 284 285 284 283 285 285 285 285 284 284 283 282 280 278 276 275 274 273 271 270 269 268 267 267 266 267 267 266 267

GFSCGP_925_thetae_027.txt.gz
Theta_e
307 309 311 309 308 310 308 309 310 309 309 311 310 308 309 305 302 301 299 298 297 295 293 293 294 295 297 301 303 307 310 310 314 314 311 308 303 304 306 306 306 307 308 308
307 309 308 307 307 308 307 309 309 307 307 309 309 309 309 307 304 302 300 298 296 295 293 292 293 294 295 296 300 302 305 306 308 310 306 303 300 299 299 299 301 302 303 303
308 310 305 307 307 309 308 308 308 310 309 308 309 310 309 305 302 300 299 297 295 294 293 291 291 292 294 295 297 299 300 302 303 303 303 300 297 294 293 292 292 292 294 294
307 307 309 307 308 306 309 306 307 309 311 314 309 317 310 306 304 301 298 296 294 293 292 291 290 290 291 291 295 296 299 301 301 301 300 297 292 287 286 286 287 287 287 287
315 309 309 311 310 307 311 306 307 309 310 310 310 311 310 306 307 303 299 296 294 293 292 291 289 289 290 291 292 293 294 295 296 296 295 293 288 286 286 286 286 286 286 286
311 307 307 309 307 307 305 307 307 305 307 311 310 312 311 308 307 303 299 296 295 293 291 290 289 288 288 288 290 291 292 291 291 291 291 290 288 286 286 286 286 285 285 284
311 310 308 306 307 306 307 309 314 315 313 316 307 308 310 307 304 303 301 297 294 293 291 290 289 288 287 287 287 288 288 287 287 288 287 287 286 286 286 285 285 285 284 284
314 316 310 307 308 309 306 310 315 317 315 315 307 312 312 303 300 298 299 297 294 292 291 290 289 288 288 287 287 287 286 286 286 286 286 286 286 285 285 284 284 284 283 283
312 314 307 306 306 308 308 310 309 310 296 309 313 311 308 301 301 298 297 296 295 293 291 290 290 289 288 287 287 287 286 285 285 285 285 285 285 285 284 284 284 284 283 283
312 317 309 307 307 307 308 307 312 309 312 312 313 313 315 306 304 299 297 296 295 293 291 291 290 290 289 288 287 286 286 285 285 285 285 285 285 285 285 285 285 285 284 284
310 315 312 308 308 310 310 310 310 310 311 314 311 313 305 307 304 301 299 297 296 294 293 292 291 291 290 288 287 287 286 285 285 285 285 285 285 285 286 286 285 285 284 284
311 312 311 311 307 306 308 309 310 314 312 307 310 315 303 303 301 300 299 297 296 295 294 292 292 292 290 288 287 286 286 286 285 285 285 285 285 285 285 285 285 284 284 283
311 312 312 313 311 307 309 307 308 308 307 309 313 312 301 300 300 299 299 296 296 295 293 292 292 291 291 289 288 287 286 286 285 285 285 285 285 285 285 284 284 283 283 282
312 311 314 321 314 310 310 308 307 310 309 311 314 313 304 303 302 299 298 297 295 295 294 292 290 291 291 291 289 288 287 286 285 285 285 285 285 284 284 283 283 282 282 281
313 315 309 310 308 309 310 310 307 310 311 315 314 312 307 305 302 300 297 296 295 294 293 292 291 289 290 290 290 289 288 287 286 285 285 285 285 284 284 283 282 282 282 281
309 317 309 309 307 306 308 306 307 309 309 309 310 309 304 303 299 298 298 296 295 294 293 292 290 290 290 290 290 289 288 287 286 286 285 285 284 284 283 282 282 281 280 280
312 309 313 319 302 307 313 309 306 307 304 309 308 309 299 301 300 298 296 295 295 293 292 291 290 290 290 290 289 289 289 288 286 286 285 285 284 284 283 281 280 279 280 280
309 310 312 302 303 313 304 293 303 307 305 300 299 294 297 299 295 294 292 292 291 290 290 289 290 291 291 290 289 289 288 287 286 285 285 284 283 283 281 280 279 280 279 278
303 307 304 306 308 305 301 293 299 304 302 297 303 299 293 290 289 291 289 288 290 289 289 289 290 290 290 289 289 288 287 287 286 285 285 284 283 281 280 279 279 278 277 277
301 305 311 301 307 310 301 292 291 294 300 290 299 298 288 288 290 290 287 287 287 288 289 289 288 287 288 288 288 288 287 286 286 286 285 284 281 280 279 278 277 277 275 276
300 300 309 304 306 305 293 289 291 299 301 287 288 287 287 289 290 288 286 285 287 287 287 288 287 288 289 288 288 287 287 286 287 284 283 281 280 279 278 276 276 275 275 275
301 303 302 301 303 307 290 289 296 296 288 288 288 288 288 288 287 287 286 286 285 285 286 287 287 287 289 288 287 287 287 287 285 283 281 279 278 277 276 275 274 273 274 273
299 301 300 301 301 291 291 293 291 290 290 288 288 287 287 287 286 286 286 285 285 286 287 287 287 288 288 288 287 287 287 285 283 281 279 278 277 276 274 273 273 273 273 272
289 288 292 294 290 290 290 289 289 288 289 288 288 287 286 287 286 286 285 284 284 286 286 287 286 286 287 287 286 286 284 283 281 279 277 276 275 274 273 272 272 271 271 270
292 289 288 289 288 289 289 288 289 289 288 288 287 286 286 286 285 284 284 283 284 286 287 286 286 286 287 287 285 284 282 281 279 277 276 274 273 272 271 271 270 269 269 269
288 288 290 290 289 290 290 290 288 289 289 286 286 285 284 285 285 283 283 285 286 285 286 285 285 285 286 285 284 282 280 278 277 275 274 273 272 272 271 270 269 269 268 268

GFSCGP_925_thetae_030.txt.gz
Theta_e
312 316 317 318 316 316 316 317 318 315 312 314 316 316 317 313 310 311 309 306 304 301 297 297 296 297 299 300 303 309 311 310 309 307 305 303 301 300 300 303 303 305 306 307
314 317 317 313 313 313 313 316 317 314 311 312 314 314 315 313 312 311 310 306 303 300 299 297 296 296 297 298 299 301 303 306 305 304 302 298 295 294 294 296 298 300 301 301
317 315 311 312 312 313 314 316 316 315 312 312 313 317 317 313 308 306 306 305 302 301 300 298 296 295 295 296 297 301 303 304 303 301 299 296 294 293 292 290 291 291 292 293
313 311 311 311 313 313 316 313 313 313 314 320 314 323 320 315 311 307 304 303 302 300 298 296 296 295 294 293 295 298 299 300 300 299 297 296 295 291 289 288 287 287 287 287
317 311 312 314 314 311 317 310 312 312 315 315 316 319 320 311 313 310 305 303 301 300 299 297 294 293 291 292 292 293 297 299 298 297 294 292 290 289 288 287 286 286 286 286
315 309 311 314 309 310 309 311 311 312 314 320 319 320 320 317 315 311 307 303 301 299 297 295 293 291 290 290 291 291 291 291 292 293 291 290 289 288 288 287 286 285 285 285
314 314 309 308 311 308 311 316 321 322 320 323 311 316 319 316 310 309 307 303 300 298 297 295 293 291 290 290 289 289 289 288 288 288 288 288 288 288 287 287 286 285 284 284
322 323 313 310 315 315 313 317 324 328 324 322 310 317 318 308 304 303 304 303 300 298 297 296 293 292 290 289 288 288 288 287 287 287 287 287 286 286 286 285 285 284 284 284
319 320 310 307 308 313 312 314 314 315 308 320 319 315 313 306 305 303 303 302 300 299 297 296 293 291 290 289 288 288 287 287 286 286 286 286 286 285 285 284 284 284 284 284
316 320 310 308 309 309 312 312 316 315 325 326 319 318 320 312 310 305 303 303 301 299 298 297 294 292 290 289 288 288 287 287 286 286 285 285 285 285 284 284 285 285 284 284
314 317 314 309 312 315 312 313 313 314 317 325 324 320 314 316 311 308 306 303 302 300 299 297 295 293 291 290 288 288 287 286 286 285 285 285 285 284 285 285 285 285 285 285
314 316 319 314 309 307 313 315 314 320 319 315 317 320 306 308 309 308 307 304 302 301 299 298 296 294 291 290 289 288 287 286 286 285 285 285 285 285 285 285 286 286 285 285
314 318 324 320 313 309 311 311 313 315 314 323 324 320 305 304 305 305 307 304 302 301 300 298 297 295 293 291 289 288 288 287 286 285 285 284 284 285 285 286 285 285 284 283
314 317 320 325 322 317 315 312 312 314 321 320 319 317 309 308 307 306 304 304 302 300 300 299 298 297 295 293 290 288 287 287 286 285 284 284 284 285 285 285 285 284 283 282
314 319 317 318 315 315 316 315 312 314 316 320 318 316 313 310 308 308 306 304 302 301 300 299 298 297 296 294 292 290 288 286 285 285 284 284 285 285 285 284 283 283 282 280
312 320 318 317 314 312 314 314 313 313 315 316 315 316 313 310 308 305 303 302 302 301 300 299 298 296 295 294 293 291 289 287 285 285 285 284 284 284 284 284 283 281 280 279
314 318 316 322 314 310 315 313 313 313 313 314 315 315 308 307 305 306 304 302 302 301 300 298 297 295 294 293 292 291 290 288 287 286 285 285 284 284 284 283 282 281 279 279
315 316 316 321 310 319 313 301 312 313 313 311 309 307 308 308 305 303 302 303 301 299 298 296 295 294 292 291 291 290 289 287 288 287 286 285 285 284 283 282 281 280 279 278
306 313 310 311 314 316 299 299 308 311 313 307 309 306 301 295 296 298 295 296 298 296 295 294 294 292 291 291 290 289 288 287 287 287 286 286 285 284 283 282 280 279 278 277
303 308 313 307 317 319 308 297 297 303 309 300 306 304 296 295 305 306 293 293 293 292 292 290 289 289 289 289 289 289 288 287 287 287 287 286 284 283 283 281 279 278 278 276
306 305 314 310 313 310 305 294 294 308 312 297 302 300 294 299 301 295 292 291 292 291 290 289 288 289 289 289 289 288 288 287 288 287 286 285 284 283 281 279 278 277 276 275
307 309 309 309 311 314 293 292 302 302 293 295 294 294 294 293 290 290 290 289 288 288 287 288 287 288 288 288 288 287 287 289 287 286 285 284 283 281 279 278 277 276 274 273
306 306 308 308 309 293 293 295 293 293 295 291 293 292 292 291 289 289 289 289 288 287 287 288 287 288 288 288 287 287 288 287 286 285 284 282 280 278 277 276 275 274 273 271
294 291 299 300 294 292 292 291 291 291 292 292 291 292 291 291 289 289 289 288 287 287 287 287 286 286 286 287 286 287 287 286 285 284 281 279 278 276 275 274 273 273 272 271
296 293 293 292 289 291 291 291 292 291 289 289 288 290 291 290 289 289 288 288 287 287 287 287 286 286 287 287 287 286 286 285 283 281 279 277 276 275 274 273 272 272 272 271
291 291 294 297 292 293 293 293 291 291 291 290 289 287 287 288 288 287 287 287 287 286 287 285 286 286 287 286 286 285 285 283 281 279 276 275 274 273 272 270 270 271 269 269

GFSCGP_925_thetae_033.txt.gz
Theta_e
317 318 320 320 319 320 320 320 321 321 316 315 319 319 319 316 314 314 315 313 310 307 303 301 301 303 305 308 307 308 309 310 310 308 305 304 302 301 299 299 300 302 303 303
316 318 319 319 318 319 318 319 320 321 316 314 317 318 318 318 316 315 316 314 311 306 303 301 301 303 304 307 305 304 306 307 306 306 304 302 299 297 296 294 295 296 298 297
319 319 315 316 316 317 318 319 320 320 316 314 316 318 319 318 317 316 313 314 311 307 304 302 301 302 303 304 305 304 304 304 304 302 300 298 296 295 294 292 291 291 292 293
318 317 315 316 317 317 320 319 317 317 317 322 317 324 322 321 317 314 312 311 309 306 304 302 300 301 301 301 301 301 301 302 301 300 300 299 298 294 292 290 289 289 289 289
318 314 314 316 317 316 319 315 317 317 318 320 321 321 322 322 321 316 312 310 308 305 303 301 300 298 297 298 299 299 298 297 298 299 298 296 293 291 290 289 288 287 287 287
317 312 314 316 312 314 314 316 315 316 319 324 322 323 324 322 317 318 312 309 307 304 302 300 298 296 295 295 295 296 295 295 294 294 294 294 292 291 290 289 288 288 287 286
318 317 314 312 315 311 315 319 326 325 324 326 316 322 323 319 313 314 312 308 306 303 302 300 297 296 295 294 294 293 293 292 292 292 293 292 291 291 290 289 288 288 287 285
325 326 319 313 319 319 316 320 327 331 329 326 312 319 320 316 311 308 311 308 305 302 301 299 297 296 294 293 292 291 291 291 291 291 291 290 290 290 289 288 288 287 286 285
324 325 316 313 314 318 316 319 319 321 314 322 321 318 317 310 308 307 309 307 304 302 301 300 297 295 293 292 291 291 291 290 290 290 289 289 288 288 287 287 287 286 285 284
322 324 315 312 310 312 315 316 318 318 330 329 323 322 322 314 312 308 307 306 304 302 301 300 297 295 293 292 291 291 290 289 289 289 288 288 287 287 286 286 286 285 284 284
319 320 316 311 314 317 313 315 316 318 321 328 327 324 319 319 315 311 308 307 305 303 302 300 297 295 293 292 291 290 290 289 288 288 287 287 286 286 286 286 285 285 285 284
318 320 325 318 313 313 315 317 316 321 321 319 321 324 311 317 316 312 309 308 306 304 302 301 298 296 293 292 291 290 290 289 288 288 287 286 286 286 286 285 285 285 285 285
316 320 327 325 316 311 312 314 315 316 318 324 326 324 310 309 312 311 311 307 306 304 303 301 299 297 294 293 291 291 290 289 288 287 287 286 286 285 286 285 285 285 285 285
315 320 325 328 325 319 316 314 314 316 320 321 322 322 311 310 310 309 310 308 306 305 303 302 300 298 296 294 292 291 291 289 288 287 286 286 286 286 286 285 285 285 285 285
315 322 322 322 322 321 319 317 315 315 316 321 321 320 320 312 311 310 309 308 306 304 303 302 301 300 298 296 293 292 291 289 288 287 286 286 286 285 285 285 284 284 284 284
313 319 319 321 320 320 321 319 318 315 315 316 318 320 318 312 311 311 309 308 307 305 303 302 301 300 299 297 296 293 291 290 288 287 286 286 286 285 285 284 284 284 283 283
314 316 319 323 320 320 317 318 317 318 315 316 318 317 313 314 311 310 309 307 306 305 304 302 301 299 299 298 296 295 293 291 288 287 286 286 286 285 284 284 284 283 283 282
315 315 317 322 318 323 320 318 316 318 317 315 315 313 312 311 309 308 309 306 305 303 303 301 300 299 298 297 296 295 294 291 288 287 286 285 285 285 284 284 283 283 281 281
314 316 319 321 322 321 319 304 312 316 318 315 314 311 304 301 303 304 305 305 304 302 301 300 299 298 296 294 293 292 291 290 289 287 286 286 285 284 284 283 283 282 281 280
304 314 317 313 323 326 315 306 305 311 318 311 311 308 301 301 309 312 299 298 299 299 296 296 295 294 292 291 291 290 289 288 288 288 288 288 287 285 284 284 283 282 281 279
309 313 317 319 320 317 307 298 303 317 318 303 308 304 300 304 305 299 296 296 295 294 292 292 291 291 291 290 290 288 288 288 290 289 288 287 286 285 284 283 282 281 279 278
312 313 314 316 318 320 297 296 309 305 297 300 303 300 299 298 294 295 294 293 292 290 289 290 289 289 289 289 289 288 288 290 289 288 287 286 285 284 283 282 281 279 278 277
310 310 314 313 313 295 295 296 296 295 300 295 298 297 298 294 292 292 291 290 289 289 289 289 289 289 288 288 288 288 289 289 288 287 286 285 284 283 282 281 279 277 276 274
298 297 306 306 297 297 295 294 293 293 294 294 294 294 294 294 291 290 290 289 289 288 288 288 288 287 287 288 288 289 288 288 287 286 285 283 282 281 279 278 277 276 274 273
299 297 300 296 293 292 295 294 294 294 291 291 291 293 293 292 290 290 290 289 288 288 288 288 287 287 288 288 288 288 287 286 286 284 283 281 279 278 277 276 276 275 275 275
293 294 297 301 294 299 297 296 294 293 292 291 291 289 289 291 290 289 289 289 288 288 288 287 287 286 287 287 287 287 286 285 284 282 280 278 277 275 274 274 274 273 273 272

GFSCGP_925_thetae_036.txt.gz
Theta_e
316 316 318 317 317 318 318 318 319 319 314 316 316 316 316 312 311 311 310 309 307 306 303 302 303 305 309 310 311 312 313 312 313 310 309 309 305 305 306 306 305 306 306 306
316 317 318 318 319 319 318 318 317 318 314 315 315 315 315 315 312 311 311 310 308 303 301 302 302 305 308 309 308 309 310 309 308 307 303 302 300 299 298 298 299 300 301 300
318 319 317 317 318 318 318 318 317 319 316 314 313 314 315 315 315 312 311 311 309 303 301 300 302 304 306 307 307 307 307 306 306 305 303 300 297 294 294 293 293 292 293 294
317 317 316 317 318 317 318 317 317 318 317 318 314 319 319 318 317 315 311 309 306 303 301 300 301 303 305 305 305 305 304 304 304 303 301 298 296 293 291 290 290 290 290 290
318 315 314 317 317 316 318 315 317 318 318 319 318 319 319 318 318 316 310 308 306 303 301 299 300 302 301 302 302 302 302 301 301 301 300 298 294 291 290 289 289 288 288 288
315 313 314 315 311 314 314 316 316 316 318 321 320 321 320 320 319 317 311 308 305 302 300 299 300 298 298 299 299 299 299 298 299 299 298 296 293 290 289 288 288 287 287 287
314 315 314 313 313 312 315 318 323 322 319 322 316 320 321 317 314 315 312 308 305 302 299 298 296 296 296 296 297 296 296 296 296 296 295 294 292 291 289 289 288 287 287 286
319 321 315 312 317 316 314 318 323 327 326 323 311 317 318 312 309 308 309 307 304 301 299 297 296 295 295 295 295 294 294 293 293 293 293 292 291 290 289 289 288 287 287 286
322 323 316 313 314 316 315 317 318 319 309 315 319 315 315 309 308 308 307 305 303 301 299 297 296 295 294 294 293 293 292 292 292 292 291 291 290 290 289 288 288 287 286 285
321 324 316 310 311 312 315 314 317 316 318 321 322 320 319 312 310 306 307 305 303 301 299 298 296 295 293 293 292 292 291 291 291 290 290 289 289 289 288 288 287 286 285 285
318 320 315 311 312 315 313 314 316 317 318 322 322 321 317 315 312 308 307 305 303 301 300 298 296 295 293 292 292 291 291 290 290 289 289 288 288 288 287 287 286 286 285 285
317 320 316 314 312 312 314 315 315 318 319 317 317 322 313 314 312 308 307 306 303 301 300 298 296 294 293 292 291 291 290 290 289 289 288 288 287 287 287 286 286 285 285 285
317 319 323 322 314 311 312 313 315 316 315 320 319 321 308 308 310 308 306 305 304 301 300 299 296 294 293 292 291 290 290 289 289 288 288 287 287 286 286 286 286 285 285 285
317 320 322 326 322 317 314 312 314 315 317 317 319 319 311 309 309 308 307 305 304 302 301 299 297 295 293 292 291 290 290 289 289 288 287 287 286 286 286 286 285 285 285 285
316 320 319 320 319 318 314 314 313 314 315 318 318 317 316 312 308 308 307 305 304 303 301 300 298 296 294 292 291 290 290 289 289 288 287 287 286 286 286 286 285 285 285 284
313 318 318 319 318 318 320 320 314 313 314 315 316 316 315 312 308 306 307 306 305 303 302 300 299 297 295 293 292 291 290 290 289 288 287 287 286 286 286 286 285 285 284 284
313 315 317 322 317 317 321 320 320 318 313 314 315 316 313 313 308 307 306 306 305 303 302 300 299 298 297 295 293 291 291 290 289 288 287 287 286 286 286 285 285 284 284 284
313 315 316 322 319 324 320 316 318 319 318 316 314 313 310 311 307 307 306 306 304 302 301 300 299 298 298 297 295 293 292 290 290 289 288 287 286 286 286 285 285 284 284 283
315 315 318 321 323 321 318 307 314 316 319 317 317 314 307 305 305 305 304 304 303 301 301 300 299 299 299 298 297 295 293 292 290 289 288 287 286 286 285 285 284 284 283 283
315 317 317 316 323 325 312 303 307 311 319 310 312 314 302 304 311 308 301 300 300 299 299 299 299 299 298 297 296 295 294 292 290 289 289 288 287 286 285 285 284 284 283 283
311 316 319 319 323 320 303 296 304 316 313 297 303 304 302 307 306 303 297 297 296 296 296 297 296 295 295 295 294 293 292 292 292 291 290 289 288 287 286 285 284 283 283 282
314 317 319 318 322 322 299 299 312 303 295 298 301 299 298 295 295 294 293 293 291 290 292 293 292 291 292 292 291 290 290 291 290 290 289 288 288 287 286 285 284 283 282 281
311 309 316 313 312 295 294 296 296 294 296 296 300 298 295 293 293 292 291 290 289 289 289 290 290 289 289 290 290 289 290 290 289 288 288 287 286 286 285 284 283 281 280 279
299 298 306 305 298 296 297 298 295 294 294 292 293 296 294 293 290 289 288 288 287 288 288 289 289 288 288 288 289 290 290 289 288 287 286 286 285 284 283 282 281 280 279 277
300 300 299 295 295 295 296 296 296 297 293 291 291 292 293 289 288 288 288 287 287 288 288 289 289 289 289 289 288 288 288 287 287 286 285 284 283 282 281 279 279 278 277 277
294 299 302 302 297 300 299 297 296 296 294 291 290 289 290 290 288 288 287 287 288 288 288 288 288 288 289 288 288 287 286 286 286 285 284 283 281 280 279 278 276 275 275 274

GFSCGP_925_thetae_039.txt.gz
Theta_e
313 312 314 313 312 313 315 316 317 315 314 314 312 312 312 310 308 307 306 305 304 302 301 302 303 307 310 312 313 315 315 314 315 315 314 312 309 308 309 310 309 309 308 308
314 314 313 314 313 314 314 315 315 314 313 312 313 313 312 312 309 309 309 307 306 300 299 301 303 307 309 310 311 313 313 314 312 312 310 309 307 303 304 303 304 305 305 305
315 316 315 315 316 316 316 316 315 316 314 313 312 312 312 311 311 309 309 309 307 302 300 299 302 306 308 308 310 312 311 308 307 309 308 303 300 298 298 298 298 298 298 297
314 315 316 315 316 315 316 315 315 316 316 316 313 318 315 315 314 311 310 306 307 301 300 300 301 304 307 308 309 311 309 307 307 307 306 305 302 296 293 294 292 292 292 291
315 315 314 315 316 314 315 315 316 315 315 317 316 316 316 315 316 316 312 308 305 301 300 299 300 303 306 306 307 308 306 306 306 306 305 303 298 295 291 290 290 289 289 289
313 312 312 313 311 313 311 314 314 314 315 318 316 317 317 318 317 316 311 305 303 300 299 298 300 303 304 304 304 304 305 304 304 302 300 300 297 291 289 289 289 288 288 288
313 313 313 311 312 312 314 315 319 320 317 322 315 317 319 316 313 313 312 306 302 300 298 297 297 298 300 301 301 303 303 301 300 300 298 298 295 291 290 289 288 287 287 287
317 317 313 311 313 314 313 315 319 323 321 319 312 316 317 314 310 308 309 307 301 299 298 297 296 296 297 299 300 300 300 298 297 298 297 295 293 291 290 289 288 288 287 287
316 316 312 311 314 314 313 316 317 318 302 312 316 314 312 309 308 308 306 304 302 300 298 296 295 295 295 297 298 298 297 296 296 296 294 292 291 291 290 289 288 287 287 286
317 322 313 309 312 311 314 312 318 315 316 317 318 317 320 313 311 306 306 305 302 300 297 295 294 294 295 296 296 296 296 294 294 294 292 292 291 290 290 289 288 287 286 286
315 319 314 310 312 315 313 314 315 317 316 319 318 319 313 315 312 308 306 305 303 300 298 296 295 293 294 295 294 294 293 293 292 292 291 291 290 290 289 289 288 287 286 286
314 318 311 313 310 310 314 314 313 318 318 314 315 321 311 313 310 307 306 305 303 301 299 296 295 293 292 292 292 292 292 291 291 291 290 290 290 289 289 288 287 286 286 285
315 318 319 318 313 310 312 312 315 315 311 317 317 321 308 309 311 306 304 303 302 300 298 296 294 292 292 291 291 290 290 291 291 290 290 289 288 288 288 287 287 286 286 285
316 318 321 323 320 313 313 313 314 316 317 317 319 319 314 311 310 307 304 304 301 300 299 297 294 294 293 291 291 289 290 290 290 289 289 288 288 287 287 287 286 286 285 285
317 320 318 319 318 315 313 313 313 315 316 317 318 317 316 314 309 308 305 303 302 301 299 298 297 294 293 291 290 290 289 289 289 289 288 288 287 287 287 286 286 286 285 285
314 319 318 320 317 317 318 314 313 314 314 314 316 316 313 312 311 306 306 304 303 302 301 299 298 295 293 291 291 290 289 289 289 288 288 287 287 286 286 286 286 285 285 285
314 316 317 323 317 317 320 319 320 315 314 314 316 315 312 313 312 307 305 305 304 303 302 300 298 296 294 292 291 290 289 289 289 288 288 288 287 286 286 286 286 285 285 284
314 316 316 321 318 323 320 316 318 319 317 314 313 315 313 313 312 308 306 305 304 303 302 300 299 297 295 293 292 291 290 289 289 288 288 287 287 286 286 286 286 285 284 284
315 316 318 321 322 320 318 311 315 316 318 316 317 316 314 309 307 306 302 304 305 303 302 301 299 298 295 294 293 291 290 290 289 288 288 288 287 286 286 286 285 285 285 284
313 316 317 316 323 324 318 307 307 312 321 314 315 316 315 306 314 314 302 301 300 299 300 299 299 298 296 294 292 291 289 289 288 288 289 289 288 287 286 286 285 285 285 284
318 318 317 319 323 320 304 298 307 320 316 294 300 307 307 310 312 303 299 299 298 298 298 298 298 297 297 295 293 291 290 289 291 291 290 289 288 288 287 286 286 285 284 284
317 320 322 320 322 324 299 301 314 304 295 296 301 299 299 298 296 297 296 294 294 294 294 296 294 294 296 296 294 292 291 293 293 291 290 289 289 288 287 286 286 285 284 283
315 310 318 317 315 296 296 297 296 295 295 295 298 296 294 294 294 293 293 292 291 291 290 292 291 291 293 295 296 294 295 294 293 292 291 290 289 288 287 286 285 284 283 282
302 299 305 304 299 297 297 298 297 295 293 292 294 296 295 293 292 292 291 289 288 288 288 290 290 289 289 292 293 294 293 292 291 290 289 289 288 287 286 285 285 284 283 281
301 301 299 298 296 296 297 297 297 299 294 291 290 291 293 291 290 290 288 287 287 287 288 289 289 288 289 290 290 290 289 289 289 288 287 286 286 285 285 284 283 282 282 281
297 300 303 305 299 301 301 299 298 298 296 292 291 290 290 290 289 288 287 287 287 287 287 288 288 288 288 288 287 287 287 287 287 286 285 285 284 283 282 281 280 279 278 277

GFSCGP_925_thetae_042.txt.gz
Theta_e
312 311 312 312 309 312 313 313 316 314 314 313 311 311 311 308 307 306 304 303 303 302 301 303 303 306 309 312 313 314 315 316 317 316 314 314 314 312 314 315 317 314 313 313
312 313 312 311 311 312 313 314 313 312 313 311 312 311 310 310 309 308 308 305 305 301 298 300 303 307 309 311 312 313 314 315 316 316 314 313 309 307 308 308 309 309 309 308
314 315 313 314 314 314 314 313 314 315 313 312 311 311 311 311 309 308 307 308 306 304 301 299 301 306 308 310 311 312 313 314 312 313 311 308 305 303 302 304 305 305 306 304
313 313 314 314 315 314 315 313 314 315 315 315 312 317 313 312 311 310 310 307 307 303 301 300 301 304 307 310 311 312 312 311 311 311 311 311 307 299 298 300 301 301 299 295
315 314 314 315 315 313 315 313 314 314 313 315 314 314 313 313 313 313 314 309 305 303 301 300 301 303 306 309 310 311 310 309 308 309 310 308 304 302 298 296 294 293 291 291
313 311 312 314 311 312 311 313 313 312 313 317 315 315 315 315 316 314 312 309 305 302 300 300 301 302 305 308 309 309 308 306 305 305 306 306 305 299 293 291 290 289 289 289
313 313 312 310 313 312 313 313 316 319 316 320 314 315 317 314 313 313 314 310 303 300 299 298 299 301 303 305 306 308 306 304 304 303 304 303 303 300 296 291 289 288 288 288
316 316 312 310 313 314 313 313 316 319 319 317 312 317 317 312 312 309 307 306 301 298 298 298 299 301 301 302 304 304 304 303 302 302 301 301 301 297 293 290 289 288 288 288
314 315 311 310 312 313 312 316 314 317 299 311 316 314 313 310 309 308 306 305 300 298 297 297 298 299 300 300 302 303 303 303 301 301 299 298 297 294 291 289 288 288 288 287
314 317 311 310 311 311 312 311 316 313 316 316 318 316 319 314 312 310 308 305 301 298 296 296 296 297 298 299 300 301 302 301 301 300 298 297 295 292 290 289 288 287 287 287
314 318 313 311 312 314 313 314 315 315 314 317 315 318 311 315 312 311 309 305 302 299 297 295 295 295 296 297 299 300 300 299 297 297 296 295 293 291 289 288 288 287 287 286
312 317 314 313 310 309 312 314 314 317 316 313 315 321 310 311 311 309 308 305 302 300 297 296 294 293 293 295 296 296 296 296 295 295 294 293 291 290 289 288 288 287 287 286
313 316 315 316 312 309 311 312 315 313 310 318 317 321 307 308 310 308 308 305 301 299 297 295 293 292 293 292 293 294 293 293 294 293 293 291 291 290 289 288 287 287 286 286
314 317 317 320 318 312 312 311 312 316 318 318 318 319 313 311 311 310 306 303 300 299 298 295 294 293 292 292 292 292 291 292 292 292 291 291 290 289 289 288 287 286 286 286
315 320 318 318 316 313 313 314 314 315 316 318 319 318 317 314 310 308 307 303 300 299 298 297 295 293 292 292 291 291 290 291 291 290 290 290 289 289 289 288 287 286 285 285
314 320 318 319 317 314 316 312 313 314 315 316 316 317 314 311 310 308 306 304 302 301 300 298 297 294 293 292 291 290 289 290 290 289 289 289 288 288 287 287 286 285 285 285
315 319 320 323 318 316 320 319 314 313 314 314 316 316 311 312 311 310 307 304 304 303 301 300 298 296 295 293 292 290 290 288 289 288 288 288 288 287 287 287 286 285 285 285
315 318 319 322 319 324 319 315 317 318 316 312 313 314 313 312 311 310 307 304 304 304 303 300 299 298 296 293 292 291 289 288 288 287 287 287 287 287 286 286 286 285 285 285
316 318 319 321 323 319 318 311 314 316 319 317 317 316 316 313 308 311 305 307 308 305 304 302 301 299 296 293 291 290 288 288 288 287 287 287 287 287 286 285 285 285 285 285
316 317 318 316 322 324 318 310 310 311 321 315 315 316 316 309 315 316 313 304 302 301 301 299 299 298 294 292 291 290 288 287 287 287 287 288 288 287 286 286 286 286 285 285
319 319 319 320 322 318 307 299 309 320 317 296 304 310 309 313 314 303 300 299 297 297 297 298 297 294 293 291 291 289 288 288 289 288 289 289 289 287 287 287 286 286 285 285
318 320 320 318 320 322 300 304 315 305 295 295 300 299 302 301 298 296 295 295 294 294 294 296 295 293 293 292 291 290 289 291 292 292 290 288 288 287 287 287 286 285 285 284
316 317 320 318 317 297 297 297 296 294 292 294 298 295 296 297 295 294 293 292 292 292 292 294 294 293 293 294 294 292 292 293 290 289 289 288 288 288 287 287 286 284 284 284
302 300 308 309 302 297 297 298 297 293 292 291 292 295 293 294 293 293 291 290 290 289 290 292 293 291 290 292 293 294 292 291 290 289 289 288 288 287 287 286 286 285 284 283
299 302 300 299 298 296 296 297 299 296 294 293 291 291 292 292 292 291 289 288 287 287 288 291 291 290 290 291 291 292 293 293 292 291 290 289 288 287 287 286 286 285 285 284
297 300 302 304 300 303 301 299 298 298 295 293 291 291 290 290 289 288 287 286 286 286 287 288 288 289 288 289 289 289 289 290 290 289 288 287 287 286 286 285 284 283 282 281

GFSCGP_925_thetae_045.txt.gz
Theta_e
310 310 312 311 309 311 311 312 313 313 313 313 311 310 310 308 306 305 305 303 303 303 304 304 304 304 306 310 312 313 315 317 318 319 319 317 319 318 320 320 320 319 318 319
311 312 311 310 311 311 312 314 312 311 311 311 311 311 310 308 307 307 307 306 305 304 299 301 302 303 306 309 312 313 314 315 316 317 317 316 316 314 316 315 317 316 315 314
313 314 311 312 312 313 312 312 312 314 312 310 310 311 310 310 308 307 306 308 308 306 303 300 299 302 306 308 311 312 313 314 315 313 314 313 311 307 308 308 311 310 310 310
312 312 313 313 313 312 314 311 312 313 314 315 311 316 312 311 311 308 309 308 307 305 303 301 300 301 304 307 310 312 312 313 311 312 312 313 308 303 304 307 308 306 305 305
313 313 313 314 314 312 314 311 312 313 313 314 313 313 314 312 313 312 312 310 307 304 303 301 300 302 304 306 310 311 311 311 311 311 311 311 308 308 306 304 304 301 298 297
311 310 312 313 311 312 310 312 311 311 312 316 315 314 314 313 314 313 311 310 308 304 300 300 301 301 303 305 309 310 310 309 310 309 309 308 309 305 300 299 299 294 292 291
312 312 311 310 313 311 312 313 316 316 315 318 312 313 316 312 311 312 313 310 307 303 299 298 297 300 302 304 307 309 309 308 307 307 308 307 306 307 305 301 297 291 289 289
314 313 312 309 313 314 312 313 316 317 316 314 312 316 316 310 310 309 308 308 306 301 297 298 298 300 302 303 305 307 306 305 305 305 305 306 305 304 302 300 296 291 290 289
314 314 310 309 311 313 312 314 313 315 299 311 314 313 311 310 309 308 308 306 304 301 297 296 297 300 301 302 304 306 305 303 303 303 303 303 301 301 300 296 293 291 289 289
313 314 311 310 311 310 311 311 315 312 313 313 315 315 317 316 313 311 309 308 304 299 296 295 296 299 300 301 303 304 305 304 305 303 304 303 301 300 299 295 291 289 288 288
313 314 312 310 311 312 312 313 313 313 312 316 314 317 310 315 312 312 310 309 305 300 296 295 295 298 299 301 301 302 303 303 303 302 301 300 299 298 296 293 290 289 288 287
311 315 312 312 310 308 310 313 313 314 314 312 313 318 310 310 310 309 309 308 305 300 297 295 294 295 296 298 299 299 300 301 301 300 299 298 298 296 293 290 289 288 288 287
313 315 309 314 312 308 311 311 313 312 310 317 315 319 306 308 309 307 308 307 304 300 296 294 292 293 294 295 296 297 299 298 299 299 297 296 295 293 291 290 288 287 287 286
313 316 314 318 316 312 312 311 312 314 315 317 317 318 315 312 308 309 307 306 304 299 297 294 293 293 293 294 294 295 296 297 298 296 295 295 293 293 291 289 288 287 287 286
316 319 317 317 316 312 312 312 312 314 315 317 318 317 317 314 310 308 309 307 303 300 297 296 295 294 293 293 293 293 294 294 295 294 293 293 293 291 289 288 287 287 286 285
314 319 317 318 317 316 315 312 312 313 315 315 316 317 314 312 310 308 308 306 304 302 299 298 296 294 293 293 292 292 292 292 293 292 291 290 290 289 289 288 287 286 286 285
316 317 317 322 317 317 318 317 316 313 313 314 316 316 311 314 312 312 311 305 305 304 303 300 297 296 295 293 293 292 291 290 291 290 289 289 289 288 288 287 287 286 285 285
315 317 318 321 318 323 319 316 316 317 315 313 313 315 314 314 313 311 307 306 306 304 303 301 299 298 296 295 293 292 291 290 290 289 288 288 287 287 287 287 287 286 285 285
318 318 320 322 323 321 317 313 314 314 317 315 314 313 312 312 308 311 305 307 308 305 303 303 303 301 298 295 293 291 289 288 288 287 287 287 287 287 287 286 286 285 285 284
316 318 320 316 323 325 318 313 311 311 319 315 314 315 315 312 315 316 310 307 304 302 302 302 301 300 298 294 292 290 288 287 287 287 287 288 288 288 287 286 286 286 285 285
318 318 320 321 322 318 308 301 310 319 316 298 302 308 311 313 313 302 298 301 296 296 297 298 297 295 294 291 290 288 287 287 288 288 287 287 287 287 287 286 288 286 285 285
318 319 320 319 321 322 301 306 315 305 296 295 299 299 302 302 299 296 295 294 294 293 293 294 292 290 290 290 290 288 287 288 288 288 287 287 287 286 287 289 286 286 285 285
317 315 317 315 317 301 297 298 296 294 292 294 296 293 296 297 295 294 293 292 291 291 292 293 292 290 289 290 291 289 289 289 289 289 289 290 290 290 290 288 286 285 284 284
303 300 313 312 304 296 296 297 296 292 292 292 293 295 293 294 295 294 293 291 290 288 289 292 292 290 289 290 291 292 291 292 292 292 291 290 288 286 286 285 285 284 283 282
303 303 306 307 296 296 295 295 296 295 295 295 292 292 292 293 293 292 289 288 287 287 288 292 292 290 288 291 292 292 293 292 290 289 287 286 286 285 285 284 284 284 284 284
299 303 308 309 300 302 300 297 297 297 297 297 291 291 289 290 290 288 287 286 286 285 287 288 289 288 287 288 287 289 289 290 290 288 287 287 286 285 285 284 282 282 282 282

GFSCGP_925_thetae_048.txt.gz
Theta_e
309 310 311 310 308 310 309 311 312 311 311 312 310 309 309 308 305 305 304 303 303 303 305 305 306 306 305 306 308 310 312 313 314 315 318 319 321 322 323 323 325 326 326 325
310 311 310 310 309 311 312 313 312 310 310 311 310 311 310 308 306 306 308 306 305 304 301 302 304 305 304 306 308 310 312 313 313 315 317 318 319 318 320 320 320 320 321 321
311 313 310 310 311 312 311 311 311 313 311 309 309 310 309 309 307 306 305 307 307 306 306 301 300 302 303 305 307 309 311 313 313 315 316 315 316 313 313 314 317 317 318 318
311 311 312 311 312 311 313 310 311 312 313 314 310 314 310 310 310 308 309 306 306 306 304 302 300 300 302 304 306 308 311 312 313 313 315 316 315 308 310 314 315 315 314 314
312 312 312 313 312 311 313 310 311 312 312 312 312 313 313 311 312 311 312 309 306 306 303 302 300 301 302 303 305 307 310 311 312 313 313 314 313 313 313 310 311 312 310 308
310 309 310 312 311 311 309 311 310 310 311 315 312 313 312 311 312 311 311 310 308 305 302 300 301 301 301 303 304 306 309 310 311 311 311 312 312 310 307 304 305 307 306 303
312 311 310 310 312 310 311 313 315 313 313 317 310 312 315 311 310 309 310 309 307 305 302 299 297 298 301 302 304 305 308 308 309 310 309 309 310 310 310 306 306 303 300 298
312 310 310 309 312 313 311 313 314 313 313 312 310 315 314 310 308 307 306 306 305 304 301 299 297 298 300 302 303 304 306 307 308 308 307 307 308 308 306 308 306 305 304 297
311 312 310 309 310 312 311 314 312 313 297 310 311 310 309 309 309 308 307 306 306 303 302 299 296 298 300 301 302 304 305 306 307 307 306 306 306 305 304 304 304 301 300 294
311 313 310 310 310 310 311 310 314 311 314 312 312 312 314 313 312 310 308 308 307 304 301 297 295 297 299 301 302 303 305 305 306 305 305 305 303 302 302 303 302 300 295 291
311 313 311 310 311 312 312 313 312 312 311 313 312 314 308 311 310 310 310 308 307 305 301 298 295 297 299 301 301 302 304 305 304 304 303 302 301 300 302 302 301 299 293 289
310 313 311 311 309 307 309 311 311 313 312 310 311 316 309 309 310 308 308 307 307 303 301 297 295 296 297 299 300 301 302 303 303 304 303 301 300 299 300 299 298 296 291 288
312 315 311 314 312 308 310 310 311 310 309 314 313 317 307 308 308 307 307 306 305 303 299 296 293 293 295 297 298 299 300 302 303 303 301 299 298 296 297 297 295 294 289 288
314 316 317 320 316 311 312 310 311 314 316 316 315 315 313 312 312 309 307 305 304 303 300 296 293 292 294 295 296 297 298 299 300 300 299 298 297 296 296 296 294 291 288 287
316 318 315 316 313 311 312 312 311 314 314 315 316 315 315 313 312 311 308 306 305 303 300 297 296 294 293 294 295 296 297 297 297 297 297 297 296 296 294 293 291 289 287 286
314 318 317 317 316 314 316 311 312 312 313 314 314 315 314 313 310 308 307 307 308 305 302 301 298 295 293 293 294 294 295 296 295 295 295 294 294 293 291 290 289 287 286 286
316 316 317 321 316 316 320 317 317 315 314 314 315 315 314 314 313 312 311 307 307 306 306 302 300 298 297 295 294 294 294 293 293 293 292 293 292 290 289 289 287 286 285 285
314 316 316 321 316 322 318 313 315 316 315 314 313 314 314 314 312 311 308 307 308 305 304 303 302 300 299 298 296 294 294 292 291 291 291 290 290 289 288 287 286 285 285 284
315 316 320 321 321 318 316 312 314 314 316 314 314 313 313 312 308 311 307 305 307 306 303 302 304 303 302 299 297 294 292 291 289 289 289 288 289 287 287 286 285 284 284 283
315 317 318 318 321 322 317 314 310 311 318 314 313 314 314 310 313 314 305 302 301 298 298 299 300 300 300 297 295 292 290 289 288 288 288 287 287 287 286 286 285 284 284 284
316 317 320 320 321 315 308 302 307 319 316 297 303 309 307 312 312 300 297 299 294 295 294 295 295 294 294 293 293 290 288 287 288 288 288 287 287 287 286 285 284 284 284 284
317 318 318 319 320 321 303 308 314 307 296 296 300 300 301 301 299 296 295 295 293 293 292 292 290 289 290 291 291 288 287 288 288 288 287 286 286 286 286 286 285 285 284 285
315 313 315 316 317 310 301 305 299 295 295 295 297 294 295 297 297 295 294 292 291 291 291 290 290 288 289 289 291 288 287 288 287 287 286 286 286 286 285 284 284 286 288 287
305 302 312 312 308 304 302 297 296 293 294 293 293 294 293 296 295 294 292 291 290 286 288 289 288 287 288 289 289 290 288 288 287 287 286 286 286 286 286 286 288 289 285 284
301 304 308 307 302 298 298 295 296 294 294 293 293 293 293 295 294 293 289 289 287 287 289 291 288 287 286 290 290 289 289 289 289 289 289 288 288 287 287 287 287 287 287 287
299 303 308 311 302 305 304 297 295 297 297 294 291 290 289 290 290 288 287 286 286 286 287 287 286 284 283 285 285 287 289 291 292 290 289 289 288 287 287 286 283 283 284 282

GFSCGP_925_thetae_051.txt.gz
Theta_e
308 310 312 309 309 308 308 310 311 309 310 311 310 309 309 309 306 306 307 306 306 305 306 306 307 308 308 307 308 308 309 310 312 311 316 318 321 322 324 326 328 329 330 330
309 311 309 308 307 310 310 312 311 309 309 310 310 311 310 308 310 309 310 309 307 307 304 304 305 306 306 307 307 307 309 310 313 313 314 316 318 319 322 324 326 326 327 326
310 311 307 310 309 310 310 310 311 312 310 308 308 310 310 309 307 306 306 308 308 308 308 305 301 303 304 305 306 307 308 310 312 312 313 315 316 316 317 320 322 323 324 323
310 310 310 310 311 310 312 308 310 312 313 313 309 313 310 310 309 308 309 307 307 308 305 304 301 302 303 305 305 306 307 309 312 312 313 315 314 312 314 318 319 320 320 320
311 310 311 312 311 309 311 308 309 311 311 312 311 313 312 310 311 310 310 310 309 305 304 304 302 303 306 304 304 305 306 308 310 311 312 313 314 315 316 316 315 316 317 317
309 308 309 311 310 310 308 310 309 308 310 315 311 312 309 310 311 311 310 309 307 305 303 302 303 303 302 302 302 304 305 307 309 309 311 312 313 313 313 312 312 311 312 314
311 311 310 309 311 309 310 312 313 311 313 316 309 312 313 310 309 308 310 309 306 305 304 303 301 299 300 301 302 303 304 305 308 310 309 311 312 314 313 312 311 310 308 310
312 310 310 308 311 312 310 311 312 311 310 309 309 314 313 309 308 306 305 305 304 305 303 302 301 300 299 300 301 303 303 304 306 309 309 309 310 312 311 312 312 311 312 314
309 310 308 308 310 310 311 313 310 310 296 309 310 308 307 307 307 307 309 306 306 305 303 302 300 299 299 300 301 302 303 303 305 307 306 307 308 309 309 309 309 308 310 313
309 311 309 309 310 309 310 309 314 310 312 311 311 310 313 312 312 310 308 308 306 305 304 302 299 298 299 300 301 302 303 303 304 305 305 306 307 307 307 307 307 307 307 307
309 311 310 309 310 311 312 312 311 311 311 312 310 312 306 310 309 309 308 307 307 306 304 302 299 298 299 300 301 302 302 303 303 304 305 305 307 307 306 305 305 305 305 304
310 311 310 310 308 307 308 311 310 313 311 309 310 315 308 309 310 309 308 307 306 305 304 301 298 297 298 298 300 301 302 303 303 304 304 304 306 305 303 302 303 303 303 301
311 314 310 313 311 307 310 308 309 309 308 312 314 316 306 307 309 307 308 307 305 304 303 300 296 296 296 297 299 300 301 302 302 303 302 302 303 302 302 301 301 301 301 299
312 316 316 319 314 310 311 309 310 313 315 315 312 314 312 311 311 308 307 306 306 304 303 300 297 295 296 297 298 299 299 300 301 301 301 300 300 300 300 300 299 299 299 297
313 317 317 317 315 310 311 311 310 313 314 315 315 314 313 312 310 310 309 307 306 307 303 301 300 298 296 295 296 298 298 299 299 299 299 299 299 298 297 297 296 295 294 294
312 317 314 316 315 315 314 310 310 311 312 313 313 313 313 310 309 307 308 307 307 306 305 303 301 298 297 296 296 296 297 297 297 297 297 296 296 296 295 294 292 291 290 288
314 314 317 320 315 314 317 316 315 314 311 312 313 313 312 313 312 312 310 306 308 307 308 306 304 301 300 301 300 297 296 296 296 295 295 295 295 293 292 291 290 289 288 287
314 315 316 319 315 321 317 313 314 315 315 314 313 313 313 313 313 312 308 308 308 306 305 304 304 303 304 304 301 298 296 295 294 293 293 293 293 292 291 290 289 287 286 285
314 315 316 319 320 317 313 311 313 314 316 314 315 314 314 313 308 311 309 306 308 307 303 302 303 303 303 302 301 297 294 294 292 291 291 291 291 290 289 287 287 286 284 283
311 314 316 317 320 320 314 311 309 309 317 313 312 313 313 310 313 314 304 301 301 298 297 297 298 298 299 298 297 294 292 291 290 290 290 290 290 289 288 287 286 285 284 282
313 313 315 316 319 317 309 301 307 317 315 299 308 311 311 312 312 303 298 300 295 295 294 294 293 292 293 294 294 291 290 289 290 289 289 289 288 288 288 286 285 284 282 282
309 312 314 315 317 318 304 306 312 309 299 296 300 302 303 303 302 299 297 296 293 294 292 291 289 288 290 291 291 288 288 289 289 288 288 287 287 287 286 285 283 283 283 284
312 310 313 314 315 307 305 306 307 300 300 298 299 298 296 297 297 297 295 293 291 290 289 288 287 287 288 289 290 288 287 287 287 287 286 285 285 285 285 284 283 283 284 283
303 304 306 306 305 306 306 306 306 297 296 295 295 294 293 296 295 294 292 290 289 287 287 288 288 288 287 288 288 287 286 287 286 285 285 285 285 285 285 285 285 287 285 285
301 300 305 306 304 302 304 300 301 294 293 293 293 293 293 294 294 292 289 287 287 288 288 288 286 284 283 286 287 287 287 287 287 286 286 285 285 285 285 285 285 286 286 287
298 302 305 305 300 303 303 298 296 296 294 293 292 290 289 293 292 289 287 286 287 286 286 283 281 280 280 283 285 287 288 289 289 288 287 287 287 286 286 286 285 286 287 287

GFSCGP_925_thetae_054.txt.gz
Theta_e
312 316 317 316 316 312 314 315 315 314 313 315 317 317 317 317 316 315 316 317 317 316 315 313 311 310 310 311 311 311 311 312 314 315 314 314 316 315 325 325 325 325 326 328
314 316 316 313 312 314 314 316 316 315 312 314 316 317 316 316 316 317 317 317 317 317 317 314 311 309 308 309 310 310 311 312 313 314 314 315 316 315 322 323 324 324 327 329
315 314 312 313 312 314 315 316 316 315 313 313 314 316 317 316 314 315 315 316 316 317 317 316 312 309 309 308 309 309 310 311 312 313 313 310 311 316 318 321 323 325 326 328
314 312 312 313 314 314 316 314 313 314 316 316 313 314 316 316 316 315 316 317 317 316 315 314 314 310 309 309 309 309 309 310 311 312 312 310 313 314 317 317 321 323 325 324
315 314 313 315 315 313 315 312 313 314 317 317 316 316 316 313 315 316 317 317 317 317 316 314 313 311 310 308 308 308 309 309 311 312 311 312 313 315 314 315 316 319 320 321
312 310 313 315 311 312 312 314 315 315 317 319 316 316 315 315 315 315 315 316 316 315 313 312 310 308 307 307 306 307 308 309 310 311 310 311 313 312 311 312 312 314 317 318
313 313 311 311 314 312 314 317 316 318 321 318 313 316 315 315 315 314 315 316 315 312 313 313 312 310 306 305 305 306 307 308 308 310 310 311 312 310 310 311 311 308 308 313
314 314 314 312 315 316 315 316 316 320 317 315 312 317 317 315 314 313 313 314 313 312 312 312 312 310 307 304 305 305 306 307 307 308 309 310 310 310 309 311 310 308 308 312
313 313 310 309 311 314 314 316 315 315 309 316 313 314 314 313 312 312 313 313 314 314 313 313 312 309 307 305 305 305 306 306 307 306 307 308 308 307 307 309 310 310 311 310
311 312 310 310 311 311 313 313 316 315 325 320 314 315 316 317 317 316 314 314 314 313 311 312 311 307 305 304 304 304 305 306 306 305 306 307 306 305 307 308 309 308 310 309
313 313 312 311 313 314 313 314 314 315 316 321 318 315 315 316 316 315 315 313 313 313 312 311 309 305 303 302 303 304 304 305 305 304 304 305 305 304 305 306 309 308 308 308
313 314 315 313 310 308 311 314 315 317 318 315 316 318 311 314 315 314 314 313 312 311 310 309 307 305 303 303 303 303 304 304 305 303 303 303 303 303 302 304 307 308 307 306
314 316 321 319 313 310 312 312 314 314 314 322 322 319 313 312 313 313 314 313 312 311 312 311 309 308 306 304 303 303 303 304 304 303 302 302 302 302 301 302 305 304 304 303
313 316 319 321 319 315 314 313 313 315 318 318 318 317 316 315 315 315 314 313 314 313 311 311 311 311 307 304 303 302 302 302 303 302 301 301 300 300 300 299 302 303 302 301
313 318 318 318 317 313 315 315 313 314 316 318 318 317 316 316 316 315 314 314 314 314 313 314 311 311 309 305 303 301 302 301 302 300 300 300 299 299 299 297 299 300 300 299
313 317 317 318 318 318 320 318 317 315 315 316 316 317 316 316 316 313 312 312 313 314 314 314 312 309 307 307 305 302 301 300 300 300 299 299 298 296 296 296 297 297 296 295
315 314 314 320 318 317 319 318 318 317 316 317 317 317 317 317 315 314 314 314 312 313 313 313 312 311 308 307 305 302 301 300 298 298 298 297 296 295 295 294 294 294 293 291
315 315 315 317 315 317 318 316 316 317 317 317 316 316 316 316 316 315 315 315 314 314 313 311 311 310 309 305 303 301 299 298 297 296 296 295 294 293 293 292 291 290 289 289
310 315 315 317 317 315 316 315 316 317 318 316 316 316 315 315 314 315 314 314 313 313 312 310 306 304 304 302 301 299 297 295 294 294 294 293 293 292 291 290 289 288 288 286
308 312 314 315 317 316 313 312 312 313 318 316 316 316 316 315 317 317 313 306 305 302 300 300 298 298 298 297 297 296 294 292 292 292 292 292 291 291 290 289 288 287 286 285
310 312 314 314 316 316 314 313 310 316 319 307 312 314 314 316 316 314 303 302 300 299 297 295 294 294 291 292 293 292 291 291 291 291 290 290 289 289 288 287 286 285 284 284
309 314 313 312 313 314 305 308 314 310 306 304 303 305 307 308 307 303 301 300 298 297 295 292 292 290 289 291 292 290 289 288 289 289 288 287 287 287 286 286 284 284 283 283
307 307 309 311 314 307 306 307 307 305 305 306 306 305 301 301 301 300 299 296 294 293 291 289 289 288 287 288 289 288 286 287 287 287 286 286 286 286 285 285 284 283 283 283
302 306 308 307 307 307 306 304 303 304 305 305 304 299 302 301 300 299 295 294 292 289 288 287 288 287 286 286 287 286 286 287 286 285 285 285 285 284 284 284 284 284 284 284
302 301 304 304 304 303 303 303 304 305 305 304 303 298 298 297 297 297 294 291 290 289 288 288 286 285 283 285 286 286 287 287 287 286 285 285 284 285 284 285 285 285 286 286
299 300 301 302 301 302 302 302 299 302 304 303 300 298 292 294 295 292 291 289 289 287 285 283 281 280 280 283 285 287 287 288 287 286 286 286 286 285 284 284 284 285 286 286

GFSCGP_925_thetae_057.txt.gz
Theta_e
315 314 315 315 316 316 315 316 316 316 316 316 317 317 317 317 317 317 318 318 318 318 319 317 316 315 317 319 320 322 322 320 320 319 318 318 318 321 324 328 328 328 328 328
315 316 316 316 317 316 316 316 316 316 316 315 316 317 317 317 317 318 318 318 318 318 318 319 318 315 314 316 318 317 316 316 316 317 317 317 317 318 319 320 325 326 325 326
315 315 315 315 315 316 316 316 316 316 316 316 317 317 316 317 318 317 317 318 318 318 318 318 319 316 314 313 315 315 315 315 315 316 317 316 316 317 316 316 319 324 324 325
315 314 314 315 315 315 315 316 316 316 316 315 316 316 315 315 316 318 318 318 318 318 318 317 318 318 315 314 313 314 314 314 314 315 316 316 315 314 313 313 316 321 323 324
315 315 315 315 314 315 316 315 316 316 318 318 317 317 316 316 317 317 317 319 319 319 319 319 317 316 316 314 313 313 312 313 313 314 315 315 314 313 315 316 315 319 321 322
315 312 315 315 313 315 315 317 317 318 318 318 316 317 316 315 316 317 317 318 318 318 317 316 314 314 314 313 312 312 312 312 312 313 314 315 314 314 316 314 313 318 320 320
315 314 314 313 315 314 316 316 315 318 322 319 316 318 316 315 316 316 316 317 317 316 315 316 316 314 311 311 310 311 311 311 311 312 313 314 313 314 315 314 313 313 315 316
315 316 315 314 316 316 316 316 316 319 319 317 315 317 316 316 317 317 316 316 317 317 316 315 316 315 313 310 309 309 309 310 310 311 312 313 312 313 314 312 314 313 312 315
314 314 314 313 314 315 316 318 316 319 318 316 314 315 315 316 315 315 315 315 315 316 317 317 316 314 313 310 309 309 309 309 310 310 310 312 311 312 313 312 313 314 313 312
314 314 312 312 312 313 314 314 316 316 327 320 314 315 316 317 316 316 317 317 317 316 315 314 315 313 310 309 309 308 309 309 309 309 309 310 310 311 311 311 311 311 311 310
314 313 314 312 313 314 313 314 315 315 317 319 319 316 315 316 317 317 318 317 317 316 315 314 312 310 308 307 307 308 308 308 308 308 308 308 308 309 310 309 309 308 308 309
314 314 316 314 313 311 314 314 314 317 318 316 317 318 314 315 316 317 317 315 316 315 314 313 312 311 309 308 308 307 307 307 307 308 307 306 307 308 308 307 307 307 306 307
314 317 321 317 315 312 313 314 314 315 316 322 320 317 315 316 315 316 316 317 316 315 314 315 314 314 312 311 309 308 307 307 307 307 306 306 306 306 307 306 306 305 303 305
314 317 321 323 320 317 315 314 314 314 318 318 318 317 316 316 317 317 317 316 316 316 316 315 315 314 314 313 310 308 307 307 306 306 305 305 305 305 305 305 304 302 301 303
315 316 318 319 318 317 318 316 316 316 316 318 317 317 317 317 317 317 317 317 316 315 315 315 315 315 315 314 311 308 307 306 306 305 305 304 304 303 304 303 302 301 300 302
314 318 317 318 318 319 319 318 317 316 316 316 316 317 316 316 317 317 317 317 316 315 314 314 314 314 314 313 312 310 307 306 305 304 304 303 303 302 302 302 300 299 298 299
314 314 316 318 316 316 319 319 319 319 319 318 319 318 317 317 317 316 317 317 316 316 315 314 314 314 314 313 311 310 307 305 304 303 303 302 301 301 300 299 298 296 296 297
312 313 313 317 316 319 316 314 315 318 317 317 317 317 316 316 316 316 316 316 316 315 315 315 315 315 314 310 307 306 304 303 302 301 300 299 299 298 297 296 295 294 293 293
310 311 313 314 314 313 312 313 314 317 318 317 317 317 317 316 316 316 315 315 315 315 315 314 308 306 305 304 302 301 299 298 298 297 296 296 296 295 294 293 292 291 291 290
308 310 311 310 313 312 311 311 312 312 315 314 311 314 316 316 318 317 315 312 309 307 305 302 300 300 300 298 297 297 296 295 295 294 294 293 293 293 292 292 291 290 289 288
308 309 310 310 311 311 311 310 310 315 316 308 307 308 309 310 313 311 309 308 304 301 300 298 297 297 294 293 294 293 293 292 291 291 291 291 290 291 290 289 289 288 286 286
308 310 311 310 311 311 308 310 313 309 306 306 306 306 307 307 306 305 305 303 302 301 300 296 295 293 291 291 292 291 289 288 289 289 289 288 288 288 288 287 286 286 285 284
304 305 307 310 311 308 308 308 308 306 304 304 304 305 306 306 305 304 305 301 298 295 295 291 292 289 288 289 290 288 286 287 287 287 286 286 286 286 286 285 285 284 284 283
302 304 304 304 304 306 307 307 305 304 303 304 304 304 305 305 304 303 303 303 298 292 290 289 289 288 287 287 287 287 286 287 286 285 285 285 285 285 285 285 285 285 285 285
300 301 302 302 302 303 302 302 304 303 304 305 305 306 305 304 303 301 300 296 293 291 289 289 288 286 285 285 286 286 286 287 286 286 286 285 285 285 285 285 285 286 286 286
298 298 300 301 300 300 300 300 301 303 304 304 303 302 302 296 298 297 296 293 292 290 288 286 284 283 282 284 286 287 287 288 287 287 287 286 285 285 285 284 285 286 286 286

GFSCGP_925_thetae_060.txt.gz
Theta_e
315 313 312 313 313 314 315 314 315 315 314 316 315 314 313 313 313 313 312 312 312 312 314 317 316 316 319 324 327 331 332 331 329 329 328 328 328 328 330 330 329 329 330 331
314 313 314 316 316 315 316 315 314 314 315 314 314 313 313 313 313 313 313 312 312 312 312 314 317 316 317 319 324 328 329 329 327 325 325 324 325 324 326 328 329 328 328 329
316 315 315 316 315 316 315 315 314 315 315 314 314 313 315 314 313 312 313 313 312 312 312 312 314 316 315 317 320 323 325 326 324 323 322 320 319 319 319 321 323 327 327 327
315 314 314 315 315 314 314 314 315 315 315 313 316 314 313 311 311 314 313 313 312 312 313 313 315 315 315 315 316 318 319 319 320 319 318 318 317 316 317 318 318 317 324 325
314 314 314 315 315 314 315 315 315 316 316 317 315 315 312 312 312 313 313 313 313 314 313 313 312 316 316 315 314 315 317 316 316 315 316 317 316 315 316 316 316 316 315 319
314 312 314 314 313 314 314 316 316 317 316 316 314 313 311 311 313 314 316 316 314 314 313 314 315 315 315 315 314 314 314 315 315 315 315 316 316 316 315 314 314 313 313 315
315 314 313 313 314 314 315 315 313 318 319 313 314 312 313 313 312 313 314 313 315 313 313 313 312 311 312 313 314 314 313 313 313 314 314 315 315 316 314 314 315 315 311 313
313 316 314 312 315 315 314 314 315 317 320 316 311 313 314 313 315 314 314 313 314 314 312 311 310 313 312 311 311 311 312 312 312 312 313 314 314 315 314 313 315 315 313 312
313 314 313 312 313 314 315 316 315 315 307 312 313 312 312 313 312 312 311 311 311 312 311 312 313 313 312 311 310 310 310 310 311 311 312 312 313 314 314 313 314 314 313 313
314 314 312 311 312 312 313 313 314 313 314 314 311 310 312 314 313 312 314 315 315 314 313 311 310 311 311 310 309 309 309 309 309 310 310 311 311 312 313 312 313 313 313 313
314 314 313 311 312 313 313 312 314 313 313 316 313 311 312 313 314 314 315 315 315 314 312 310 309 310 309 309 309 309 309 309 309 309 309 309 310 311 311 311 312 312 312 313
314 315 313 313 311 310 311 312 313 314 315 312 314 314 312 312 314 314 315 314 314 313 311 310 310 310 309 308 308 308 308 309 309 309 309 309 309 308 309 310 310 311 310 311
315 317 314 316 314 311 312 312 313 312 310 314 313 313 310 312 312 314 315 314 313 314 313 310 310 309 311 311 311 310 310 310 309 308 308 308 308 307 307 308 309 309 308 308
315 316 318 317 320 318 314 313 313 313 313 314 313 314 313 312 311 312 312 313 313 312 311 310 308 309 312 313 312 311 310 310 310 308 307 307 307 307 306 307 307 307 307 306
315 316 316 317 317 317 319 319 317 317 316 315 314 313 313 313 312 312 312 313 312 312 312 310 310 309 311 312 313 313 311 311 309 308 307 307 307 306 306 306 306 306 306 305
314 316 315 316 316 317 317 316 316 315 315 314 315 315 313 313 312 312 312 312 312 311 311 310 309 308 310 311 313 313 312 311 308 307 306 306 306 305 305 304 304 304 304 302
314 313 315 316 313 314 317 315 315 315 316 315 315 314 312 313 314 314 313 312 313 313 313 311 310 309 312 312 311 311 310 309 307 306 305 305 305 304 303 303 302 302 302 300
312 312 312 315 313 315 310 312 312 314 314 314 315 315 315 314 314 313 312 312 313 312 312 311 310 310 308 307 307 306 306 305 304 304 303 303 302 302 301 301 300 300 298 297
309 310 312 313 311 310 307 307 308 310 311 312 313 314 313 311 310 312 309 306 306 306 305 304 303 302 303 302 301 301 300 299 299 299 299 299 298 298 298 298 297 296 294 293
305 308 308 305 300 296 301 302 305 307 310 308 309 309 308 308 311 311 305 304 304 303 302 301 300 299 299 298 297 297 297 297 296 296 295 295 295 295 295 294 293 292 292 291
304 301 308 308 309 307 303 303 306 306 306 301 305 305 305 306 306 306 304 303 302 302 301 300 299 297 295 294 294 294 294 293 292 292 293 292 292 292 292 291 291 290 289 288
298 297 300 301 307 307 306 306 308 305 303 302 302 302 302 302 302 302 301 299 298 297 299 299 295 294 293 292 291 292 290 289 289 289 289 289 289 289 289 289 288 287 286 285
297 299 300 304 303 305 307 306 307 303 304 302 302 300 301 301 300 300 300 301 298 298 297 296 293 292 290 290 290 289 287 287 288 287 287 286 287 287 286 286 285 284 284 283
295 295 295 295 296 298 302 302 303 303 300 300 299 299 299 302 301 300 299 299 296 298 295 294 290 289 288 288 288 287 286 287 286 286 285 285 285 285 285 285 285 284 284 283
295 293 293 294 296 294 295 297 298 298 297 298 298 299 301 299 299 298 298 295 295 295 293 291 289 289 287 286 286 286 286 286 286 285 284 285 285 285 285 285 285 285 286 286
294 295 295 296 295 296 297 296 295 295 295 296 297 298 296 295 296 296 294 293 293 291 290 288 287 287 285 285 286 287 286 286 286 286 285 285 285 285 285 285 286 286 286 287

GFSCGP_925_thetae_063.txt.gz
Theta_e
312 309 309 309 309 310 313 313 312 313 314 314 312 311 310 310 309 308 308 308 308 308 310 313 314 316 319 324 327 331 333 334 334 332 332 332 331 332 332 332 331 330 330 331
309 308 309 310 311 312 314 314 312 313 313 313 311 311 309 309 311 309 309 307 307 307 308 310 313 314 316 319 326 329 332 333 333 332 331 330 330 330 331 331 331 331 329 329
311 313 310 314 314 314 314 313 313 313 313 311 312 309 310 311 310 309 308 308 308 308 308 308 309 312 315 318 322 326 329 332 332 331 330 329 329 328 329 329 330 330 329 328
314 313 313 313 314 312 314 312 312 314 311 310 311 310 310 311 309 308 308 308 308 307 308 307 309 311 312 316 318 322 325 329 331 331 329 328 325 323 323 324 327 328 329 329
312 312 312 313 312 311 312 313 313 314 314 315 313 310 309 309 310 309 309 309 308 308 308 308 308 313 314 314 316 318 322 326 328 329 327 325 323 321 320 320 320 321 324 327
312 311 312 312 312 313 312 314 313 313 312 311 312 309 307 307 309 311 311 312 313 312 311 311 312 313 314 314 314 316 318 321 322 323 324 322 321 319 317 317 316 316 317 318
313 312 312 312 312 312 313 309 309 312 314 311 309 310 309 309 310 312 312 310 313 312 311 311 312 311 312 314 313 313 314 316 317 316 317 318 317 317 316 316 315 315 315 314
313 312 312 311 312 313 313 309 309 312 316 312 309 312 312 309 308 313 312 311 309 309 308 308 308 310 311 311 312 313 313 313 313 314 315 315 315 315 316 316 315 315 314 314
310 311 311 311 312 311 312 314 311 312 300 309 309 309 308 310 310 309 308 310 310 311 310 309 309 310 311 311 311 311 311 312 312 312 313 313 314 314 315 315 315 315 314 314
312 313 310 310 311 310 311 311 313 311 309 310 309 308 310 310 310 309 312 312 311 310 308 306 307 309 310 310 310 310 310 310 310 311 311 311 312 312 313 313 314 314 313 313
310 312 311 311 311 312 311 312 312 311 311 312 311 309 306 308 311 311 312 312 312 310 309 308 307 309 310 310 310 310 310 310 310 310 310 310 311 311 311 312 312 313 313 313
312 312 310 310 309 309 309 310 311 312 312 309 311 312 310 311 312 311 311 312 311 310 308 307 308 309 308 309 310 310 310 310 310 310 310 310 310 310 310 310 311 312 311 312
313 314 308 312 312 310 312 311 310 310 308 312 310 312 307 307 309 308 311 312 311 312 312 308 307 307 309 309 309 310 311 312 311 310 310 310 310 309 309 309 309 309 310 311
314 314 313 313 316 315 314 316 314 312 311 312 312 312 311 310 309 309 309 308 311 310 309 308 307 307 308 310 311 312 312 312 311 310 309 309 310 309 308 308 308 307 308 309
315 317 315 314 315 317 318 317 317 317 314 315 314 314 313 312 311 311 309 309 309 309 309 308 308 307 310 311 312 312 311 312 311 309 309 309 309 308 307 307 307 306 307 307
312 314 316 315 314 316 317 316 315 316 315 313 312 313 311 310 310 310 309 309 310 309 308 308 308 308 309 311 310 310 310 310 310 309 309 308 308 307 306 306 306 305 305 306
315 313 315 316 312 314 315 313 314 314 313 313 315 313 312 312 310 312 312 310 309 307 307 306 305 305 305 306 305 306 306 306 307 306 306 306 305 305 305 305 304 304 304 304
313 311 311 310 309 314 307 307 311 312 312 312 313 313 312 312 310 310 308 306 306 305 304 303 303 302 302 302 303 302 302 302 301 302 303 303 303 303 303 303 303 302 301 301
308 310 307 300 299 305 308 307 306 306 304 303 304 305 307 304 305 308 305 305 305 304 302 302 301 300 301 301 301 300 300 299 299 299 299 299 299 300 300 300 300 299 298 297
306 307 308 293 304 300 303 303 303 303 305 304 304 304 304 303 305 304 303 301 302 302 302 301 302 301 300 300 297 296 298 297 296 296 296 296 296 296 296 296 296 295 295 294
304 305 306 305 303 298 300 299 303 303 301 299 304 304 303 303 303 301 300 300 301 301 301 302 301 299 299 297 295 294 294 294 294 293 292 293 293 293 293 293 292 292 291 290
303 303 304 305 305 305 300 302 303 302 301 299 301 300 300 298 298 298 298 297 297 298 299 301 299 299 297 294 292 291 291 292 291 290 290 290 290 291 291 291 289 289 288 287
294 297 294 300 300 299 305 303 304 302 302 302 301 299 299 299 298 298 298 298 297 297 297 298 298 297 297 294 290 290 291 289 289 289 288 288 288 288 288 288 286 286 285 285
293 291 293 294 293 293 300 301 301 302 301 299 297 296 296 297 297 297 296 296 296 295 294 295 294 292 292 292 289 288 288 287 287 287 286 286 286 286 286 285 285 285 284 284
293 293 290 290 292 292 292 294 296 296 296 295 294 296 296 295 297 296 294 292 293 294 293 292 291 290 289 288 287 286 286 286 286 285 285 285 285 285 285 284 284 284 284 285
292 294 293 291 293 293 294 294 293 293 293 292 292 293 293 294 294 293 292 293 293 291 292 290 289 288 287 285 285 285 285 285 285 285 285 285 285 285 286 286 287 287 287 287

GFSCGP_925_thetae_066.txt.gz
Theta_e
310 308 309 308 307 308 309 311 312 312 313 313 311 309 309 308 308 306 306 306 305 306 308 310 311 312 318 323 327 328 330 331 333 333 333 333 334 333 330 334 334 334 334 334
308 309 308 307 308 310 312 312 312 312 312 312 311 310 308 307 307 307 307 305 305 306 306 308 311 311 311 316 322 327 329 330 332 333 333 331 331 330 332 333 333 332 332 332
307 309 308 311 312 312 312 311 311 311 312 309 310 306 306 309 309 309 307 306 305 305 305 305 307 310 312 312 317 323 327 330 331 332 332 331 331 330 330 331 332 331 331 330
312 312 309 312 312 310 312 311 311 312 310 308 308 307 307 308 307 306 305 304 304 304 305 304 306 308 310 312 314 319 325 328 330 331 331 330 329 328 328 328 329 330 330 330
312 311 312 312 312 310 311 312 311 312 311 313 310 309 306 307 309 307 305 305 309 308 307 307 306 309 311 311 312 315 321 326 329 330 330 330 329 328 328 327 327 327 328 329
311 310 311 310 311 311 310 311 309 311 308 309 309 307 305 305 307 309 311 312 311 311 310 310 311 312 313 313 311 313 318 323 326 328 329 329 328 328 327 325 324 323 323 325
313 312 311 310 312 312 310 307 307 308 310 309 308 308 307 307 306 309 309 310 311 309 306 305 305 308 310 312 312 311 314 317 321 324 326 327 327 326 325 324 322 321 319 318
312 314 312 310 311 312 310 307 308 308 311 308 308 311 311 309 307 308 308 308 307 307 306 306 306 308 310 310 312 313 313 313 315 316 317 319 321 322 321 320 319 318 317 316
310 309 310 310 310 311 313 312 307 309 296 308 308 307 307 307 308 308 308 309 310 309 306 306 307 309 310 310 311 311 312 312 312 312 313 314 314 315 315 315 315 315 315 315
308 312 310 310 310 310 310 309 313 309 306 306 306 308 308 309 308 308 311 310 309 308 307 307 307 309 310 310 311 311 311 311 311 311 311 312 312 312 313 313 313 314 314 314
309 311 311 310 311 311 311 312 311 310 308 309 308 307 304 307 309 310 311 311 311 310 308 306 306 309 309 309 310 311 311 312 312 312 311 310 311 311 311 311 312 312 312 313
309 310 309 310 308 308 309 310 310 311 310 308 309 309 309 309 309 308 309 309 311 310 308 307 307 308 308 309 309 310 310 310 312 312 311 311 310 310 310 310 310 310 310 311
311 311 308 312 311 310 310 309 309 308 307 310 309 310 306 306 306 307 307 307 308 309 309 306 305 306 307 309 309 310 310 311 311 310 310 310 310 310 310 310 309 309 309 309
312 312 310 314 313 310 311 314 313 310 309 312 311 310 309 308 309 308 307 307 310 308 306 305 306 307 308 308 308 308 308 309 309 309 309 309 310 310 310 309 308 308 308 308
314 313 314 313 315 316 317 317 315 316 312 311 313 313 310 310 310 310 308 307 307 308 306 305 305 304 305 306 307 307 307 307 307 308 308 308 308 308 307 307 307 306 307 307
312 313 315 313 314 316 317 316 315 314 314 314 313 314 310 308 307 307 307 307 307 306 305 304 304 304 304 304 304 304 304 304 304 305 305 305 305 305 305 306 306 305 305 305
314 312 314 312 312 313 316 314 314 314 312 314 315 313 310 310 309 309 309 306 306 305 305 303 302 302 303 303 302 302 302 301 301 301 302 303 303 302 302 303 303 303 304 304
314 312 312 313 309 316 308 305 310 312 311 311 312 311 309 306 305 306 303 304 304 303 303 301 301 302 302 302 302 301 303 303 302 301 299 299 300 301 300 301 301 302 302 301
310 310 310 311 308 302 304 305 306 310 306 307 307 302 303 302 302 306 303 303 304 302 302 301 301 301 301 301 301 300 301 301 300 300 299 298 297 297 297 297 298 299 299 299
307 308 310 302 306 298 300 302 301 300 304 303 304 304 303 302 304 301 300 299 299 301 301 301 301 301 300 301 299 298 298 297 297 297 296 295 295 295 295 295 296 296 296 295
305 308 310 305 307 300 297 301 300 299 299 297 302 303 302 302 300 298 297 297 299 299 299 299 298 298 299 297 296 295 295 294 296 294 293 293 292 293 293 294 294 293 292 292
300 300 299 303 303 301 298 298 300 298 298 298 301 301 300 298 296 295 295 295 296 297 297 297 296 296 296 295 294 293 291 293 292 292 291 290 291 291 291 291 291 290 290 289
298 297 296 298 298 298 300 300 301 298 298 299 300 299 297 296 295 295 295 295 295 295 296 296 295 293 295 294 292 290 291 290 289 289 289 289 288 289 289 289 289 288 287 287
292 289 292 292 291 294 299 302 301 300 300 298 297 297 295 295 295 294 293 294 293 294 294 294 293 291 291 292 291 290 289 288 287 287 287 287 287 287 287 286 286 286 285 284
292 292 290 289 291 290 289 294 296 298 296 296 293 293 293 293 293 292 292 291 293 293 293 291 290 289 289 289 289 288 287 286 286 286 286 286 286 286 285 284 284 284 284 285
292 294 295 293 293 293 293 292 292 292 292 291 290 291 291 291 292 292 290 292 292 292 291 288 288 287 288 287 287 286 284 285 285 284 283 285 285 285 284 285 285 286 286 285

GFSCGP_925_thetae_069.txt.gz
Theta_e
308 308 307 308 306 305 306 309 310 311 311 312 310 309 308 307 307 305 304 304 303 304 306 308 309 312 318 323 326 328 331 334 334 334 334 334 334 334 333 331 331 330 330 331
308 308 307 306 307 309 310 311 311 310 311 311 310 309 307 307 307 306 306 304 303 303 303 306 308 309 309 313 319 324 326 328 330 333 334 334 334 333 334 333 331 329 330 332
307 308 306 309 308 309 310 309 310 310 310 308 306 305 304 305 307 307 305 304 303 303 303 303 305 307 309 309 312 317 321 324 327 330 331 331 332 331 332 332 332 331 329 333
308 310 308 310 311 309 311 309 309 311 308 307 306 305 305 306 305 305 303 301 301 301 303 303 304 306 308 310 310 312 317 322 325 328 331 331 330 329 329 329 331 331 330 332
310 311 310 311 310 309 311 310 309 310 309 311 310 308 305 304 308 305 304 306 308 306 307 306 306 307 308 310 309 310 314 320 325 327 329 330 330 330 330 329 329 329 330 330
310 309 310 309 310 310 308 308 307 308 306 307 308 306 303 304 306 309 308 309 307 305 303 303 307 308 310 311 310 310 313 320 324 326 328 329 329 329 329 328 328 328 327 327
312 311 311 310 311 311 307 306 306 306 309 307 306 307 305 305 306 306 305 306 304 304 304 304 304 306 308 310 311 311 314 318 322 325 326 328 329 329 328 328 327 327 326 324
312 314 311 310 310 311 308 307 307 306 307 306 307 310 308 307 306 306 306 308 307 305 304 304 305 307 308 310 311 312 312 313 315 318 321 323 324 325 325 325 325 324 323 322
310 309 310 310 309 310 311 308 305 306 294 306 306 305 305 305 305 308 309 308 307 306 305 306 307 309 310 310 310 311 311 312 312 312 312 313 314 315 316 316 317 318 317 316
308 310 309 309 309 309 309 308 311 306 304 304 304 306 306 308 309 310 309 309 308 307 305 305 305 307 308 309 310 310 310 311 311 311 311 311 311 311 312 312 312 313 313 313
306 310 311 310 310 310 310 310 308 308 306 307 305 305 302 306 309 308 308 308 309 308 306 305 305 307 308 309 309 310 310 310 311 310 310 310 310 310 310 310 310 310 310 310
308 309 310 311 308 307 309 309 308 309 309 307 308 308 305 308 307 307 308 307 307 309 306 304 305 306 308 308 308 308 308 309 309 308 308 309 310 310 310 310 310 309 309 309
309 309 309 313 310 309 309 308 308 307 307 309 309 309 305 305 305 306 307 308 307 307 304 303 304 305 306 307 307 307 308 308 308 308 309 310 310 308 308 308 308 308 308 307
311 309 310 313 312 309 310 309 308 309 309 310 309 308 308 305 307 308 307 306 305 304 304 304 303 303 304 305 305 305 305 304 305 306 306 307 307 307 307 307 307 306 306 306
312 311 313 314 314 314 314 312 312 309 310 310 311 307 306 307 309 308 308 305 306 305 304 303 302 302 303 302 302 303 303 303 302 303 303 303 303 304 305 305 305 305 305 305
311 313 313 313 314 315 316 314 313 313 314 313 314 314 310 309 307 307 306 306 305 305 303 302 301 301 301 301 301 302 302 302 302 303 302 302 302 302 303 302 303 303 303 303
314 313 312 316 313 315 316 313 313 312 312 313 315 312 308 309 309 309 306 303 303 302 302 301 300 300 301 301 301 301 301 301 301 301 301 301 300 299 300 300 300 300 301 302
313 312 312 310 312 316 309 305 311 312 311 312 311 310 308 307 306 303 302 302 302 301 301 300 300 300 300 301 301 300 300 300 301 300 300 298 296 296 296 297 298 299 299 299
311 311 310 312 313 306 306 304 308 310 309 309 310 302 302 302 302 304 301 301 301 300 300 300 299 299 300 300 300 299 300 299 299 299 298 297 295 295 294 294 295 295 296 297
308 310 311 303 310 305 302 302 300 300 304 302 301 301 301 300 303 300 301 298 297 298 299 299 298 298 298 298 297 297 297 297 297 296 295 295 294 293 293 293 293 294 294 295
309 310 312 300 304 301 298 299 298 298 299 296 300 301 300 300 299 297 296 296 296 297 298 297 296 296 297 296 294 294 294 294 294 293 293 293 292 291 291 291 291 292 292 292
308 308 306 305 305 305 296 299 300 298 298 297 299 299 299 298 297 295 294 294 295 295 296 296 294 295 295 294 292 292 291 294 292 292 291 291 291 290 290 289 290 290 290 289
298 298 297 300 302 297 295 299 298 297 297 298 297 298 297 296 294 292 293 292 293 295 295 295 294 293 293 293 292 290 293 291 291 291 291 289 289 289 288 288 288 288 288 287
292 289 292 293 291 295 297 300 298 298 297 296 296 296 295 294 292 291 291 291 292 294 294 293 292 291 291 292 291 291 290 290 288 287 287 287 287 287 287 286 286 285 285 285
292 292 288 289 289 290 290 292 295 295 294 294 293 293 293 291 290 290 290 289 292 292 291 290 289 288 289 290 290 290 289 287 286 285 285 285 285 286 286 285 285 284 284 284
292 293 294 292 293 293 294 293 293 292 293 293 292 291 290 290 289 290 288 290 290 289 288 286 286 286 287 288 289 289 288 285 284 284 283 283 283 284 285 284 285 285 285 285

GFSCGP_925_thetae_072.txt.gz
Theta_e
307 306 308 308 304 303 304 306 308 309 310 311 309 308 307 307 306 305 304 303 302 302 304 307 308 309 316 323 325 329 330 331 332 332 332 332 331 332 332 332 331 330 329 329
307 307 306 305 306 308 308 309 310 310 310 311 309 308 307 306 306 306 305 303 302 301 301 303 306 307 307 311 317 323 327 329 331 332 332 332 331 332 331 332 332 332 330 329
307 307 305 307 307 308 308 308 308 309 308 306 304 303 303 304 304 305 304 302 301 301 300 300 303 305 307 307 309 315 321 325 328 331 332 332 332 331 332 331 332 333 332 330
307 306 306 308 307 306 308 307 307 309 307 308 305 304 304 305 304 304 302 301 303 303 303 303 304 305 305 307 307 309 313 320 324 328 331 332 331 330 330 330 331 333 333 332
308 308 308 310 309 307 309 308 308 308 308 310 309 306 305 302 306 307 307 305 303 302 302 302 303 307 309 309 308 308 309 314 320 325 327 329 329 329 329 329 329 329 329 330
310 309 309 309 308 308 307 306 305 306 304 306 307 305 304 304 306 307 305 302 303 303 303 303 306 307 309 310 311 310 311 314 319 322 325 327 328 329 329 329 329 329 329 328
311 311 310 309 310 309 306 305 306 306 308 306 305 306 305 305 304 305 305 305 305 303 303 303 303 305 307 310 310 312 315 318 321 323 325 326 327 328 328 327 327 327 327 326
311 312 311 309 310 311 306 306 307 306 305 305 307 308 306 306 302 305 307 307 304 304 304 304 304 306 307 308 309 310 311 313 317 320 322 324 325 325 326 325 325 324 323 323
309 308 309 309 308 310 309 307 304 305 292 304 304 304 304 303 308 307 307 306 305 304 304 303 304 305 307 307 308 308 309 309 309 310 310 311 312 314 315 315 316 315 315 314
308 309 309 309 308 308 308 306 309 305 302 304 303 305 303 308 310 308 308 307 306 304 303 302 303 305 307 307 308 308 308 308 308 308 308 308 308 309 309 310 310 310 310 310
306 310 310 309 310 309 309 309 307 306 305 305 303 304 300 309 308 307 306 307 307 305 304 303 304 306 307 307 308 307 308 308 308 308 308 308 308 308 308 308 308 308 308 308
307 309 311 310 307 307 308 308 306 307 307 304 305 305 305 305 306 307 307 306 305 304 302 301 303 305 305 306 306 306 306 307 306 306 307 308 308 308 308 308 307 307 307 307
307 308 306 311 309 307 309 307 306 305 306 308 307 306 304 304 306 307 307 307 304 303 303 302 302 302 303 304 304 304 304 304 304 305 306 306 306 307 306 306 306 306 306 306
309 308 308 309 310 308 310 308 307 308 308 308 307 307 307 305 306 308 306 305 304 304 303 302 301 301 302 302 302 303 303 303 304 304 304 304 305 304 305 305 306 306 306 306
309 309 312 313 311 309 309 308 307 308 308 309 308 307 310 307 303 307 306 305 305 304 302 301 300 300 300 300 300 300 300 299 300 301 301 301 301 301 302 302 303 303 304 304
311 312 312 312 313 313 315 311 309 309 311 311 312 310 307 308 306 305 306 305 304 303 301 300 299 299 299 299 299 299 299 299 299 299 298 298 298 298 298 299 299 300 300 300
314 311 309 310 312 313 313 312 311 311 311 310 313 310 308 309 308 307 303 301 301 301 301 299 298 298 299 298 298 298 298 298 298 298 298 297 297 297 297 297 297 297 297 297
314 313 313 311 314 320 311 304 310 312 311 311 311 309 307 307 305 303 300 300 299 300 299 298 298 298 298 298 298 298 299 299 299 298 297 297 296 295 295 295 294 294 294 295
312 312 311 314 314 309 307 304 309 311 310 309 311 305 303 301 302 302 299 299 298 298 298 299 298 297 297 297 297 298 299 299 298 298 297 296 295 294 294 293 292 292 292 292
310 310 312 305 312 309 306 302 304 302 305 303 306 302 300 299 303 301 300 297 296 296 297 298 297 296 296 296 296 296 297 297 296 296 295 295 294 293 292 292 291 291 290 291
312 310 311 309 307 302 300 298 298 302 303 295 299 299 298 300 299 296 295 295 296 295 296 296 296 294 294 294 293 293 293 293 293 293 294 294 293 291 291 290 290 289 289 290
312 312 313 306 307 309 297 299 301 298 297 296 297 297 297 296 296 295 294 294 294 294 295 295 295 294 294 293 291 291 291 291 291 291 292 292 291 290 290 288 288 288 288 288
304 303 303 305 305 297 295 299 296 296 296 297 296 295 294 294 294 293 292 292 292 293 294 295 294 292 292 291 290 289 290 289 290 291 291 291 290 289 289 287 287 286 286 286
293 289 295 297 291 294 297 298 297 296 296 293 293 293 294 294 293 291 289 289 290 292 293 293 291 290 289 289 288 287 288 288 288 289 289 289 287 287 287 286 286 285 285 285
292 292 288 288 289 291 291 293 295 292 292 292 292 292 293 292 290 289 288 288 290 291 290 288 286 285 285 284 284 285 284 286 285 284 283 283 283 283 283 285 285 285 285 284
291 293 295 295 293 297 297 294 291 291 292 291 292 291 289 290 289 289 286 288 287 285 282 282 281 280 280 280 280 280 281 283 282 282 281 282 283 284 283 284 284 285 285 285

GFSCGP_925_thetae_075.txt.gz
Theta_e
306 308 308 307 304 303 303 304 306 307 309 310 309 307 307 306 306 306 306 304 303 303 304 306 307 307 312 321 326 329 330 331 332 332 331 331 330 332 332 331 333 332 329 328
306 307 306 304 304 304 305 307 309 309 309 309 308 308 307 305 306 306 305 304 303 302 301 302 303 305 306 309 318 324 327 328 330 331 331 330 330 330 331 331 333 332 331 330
306 306 304 306 306 307 307 306 307 309 307 305 303 304 303 303 303 302 302 301 301 300 301 302 303 303 304 305 308 314 321 325 327 329 330 331 330 330 329 329 329 333 331 331
306 305 305 304 306 306 309 306 306 308 307 306 304 305 304 304 303 304 304 304 303 302 302 302 303 306 306 305 306 307 312 319 324 327 329 329 330 329 329 329 329 329 330 330
307 305 307 306 306 304 307 306 307 306 307 308 308 306 305 302 306 308 304 303 303 302 302 303 303 306 307 309 306 305 306 312 318 323 327 329 329 330 330 330 329 329 329 329
309 307 307 307 306 307 305 305 304 305 304 306 306 304 304 303 305 306 304 304 305 303 303 303 305 307 308 310 312 311 309 311 316 320 323 326 327 328 329 329 328 328 328 328
310 310 309 308 308 307 305 305 307 308 308 306 303 305 305 304 304 304 305 306 304 303 304 303 303 304 306 308 310 314 317 319 321 323 324 326 326 326 327 327 327 326 326 326
310 312 310 309 308 309 305 305 307 306 306 305 306 307 306 304 303 303 306 304 304 304 303 302 303 304 305 307 307 308 309 310 314 318 320 322 323 323 323 323 323 322 321 320
308 307 308 308 308 309 308 306 303 305 292 304 305 304 303 306 307 306 306 305 304 303 302 301 302 303 304 304 305 306 307 307 307 307 308 308 309 309 309 310 310 311 311 311
308 309 308 309 308 307 306 304 308 304 303 304 301 303 304 309 309 307 306 305 304 303 303 302 302 303 304 305 306 307 307 306 306 307 307 307 307 307 307 307 307 307 307 307
305 309 310 309 309 309 308 307 305 305 305 306 303 303 299 306 307 307 305 305 304 303 302 302 302 303 304 305 305 305 305 306 306 306 306 306 306 306 306 306 306 306 306 306
306 309 311 311 307 306 307 307 306 307 306 302 304 304 304 305 304 304 304 304 302 301 301 301 302 303 303 303 304 304 304 304 304 304 305 305 305 305 305 305 305 305 305 306
307 309 310 312 309 307 308 306 304 303 305 306 307 305 303 304 305 305 304 303 302 302 301 300 300 300 301 301 301 301 300 300 300 301 302 302 302 302 302 303 303 304 304 304
308 307 308 309 308 308 309 307 305 306 308 306 306 307 306 305 306 306 306 303 302 302 301 300 299 299 300 300 299 299 299 299 299 300 300 300 300 300 300 300 301 301 302 302
308 309 307 312 308 307 307 307 306 307 307 308 306 307 308 307 305 305 305 303 304 302 300 299 298 298 299 299 299 299 299 299 299 299 299 298 298 298 298 299 299 299 299 299
309 307 310 311 312 312 311 307 307 308 306 309 304 306 306 306 302 304 305 304 303 301 299 298 297 298 297 298 298 297 298 298 298 298 297 297 297 297 296 296 296 297 297 297
311 309 305 305 311 311 310 310 307 308 307 308 310 308 307 306 305 304 304 303 301 300 298 298 297 297 297 297 297 298 298 298 297 297 297 296 296 296 295 295 295 295 294 294
311 310 309 312 310 316 310 305 308 310 309 308 309 307 307 306 304 303 301 300 299 298 298 297 297 297 296 296 296 296 296 295 295 295 294 294 294 294 294 294 294 294 293 292
311 313 312 315 317 311 309 305 309 311 311 309 309 306 304 301 300 300 298 297 297 297 298 298 297 296 295 295 294 294 294 293 293 293 292 292 293 293 293 292 292 292 291 291
311 311 315 309 316 317 309 303 305 305 308 304 308 305 302 301 307 301 297 294 295 296 297 297 296 295 295 294 294 293 293 292 291 291 291 292 292 292 292 292 291 291 290 290
312 311 314 312 310 305 300 300 301 308 307 296 302 301 300 301 300 297 293 294 295 295 295 295 295 295 294 293 292 291 291 290 290 290 290 291 291 291 290 290 290 290 289 289
313 314 310 308 310 314 297 298 305 301 297 297 297 297 297 294 293 292 292 292 293 293 293 294 294 294 293 291 290 289 289 288 288 289 289 289 290 289 289 289 288 288 287 287
308 308 309 310 310 297 295 298 296 297 297 297 296 295 295 293 292 291 291 291 292 292 292 292 293 292 291 289 287 286 286 285 285 285 287 287 287 288 287 285 286 287 286 285
294 291 301 303 296 294 298 297 296 295 296 294 292 292 292 291 290 290 290 289 290 291 292 291 289 287 286 285 284 283 283 282 281 282 283 285 285 284 284 283 282 284 285 284
294 293 289 290 290 291 292 292 295 293 291 291 291 291 291 290 289 289 288 287 289 290 287 284 281 280 280 280 280 280 280 279 279 279 280 281 280 281 283 283 283 284 285 285
291 294 297 298 295 298 298 295 291 291 291 290 291 290 289 289 288 288 286 288 285 281 279 278 277 276 277 277 277 278 277 277 277 277 277 277 277 278 280 281 282 282 283 284

GFSCGP_925_thetae_078.txt.gz
Theta_e
311 314 314 313 313 310 312 310 311 309 310 312 313 313 313 313 312 314 315 314 313 312 310 307 307 308 317 326 329 331 332 333 334 333 330 329 329 329 330 329 330 330 331 329
312 313 313 308 307 308 310 310 312 312 310 312 312 314 314 313 312 312 312 312 311 310 309 307 307 305 306 313 323 328 330 331 333 333 332 331 329 329 329 329 330 329 329 330
312 310 308 308 309 310 310 311 311 313 310 309 309 311 310 306 307 307 309 308 308 309 310 310 308 307 306 306 313 321 326 329 330 331 332 329 330 329 329 329 328 328 328 329
310 306 309 310 310 311 311 309 311 312 313 312 309 311 312 309 309 311 311 311 310 310 310 309 310 310 309 308 304 311 319 324 327 329 330 329 328 329 329 329 328 328 327 327
310 307 309 310 311 309 310 309 311 311 314 313 312 311 312 307 311 312 310 310 311 310 310 310 309 309 309 311 307 305 312 318 323 326 328 329 327 328 330 330 330 329 328 328
310 307 309 309 307 309 308 311 311 311 313 312 312 312 311 310 309 310 309 311 310 310 310 309 308 309 311 314 315 311 312 316 320 323 325 328 327 326 327 328 328 328 327 325
311 311 310 309 310 309 310 312 313 313 315 312 307 310 311 307 306 308 309 311 311 310 311 310 310 309 309 310 313 318 318 320 320 322 322 322 324 324 324 325 324 324 324 323
312 313 311 310 311 312 313 311 314 315 312 311 307 312 312 307 306 305 310 310 310 310 309 309 308 307 307 307 307 308 308 308 312 316 318 320 320 321 321 321 320 319 319 318
311 310 309 308 309 311 310 310 308 309 303 314 311 310 309 309 309 310 311 311 311 310 309 308 306 306 306 306 305 306 306 306 306 306 306 307 307 307 307 307 308 308 308 308
310 312 309 309 309 308 310 308 311 310 319 315 308 308 312 312 312 311 311 311 309 308 308 307 307 306 305 305 304 304 304 304 304 305 306 306 306 306 306 306 306 306 306 306
309 314 311 310 311 312 308 309 308 310 311 318 313 310 308 312 313 313 312 311 310 309 309 308 306 305 304 304 304 303 303 304 304 305 305 305 304 304 304 304 304 304 304 304
309 312 315 312 308 307 307 310 310 312 311 307 310 312 306 310 312 312 311 309 309 309 307 306 306 305 304 303 302 301 300 301 301 301 301 301 301 300 300 300 300 300 301 301
310 314 316 313 311 308 310 309 308 308 311 312 318 312 306 308 310 310 310 308 308 307 307 306 305 304 302 301 300 299 299 299 299 299 299 298 298 298 298 298 298 298 299 299
310 310 314 313 312 313 312 309 307 309 313 311 311 310 310 309 310 309 309 308 308 307 306 305 304 302 301 300 299 299 298 298 298 298 298 298 298 297 297 298 298 298 298 298
310 315 310 310 309 311 312 311 309 309 311 311 311 309 312 311 311 310 309 308 307 306 304 303 302 301 300 299 299 298 297 298 298 298 298 297 297 297 297 297 297 297 297 297
309 314 312 314 311 310 311 311 310 310 311 309 309 309 310 311 310 309 308 308 308 305 303 301 300 299 299 298 298 297 297 297 297 296 295 295 295 295 295 295 295 295 295 295
312 313 314 315 313 314 315 313 311 311 311 310 310 310 308 310 308 310 309 309 308 304 302 301 300 299 298 297 296 296 295 294 294 293 293 292 292 292 292 292 292 292 292 292
313 313 315 315 313 316 313 310 310 311 310 309 310 311 309 309 309 309 309 308 305 302 301 300 299 298 296 295 294 293 293 292 292 292 291 291 291 291 291 291 290 291 291 291
312 313 315 318 318 315 314 307 310 310 311 310 310 310 308 306 306 305 304 305 303 301 300 299 297 296 295 294 293 292 292 291 291 290 290 290 290 290 290 290 290 290 290 290
313 312 316 317 320 320 315 307 308 310 314 311 310 309 306 306 310 310 300 299 300 299 298 297 295 294 293 292 292 292 291 290 290 290 290 290 290 289 289 288 288 288 288 288
316 316 317 318 321 318 307 303 305 317 317 307 309 308 305 309 307 302 298 296 296 297 296 295 294 293 292 291 292 291 290 289 288 288 288 288 288 288 288 287 287 286 286 286
316 318 318 315 319 320 300 302 312 308 299 302 303 304 304 299 299 298 297 295 294 294 294 294 294 292 291 290 290 289 287 286 285 285 286 286 286 286 286 286 286 285 284 284
314 313 313 314 316 301 299 300 299 300 302 300 302 301 299 297 297 296 295 294 293 293 292 292 292 290 288 286 285 284 284 283 283 284 284 284 284 284 283 283 284 283 282 282
299 296 310 308 303 300 299 298 298 299 300 298 299 298 297 295 294 294 293 292 291 290 290 289 288 287 285 283 283 281 281 280 281 281 282 282 282 282 282 282 283 284 284 284
300 298 300 300 294 296 298 297 298 296 296 295 296 296 295 294 293 292 291 290 289 287 285 284 282 282 281 280 281 280 279 278 278 277 278 278 279 279 279 280 281 282 282 283
295 299 304 308 299 302 301 298 296 296 295 295 294 292 291 292 291 289 289 288 286 282 280 280 279 278 277 277 278 278 277 276 275 275 275 276 275 276 276 277 278 279 280 281

GFSCGP_925_thetae_081.txt.gz
Theta_e
314 315 315 314 315 316 316 315 314 313 312 314 315 315 314 314 313 315 315 316 316 316 315 312 312 314 325 330 332 332 334 335 335 332 331 331 330 330 330 330 329 329 329 328
314 315 314 314 311 312 314 314 313 313 312 313 315 314 314 314 314 315 315 316 315 314 313 311 310 310 311 319 328 330 332 333 334 335 332 331 330 330 330 330 329 329 329 329
313 314 312 312 311 312 313 313 314 313 313 313 313 313 314 312 310 310 310 312 311 312 313 313 312 310 310 310 315 325 329 331 333 334 333 330 331 330 330 329 329 329 329 329
313 309 311 312 312 312 312 312 313 315 314 312 313 312 314 313 311 311 313 313 313 313 313 313 313 313 313 311 309 314 323 328 330 332 333 330 329 329 329 328 328 328 328 327
311 309 311 313 313 312 313 312 314 315 315 314 313 312 314 311 311 314 314 314 314 314 313 313 313 313 315 314 309 309 317 322 327 329 330 329 328 328 328 328 329 328 327 327
311 308 311 312 310 311 311 313 314 315 315 312 314 312 313 312 312 313 313 314 313 313 312 312 312 314 317 318 312 310 315 319 322 325 328 328 326 326 326 327 327 326 327 326
311 309 311 310 311 311 313 313 313 312 315 313 310 312 312 310 312 312 314 314 313 313 313 313 313 313 314 318 320 319 318 320 321 323 324 324 324 324 324 324 323 323 323 323
312 311 311 311 311 312 313 312 314 315 315 313 309 313 313 311 309 309 313 314 313 312 312 312 311 310 310 310 311 313 316 319 319 320 319 320 320 321 320 319 318 318 317 316
311 313 311 310 311 312 312 312 312 312 309 316 312 312 312 310 310 311 313 313 313 312 311 310 310 310 309 309 309 309 308 308 309 309 309 309 309 309 309 309 309 309 308 307
311 313 311 310 310 310 311 310 310 313 321 320 312 311 313 312 311 312 314 314 313 311 310 310 309 309 308 307 307 307 307 306 306 306 306 306 305 305 305 305 305 305 304 304
311 314 312 311 312 312 309 310 310 311 314 323 316 311 310 314 312 313 314 313 311 311 311 310 309 308 307 307 306 306 305 305 304 304 303 302 302 302 301 301 300 300 300 300
311 313 314 312 310 309 310 311 311 313 313 310 316 315 307 311 313 314 314 313 312 311 311 309 308 308 307 305 304 303 302 301 301 301 300 299 299 299 298 298 298 298 298 299
312 316 317 313 312 309 310 310 311 311 315 315 319 312 309 312 314 314 313 312 311 311 310 309 308 307 305 303 302 301 300 299 299 299 299 298 297 297 297 297 297 297 297 297
311 314 317 314 312 313 312 312 310 311 314 313 313 312 311 312 314 314 312 311 311 310 309 309 307 305 303 302 301 300 299 298 298 298 297 297 296 296 296 296 295 295 295 295
312 317 312 312 311 313 313 313 312 311 311 312 312 311 312 312 313 313 312 312 311 310 309 307 306 303 302 301 300 299 298 297 297 297 296 294 294 293 293 293 293 293 293 293
311 319 314 316 311 311 313 313 313 311 311 311 311 311 311 313 313 313 312 311 311 309 307 305 304 302 301 300 299 298 298 296 295 293 293 293 292 292 292 292 292 292 292 291
312 314 317 316 314 314 316 313 313 312 311 312 311 312 310 313 313 313 312 311 311 309 307 304 302 301 300 299 298 297 295 293 293 292 292 291 291 291 291 291 291 291 291 290
312 315 314 320 317 316 314 311 312 312 312 311 312 312 312 312 312 312 312 311 311 308 305 303 301 300 298 297 295 294 293 292 292 291 291 291 290 290 290 290 290 290 289 289
312 313 317 320 318 315 313 310 311 312 311 311 311 311 311 311 312 311 311 310 309 306 303 301 300 298 296 294 293 292 291 291 291 290 290 289 289 289 289 289 289 288 288 287
313 314 315 316 318 317 311 311 311 310 312 311 310 311 311 309 311 312 308 308 305 302 301 299 297 296 294 292 292 291 290 290 289 289 289 288 288 288 287 287 287 287 286 286
316 316 316 316 320 321 310 308 310 314 316 310 310 310 309 309 310 308 304 303 302 300 297 295 294 294 292 292 291 290 289 288 287 288 288 288 287 286 286 285 286 285 285 285
316 317 317 317 318 318 305 308 313 311 303 306 308 309 308 304 302 301 301 299 298 296 295 294 292 291 290 290 290 288 288 286 286 287 286 286 286 286 285 285 285 285 285 285
317 315 318 317 318 304 306 303 303 303 305 305 305 305 302 300 299 298 297 297 296 295 294 294 292 289 288 287 287 286 284 284 284 284 284 285 285 285 285 283 283 283 284 285
305 300 314 313 307 303 303 300 300 301 302 302 303 301 300 299 298 296 295 294 293 291 290 291 290 287 286 284 284 283 282 282 281 282 282 282 282 282 282 281 281 282 283 284
304 302 308 308 298 299 299 299 301 299 299 300 299 299 298 297 296 295 293 291 291 288 288 289 287 284 283 282 281 280 280 279 279 279 279 279 279 279 278 278 279 279 280 281
299 304 309 313 304 304 304 300 298 299 299 298 296 295 295 295 294 292 291 290 288 285 284 283 282 281 280 279 278 277 277 277 277 276 276 276 275 275 275 276 276 277 278 279

GFSCGP_925_thetae_084.txt.gz
Theta_e
311 312 314 313 313 315 314 314 314 313 312 314 313 314 312 311 311 312 312 309 310 310 312 314 320 327 329 331 332 334 335 336 335 332 331 331 330 330 330 329 329 329 329 329
312 313 313 314 313 313 313 314 314 312 312 313 313 312 312 312 311 311 312 312 311 311 309 310 311 312 317 328 331 332 333 335 335 334 331 330 330 329 329 329 329 329 329 329
312 314 313 312 311 312 313 314 313 314 312 313 312 310 312 311 312 310 310 310 309 310 310 310 312 310 310 312 321 330 331 333 334 336 334 331 330 329 329 329 329 328 328 329
313 312 312 311 311 312 312 312 313 313 311 310 310 306 311 308 308 308 309 310 309 310 311 311 312 313 313 311 310 314 327 330 332 334 334 332 329 329 328 328 327 327 326 327
312 311 312 313 312 311 313 312 314 314 314 312 312 309 311 308 308 309 311 311 311 311 310 311 313 314 315 314 310 310 317 325 329 332 333 332 328 328 327 328 327 326 326 326
310 308 311 312 310 311 312 313 313 314 314 310 312 308 309 308 308 310 311 311 311 310 309 311 314 317 318 313 308 309 316 322 326 329 330 329 326 326 326 326 327 326 327 327
309 310 310 310 311 311 312 310 312 312 312 313 307 310 309 309 311 309 310 311 310 310 309 310 311 314 319 319 317 317 319 321 323 325 326 327 324 324 323 323 323 322 322 322
311 311 309 310 311 311 311 309 313 313 315 311 307 308 309 308 307 308 311 310 310 309 309 308 310 310 311 315 319 317 317 318 320 321 322 321 321 320 320 319 318 316 314 315
310 313 310 310 311 310 311 311 312 309 303 312 308 309 308 307 307 310 311 310 310 309 308 307 309 309 309 309 309 309 310 311 311 311 311 311 312 310 309 309 308 307 306 305
310 313 311 310 310 309 310 308 309 310 307 314 309 310 309 309 307 309 311 310 309 308 307 307 308 308 307 307 307 307 307 307 307 306 306 306 306 305 305 304 303 302 301 301
311 314 312 310 311 310 308 308 309 310 314 316 311 307 306 310 308 310 311 310 308 307 307 306 307 307 307 306 306 305 305 305 304 303 303 302 301 300 299 299 299 298 298 298
312 312 312 312 310 309 309 309 309 311 310 308 314 311 308 307 308 310 311 310 308 308 307 306 307 307 305 304 303 302 302 301 300 300 299 298 298 298 298 297 297 297 297 296
311 314 314 313 311 309 310 309 309 309 310 309 309 308 307 309 309 311 311 309 309 308 307 306 306 305 303 302 301 300 300 300 299 298 298 297 297 297 296 295 295 294 294 294
311 314 314 313 311 311 311 309 308 309 311 310 310 310 309 311 311 311 310 309 309 308 308 306 304 303 302 301 300 299 299 298 298 297 296 295 294 294 293 293 293 292 292 292
310 311 311 310 311 311 310 309 309 309 309 309 309 308 309 309 311 311 309 309 309 308 308 306 303 301 301 300 299 298 298 298 296 295 294 293 293 292 292 292 292 292 291 291
309 310 310 312 311 311 312 310 310 309 309 308 308 308 308 308 310 310 310 310 310 309 307 305 302 301 300 299 299 297 297 295 294 293 292 292 291 292 292 291 291 291 291 290
310 310 309 307 311 310 308 311 311 310 309 309 309 309 308 309 311 311 310 310 310 308 306 304 302 300 299 299 298 296 294 293 292 292 291 291 291 291 291 290 290 290 289 288
312 312 313 311 309 311 309 308 310 311 310 309 309 309 307 309 310 310 310 309 309 308 305 302 300 299 299 298 296 294 293 292 291 291 291 291 291 290 290 289 288 288 287 287
311 312 313 314 314 311 309 308 308 309 310 308 309 309 307 308 308 309 307 308 308 307 303 301 300 298 297 295 294 292 291 291 291 290 290 289 289 289 288 287 287 287 287 287
312 311 313 315 309 309 310 309 307 308 310 307 308 307 307 308 310 310 306 307 306 303 301 299 297 296 294 293 292 291 291 290 290 289 289 288 288 287 287 287 287 287 286 286
311 309 312 311 305 310 307 308 306 309 309 303 306 306 307 309 310 307 304 304 303 301 298 296 295 293 292 292 291 290 290 289 288 288 288 287 286 286 286 286 286 286 285 285
312 311 309 306 307 312 305 307 309 308 304 307 308 305 307 304 303 303 303 300 297 295 295 294 292 291 290 291 291 289 289 287 287 287 286 286 286 286 285 285 285 284 283 282
314 311 311 311 311 304 305 304 301 301 303 304 306 305 300 300 300 299 298 296 295 294 292 291 290 288 288 289 290 288 285 286 286 285 286 286 285 285 284 283 282 280 280 280
304 299 308 311 304 302 301 300 299 300 302 302 302 300 299 298 298 297 296 294 293 292 291 289 288 286 284 285 286 286 284 284 284 285 284 283 283 283 281 279 279 278 278 279
303 302 305 304 298 296 297 296 300 299 299 300 299 298 296 296 296 295 294 292 291 290 289 289 288 285 283 283 282 281 282 282 282 282 281 280 278 278 278 278 277 277 277 278
298 304 309 312 304 304 303 298 299 298 298 297 295 295 294 294 294 292 291 290 289 287 287 287 286 284 280 280 280 279 279 280 280 279 277 277 277 276 276 275 276 276 275 276

GFSCGP_925_thetae_087.txt.gz
Theta_e
314 316 315 310 310 312 311 312 313 311 310 312 309 309 309 308 309 308 305 304 307 310 316 322 327 330 330 331 332 333 334 334 334 331 331 331 330 330 330 329 329 329 328 328
313 314 312 311 310 311 312 312 311 311 311 311 310 311 310 308 308 308 308 305 307 307 307 311 319 326 329 331 332 333 333 334 334 331 331 330 329 329 329 328 328 328 328 329
314 313 311 312 312 311 310 311 309 310 311 311 310 308 311 310 308 307 309 307 307 306 306 306 309 310 315 324 330 332 334 335 335 334 331 330 329 329 329 329 328 328 328 328
312 312 312 312 311 310 310 310 311 311 308 309 306 307 306 308 308 307 306 306 306 308 307 308 309 310 309 309 312 322 330 334 335 334 333 331 329 328 327 326 326 326 326 326
313 311 312 311 311 309 311 311 311 310 311 308 310 305 304 306 308 306 305 306 306 306 308 309 311 313 313 312 310 311 321 329 333 334 333 332 329 328 326 326 326 326 326 326
309 308 310 311 310 309 309 311 311 310 309 308 308 304 304 306 308 306 307 308 308 308 308 310 314 317 316 311 310 309 315 324 329 333 331 331 329 327 327 327 326 326 327 327
308 310 309 309 311 310 311 308 309 309 310 308 306 306 305 307 306 307 310 308 307 307 308 309 312 316 316 314 312 315 320 325 327 329 330 328 326 324 324 325 323 322 321 320
310 310 309 309 310 310 309 307 308 310 312 308 305 310 309 307 305 308 309 308 307 307 307 307 308 311 317 317 319 320 321 322 324 326 326 325 322 321 321 320 320 319 317 314
309 311 309 309 309 309 310 310 308 307 298 308 305 306 307 306 308 309 309 308 307 306 306 306 307 308 311 316 316 318 319 319 321 322 323 322 319 318 316 314 311 307 305 304
309 311 310 309 309 308 308 307 309 306 307 309 307 307 306 306 305 310 309 308 307 306 305 304 305 306 307 308 310 313 313 313 314 314 314 313 309 307 306 305 302 300 299 299
310 312 311 309 310 308 307 306 307 309 307 309 307 306 303 307 305 309 309 308 307 306 305 304 305 306 306 306 307 306 306 306 306 306 305 304 302 300 299 298 298 298 297 297
311 311 312 310 309 308 308 307 307 308 308 308 308 307 307 305 304 307 309 308 306 305 305 303 304 305 304 304 304 304 303 303 302 301 300 298 298 297 297 296 296 295 295 294
311 311 312 312 310 309 309 308 306 308 305 308 308 306 306 307 305 308 308 307 307 306 304 303 303 302 302 302 301 301 300 299 298 298 298 297 296 295 294 294 293 293 293 293
311 312 311 311 308 309 310 308 307 307 307 306 306 305 307 307 308 308 308 307 306 306 306 304 302 301 300 300 300 299 299 298 297 297 296 294 294 293 293 293 292 292 292 292
309 310 311 309 309 309 309 309 307 308 308 308 307 306 306 308 308 309 308 307 307 307 306 305 302 300 298 298 298 298 298 297 295 294 293 293 292 292 292 292 292 291 291 290
308 309 308 310 310 311 309 309 309 308 307 306 306 306 304 305 307 307 309 309 308 307 306 304 301 299 298 297 297 297 297 295 294 293 292 292 292 292 291 291 290 290 289 289
309 308 306 307 309 308 309 309 309 308 306 308 307 308 305 306 309 309 309 309 309 308 307 304 301 299 298 297 297 297 295 293 292 292 291 291 291 291 290 290 289 288 288 288
310 309 307 307 305 309 307 307 308 309 308 308 307 307 306 307 309 309 309 309 309 308 307 304 301 299 298 298 297 295 293 292 291 291 291 290 290 290 289 288 288 287 287 287
309 310 311 310 306 309 309 308 308 308 309 307 308 307 305 306 307 307 308 309 309 308 307 304 300 299 297 296 296 293 291 291 291 290 290 290 289 288 287 288 287 287 287 287
311 309 313 309 317 314 312 307 305 307 310 307 308 307 304 306 309 308 305 307 307 307 305 301 298 297 296 296 294 292 291 290 290 290 289 288 288 287 287 287 286 286 285 285
309 308 312 308 308 306 305 304 305 309 310 303 306 306 304 308 309 307 304 304 305 304 300 297 296 295 294 294 292 291 290 290 289 288 288 287 286 287 286 285 285 285 285 285
311 311 311 307 307 311 303 304 308 307 305 306 307 303 304 305 305 303 303 301 299 297 296 296 295 292 292 292 291 290 289 288 287 287 285 285 285 285 284 284 284 284 284 284
310 308 308 311 311 304 303 304 300 301 303 304 306 305 303 302 301 299 297 297 296 295 295 293 291 290 290 291 291 289 287 287 286 284 284 284 284 283 283 283 284 284 283 281
302 297 306 308 302 303 301 300 299 300 301 302 302 302 299 301 297 296 295 294 293 291 290 289 288 287 287 289 289 289 286 284 284 283 283 283 283 283 282 282 282 281 280 278
303 300 303 303 298 295 298 296 299 299 299 300 299 298 298 296 296 295 293 292 291 289 288 288 287 285 285 287 286 284 283 282 283 283 282 282 282 282 282 281 279 278 277 276
299 305 310 307 302 303 303 297 297 298 299 298 297 296 294 294 294 293 292 291 290 288 287 286 285 284 282 282 282 281 281 281 281 281 280 280 280 281 279 278 277 276 275 274

GFSCGP_925_thetae_090.txt.gz
Theta_e
317 319 320 318 315 310 311 312 312 311 310 310 309 310 307 307 306 304 303 304 305 310 318 324 328 329 331 332 333 335 335 335 334 332 331 331 331 330 330 329 329 329 328 328
318 322 317 316 312 312 310 312 312 310 310 310 308 309 308 306 306 305 305 303 304 309 308 316 323 327 328 330 332 334 334 334 334 333 331 329 329 329 329 329 328 328 328 328
320 320 316 315 315 314 311 310 309 310 310 310 308 309 310 308 306 307 305 304 303 307 306 307 313 325 327 329 330 332 333 334 334 333 331 329 329 328 328 328 328 328 328 327
317 316 317 315 316 314 312 309 309 310 308 310 307 309 305 308 307 306 306 305 304 303 304 304 307 309 319 325 329 330 332 333 333 333 331 329 329 327 327 326 327 327 327 327
316 315 318 316 315 313 311 309 310 309 308 308 308 305 304 305 307 306 306 304 304 304 304 305 307 309 310 310 313 320 329 332 333 333 333 331 330 327 326 325 326 326 325 325
312 312 313 315 313 311 309 310 308 310 308 308 307 305 304 305 306 307 305 304 304 305 307 308 312 313 313 312 311 310 315 329 333 334 334 331 330 328 326 325 325 326 327 327
313 311 309 310 311 309 310 310 310 311 311 311 306 304 306 306 305 305 306 305 306 307 307 309 312 314 313 311 310 310 312 324 330 333 331 331 329 328 326 326 325 325 323 321
316 314 309 308 312 312 310 309 309 311 311 306 305 308 307 305 305 304 305 306 306 307 307 309 312 314 314 313 312 312 321 325 329 332 330 329 327 325 324 324 322 319 317 317
312 312 308 308 309 309 309 309 306 307 298 307 305 305 305 306 309 308 307 308 307 306 307 307 308 312 315 316 318 319 322 324 327 329 326 323 323 322 320 317 317 316 310 306
308 311 310 308 308 308 308 307 310 307 310 309 305 305 306 306 307 308 308 309 307 306 305 304 305 308 312 315 317 318 320 321 321 322 321 322 320 317 316 313 309 305 301 299
308 311 312 309 310 309 307 307 306 308 308 309 307 306 302 306 306 309 309 307 306 305 304 303 303 305 307 310 311 312 314 315 316 318 317 318 314 309 305 302 299 298 297 296
310 311 313 310 308 308 307 306 307 310 308 306 307 305 303 302 303 307 307 307 305 304 303 302 303 303 304 305 306 307 307 309 310 310 309 305 303 300 299 297 296 295 294 294
310 311 313 311 309 308 308 307 306 306 306 308 309 306 304 304 304 304 308 306 305 304 302 301 301 301 302 303 303 303 304 304 303 302 300 298 297 297 296 294 294 293 293 292
310 311 311 312 310 308 310 308 306 307 307 306 306 307 306 307 305 305 306 306 305 305 304 302 299 300 301 301 301 301 300 300 299 298 297 296 295 294 293 293 292 292 291 291
310 312 310 310 308 308 308 309 307 308 308 308 307 304 305 305 305 307 306 305 305 305 304 303 301 299 299 299 299 299 298 297 297 296 295 293 293 293 292 292 291 291 290 290
306 308 309 310 309 308 308 308 307 307 306 305 304 304 302 304 305 306 307 306 307 306 305 304 301 299 298 298 298 297 297 296 296 294 293 292 292 292 291 291 290 289 289 289
308 308 307 308 309 309 311 308 308 308 305 306 305 307 302 305 306 307 306 307 307 306 306 304 302 300 298 298 297 296 296 295 294 293 292 291 291 291 290 289 288 288 288 288
309 308 307 308 307 310 309 306 307 307 307 305 305 305 304 305 307 307 307 307 307 307 306 305 303 300 298 297 297 296 295 293 292 291 291 291 290 290 289 288 288 288 288 287
309 310 309 310 305 308 308 307 306 307 308 305 306 307 303 305 306 307 306 307 308 307 306 306 303 300 298 297 296 295 293 292 291 291 290 290 290 288 287 288 287 287 287 287
310 309 311 306 309 311 307 306 305 307 310 306 306 305 303 305 306 307 305 306 307 307 307 306 302 299 297 295 296 295 291 290 290 290 290 289 288 287 287 287 287 286 286 286
312 311 316 312 309 308 305 304 305 309 308 303 305 305 304 307 308 306 303 305 307 306 306 304 299 297 296 295 295 291 289 289 290 289 288 287 286 286 286 286 286 285 285 285
312 313 313 308 310 314 302 304 309 308 303 306 304 303 304 305 304 303 302 302 300 299 299 299 296 296 294 294 292 289 289 290 289 288 286 285 285 285 285 284 284 284 284 284
309 310 310 311 311 304 302 303 301 301 303 305 306 305 302 302 302 302 301 299 297 298 297 296 296 292 291 292 291 289 289 289 287 286 284 284 284 284 283 283 283 283 283 283
302 297 306 307 300 302 302 300 299 299 300 300 301 302 301 302 300 299 296 294 293 294 294 294 291 290 288 290 290 290 289 287 286 284 283 283 283 282 282 282 282 281 280 281
302 301 302 301 298 296 298 297 298 299 299 300 299 298 298 298 297 296 294 291 290 290 290 290 291 289 286 288 289 289 287 285 283 282 282 281 280 280 281 280 280 280 280 279
300 305 307 305 302 302 304 299 297 299 298 298 298 297 295 296 295 293 290 290 289 287 288 288 287 284 284 287 287 286 285 283 283 281 280 280 280 279 278 278 278 278 277 277

GFSCGP_925_thetae_093.txt.gz
Theta_e
318 321 323 320 319 313 311 312 312 311 310 310 310 311 308 306 306 310 310 312 317 322 325 327 330 330 331 332 334 333 333 333 333 332 332 330 331 331 331 331 329 328 327 326
320 324 321 318 317 315 315 312 312 310 310 310 309 311 308 305 306 306 309 306 309 311 311 319 325 328 329 330 331 333 334 334 334 333 333 331 329 329 330 330 330 329 328 328
322 322 319 319 317 317 318 313 312 313 310 309 308 310 309 308 305 306 303 303 303 305 310 309 316 323 327 327 329 331 333 334 334 334 333 331 329 327 329 329 329 328 327 327
320 319 318 319 319 318 320 314 310 310 312 315 308 312 306 307 307 305 304 303 302 301 305 306 311 317 323 325 327 330 332 333 334 334 333 331 329 328 327 326 326 326 327 327
318 320 319 319 318 316 318 309 311 311 310 308 307 306 306 304 309 307 305 303 302 300 302 304 306 314 321 324 326 329 331 332 333 333 333 332 329 328 326 325 326 326 326 326
313 314 317 318 315 315 310 312 311 310 309 310 310 307 307 303 306 309 307 306 303 302 301 303 306 308 310 313 319 325 329 331 332 332 333 332 329 328 326 325 325 326 326 326
314 315 312 314 316 315 312 315 317 318 315 313 304 305 313 304 303 305 308 306 302 303 304 305 309 312 312 311 311 312 316 327 331 332 332 332 331 329 327 325 325 326 325 324
317 317 314 312 317 316 314 315 314 317 316 313 304 306 307 303 303 303 303 302 302 304 305 307 310 312 313 312 311 310 309 314 329 331 330 331 330 329 327 325 325 325 322 317
314 314 312 310 312 314 315 316 312 308 299 307 306 305 304 304 304 307 305 304 305 305 306 308 310 313 313 313 311 309 309 312 323 328 329 330 330 328 326 325 323 320 316 316
309 310 310 308 310 312 312 312 310 308 311 306 303 303 309 306 305 306 306 305 305 306 306 306 307 311 313 314 314 314 316 320 323 327 329 328 327 325 322 319 317 315 313 307
308 310 311 309 310 315 313 311 308 309 309 310 306 306 301 305 305 305 307 306 306 306 305 304 305 309 312 313 315 316 318 320 322 324 325 322 321 317 318 316 313 308 302 298
308 310 310 312 308 308 309 311 309 313 308 305 308 307 303 301 302 305 306 306 304 305 304 302 303 304 306 309 311 313 313 316 318 318 316 315 317 317 315 307 301 298 297 294
308 309 311 314 312 308 310 307 306 306 307 310 309 307 302 303 303 302 306 305 305 304 303 301 301 301 303 304 306 309 310 311 311 312 313 313 312 310 303 299 297 295 294 293
310 310 311 316 314 312 309 307 305 307 308 308 307 308 305 305 304 303 305 305 305 304 304 302 300 299 301 303 304 304 305 307 308 308 308 306 302 300 297 295 294 293 292 291
309 309 310 310 309 311 309 309 306 306 308 308 307 306 305 304 304 304 305 304 304 305 304 302 300 299 300 300 301 301 302 301 302 302 301 298 297 296 294 293 292 291 291 290
306 307 310 307 309 308 311 309 309 308 307 306 305 305 304 304 304 305 305 305 306 305 305 302 301 300 298 298 299 298 298 299 299 298 296 295 294 293 292 291 291 290 289 289
306 306 306 310 308 309 311 309 308 309 307 308 305 307 303 304 305 305 305 306 306 306 304 303 301 300 299 299 298 297 298 297 296 296 294 293 292 291 291 290 290 289 288 288
309 308 307 310 309 315 311 306 307 308 308 307 304 304 303 304 304 305 305 306 305 305 304 303 303 301 300 299 298 298 297 296 295 293 292 291 291 291 290 289 288 288 287 287
308 309 311 312 309 309 307 306 305 306 308 305 305 307 303 304 305 305 304 304 305 305 305 305 304 302 299 298 298 297 295 294 293 292 291 291 291 290 289 288 287 287 287 286
310 309 311 306 313 312 307 306 304 306 309 305 305 305 303 304 305 307 304 304 305 305 306 305 304 302 299 298 297 296 293 293 291 291 291 290 290 289 287 287 287 286 286 286
310 312 314 311 304 307 305 304 304 309 308 302 304 305 302 305 307 305 303 304 305 305 305 305 303 300 298 296 297 294 292 291 291 291 290 289 288 287 286 286 286 286 285 285
314 315 313 310 302 310 304 304 307 305 304 304 303 304 303 303 304 304 303 303 302 301 303 304 301 299 297 296 295 292 291 291 291 290 289 287 286 285 285 285 285 284 284 285
311 311 311 311 308 305 301 304 300 300 303 303 305 303 302 302 302 303 301 302 299 300 301 301 299 296 294 294 295 292 291 291 290 289 287 285 284 284 284 284 283 283 283 283
302 298 308 307 300 303 302 300 299 299 301 300 300 301 300 301 300 299 297 297 296 295 296 298 295 292 291 292 293 292 290 290 289 287 285 283 283 282 282 282 282 283 282 282
300 301 298 300 297 298 299 297 299 299 298 299 299 298 299 299 299 298 296 291 292 292 294 295 292 291 289 291 290 290 290 289 287 285 283 282 282 281 281 281 281 281 282 280
300 303 306 304 301 302 304 300 296 298 298 298 299 299 296 297 297 296 290 291 290 290 291 291 290 289 287 288 288 288 288 288 287 282 281 281 280 280 280 281 282 281 279 277

GFSCGP_925_thetae_096.txt.gz
Theta_e
319 324 327 325 326 324 324 325 324 311 310 311 310 311 311 306 309 321 323 324 324 325 326 327 328 330 333 334 333 332 332 332 331 330 329 329 329 329 329 329 329 328 327 326
321 325 323 320 322 318 318 321 322 311 309 309 310 310 309 305 306 313 320 320 322 320 318 323 326 328 330 332 333 333 332 332 332 331 330 330 329 328 328 330 331 329 328 328
323 322 319 321 320 318 318 320 320 313 310 308 309 311 309 307 304 305 304 310 313 318 318 316 320 324 328 329 330 332 333 332 332 332 332 331 331 329 327 329 330 330 330 328
322 320 320 321 321 320 322 316 314 312 312 320 308 316 311 307 307 304 305 302 304 303 305 310 314 319 323 327 329 330 331 332 333 333 332 332 331 329 328 326 326 327 327 326
320 321 321 321 320 318 321 313 313 313 312 310 314 308 312 304 307 307 305 303 303 302 301 303 307 315 322 325 327 328 329 330 332 332 332 332 332 331 329 327 325 326 326 327
314 313 319 320 318 316 313 315 315 315 316 318 317 310 313 309 305 308 307 305 304 301 299 299 305 309 314 320 322 324 326 329 330 332 332 332 332 331 329 326 325 326 326 326
315 317 312 316 317 314 314 319 320 321 320 321 309 308 314 308 303 307 309 308 304 302 299 299 302 306 309 314 318 322 325 328 330 331 331 332 332 332 331 326 324 325 325 325
319 320 314 314 318 318 316 319 320 322 319 315 303 309 313 305 302 301 302 302 302 300 300 301 303 306 309 311 314 317 320 326 328 329 330 331 331 332 331 327 325 324 324 323
316 317 312 312 314 315 315 319 311 309 302 310 308 306 305 303 302 303 303 302 301 300 302 304 305 309 310 311 311 311 311 314 322 328 329 328 330 330 330 327 325 324 323 320
311 313 312 311 312 313 316 314 318 312 311 310 306 305 313 307 305 303 304 304 304 301 303 304 306 309 311 311 311 311 310 309 310 321 327 327 327 329 328 327 325 322 318 314
308 309 310 310 316 318 315 317 313 313 308 310 307 306 302 307 306 305 305 305 305 302 304 304 305 310 312 312 312 312 311 310 311 318 323 325 326 327 326 325 323 317 313 311
309 309 310 309 307 308 312 314 314 319 312 305 308 307 303 301 300 302 303 304 304 303 303 303 304 307 309 310 312 313 313 312 314 317 320 323 324 324 323 320 315 312 310 303
309 309 311 313 311 308 314 310 315 312 308 311 311 310 301 303 303 302 303 305 304 304 303 302 301 302 305 308 310 311 312 313 315 316 318 318 319 315 318 313 311 309 300 296
310 308 310 312 311 310 310 314 308 314 314 313 310 308 308 308 304 303 302 305 304 304 304 302 300 301 303 305 307 309 310 310 312 312 313 314 312 310 312 311 307 298 295 293
308 308 309 310 310 310 309 310 311 310 312 311 313 308 305 305 305 303 303 305 304 305 304 303 301 298 300 302 304 306 307 307 307 308 309 309 307 309 307 301 296 293 292 291
305 306 310 308 308 308 310 308 310 309 308 308 308 305 303 303 303 304 305 305 305 305 305 303 300 299 300 301 302 302 303 304 305 305 305 305 304 301 297 294 293 291 290 289
309 306 307 307 308 309 311 310 309 309 306 310 310 309 306 303 303 304 305 305 305 305 304 303 301 301 301 300 300 300 301 302 301 303 302 300 297 295 293 292 291 290 289 288
305 307 302 306 310 315 310 306 309 310 311 310 308 305 304 304 304 303 304 305 305 304 304 303 302 302 301 300 300 300 300 299 298 298 297 295 294 292 291 290 290 288 288 287
307 307 307 313 306 307 308 305 305 306 308 306 306 305 305 303 305 303 303 304 305 304 304 304 304 302 301 300 300 300 298 297 295 294 294 293 292 291 290 289 288 287 287 286
307 307 311 309 303 307 307 305 303 304 308 306 305 305 305 302 305 306 306 303 304 304 304 304 304 302 300 299 299 298 295 294 293 294 293 292 291 291 289 288 287 287 286 286
305 305 312 310 303 302 303 304 303 306 307 303 303 305 304 304 306 303 302 304 304 304 304 304 304 301 300 298 298 295 294 293 295 294 293 291 290 290 289 287 286 286 285 284
309 310 309 301 300 310 302 302 306 305 304 304 303 303 302 302 301 302 302 301 303 302 302 304 302 301 300 298 297 294 293 294 294 293 292 290 289 288 287 286 285 285 284 284
310 307 308 310 309 304 300 302 300 300 302 303 304 302 302 302 302 299 300 299 298 299 300 302 302 300 298 298 297 295 294 294 293 292 290 289 288 287 285 285 284 283 283 283
301 296 304 306 301 302 301 300 299 300 301 300 300 300 300 302 300 300 298 297 296 294 296 299 299 296 294 295 295 296 293 293 291 289 287 287 286 284 284 283 283 283 282 282
300 300 298 298 297 297 298 297 299 299 299 299 299 298 298 298 299 298 296 292 292 291 294 295 296 294 293 293 293 294 292 291 288 286 285 284 284 283 282 281 282 282 281 282
299 302 304 303 301 302 302 297 296 298 299 297 297 298 295 294 295 294 291 289 290 290 291 292 293 292 291 292 292 292 291 289 287 283 282 282 281 281 280 280 279 279 281 281

GFSCGP_925_thetae_099.txt.gz
Theta_e
319 325 327 327 324 325 324 326 324 315 312 318 313 311 312 308 315 320 321 324 326 327 328 328 330 331 332 332 332 330 327 325 327 329 329 328 328 329 329 327 326 327 327 326
321 325 324 322 325 324 324 327 328 320 312 313 318 320 311 306 306 312 320 322 323 323 322 325 327 329 330 332 333 332 331 330 329 329 330 329 329 329 327 327 327 329 328 327
325 323 321 323 325 327 323 327 325 323 312 309 308 312 314 307 304 304 309 317 319 322 323 322 323 326 328 329 331 333 333 332 331 331 330 329 329 329 328 328 329 330 329 328
322 320 322 324 325 325 324 317 315 316 319 326 310 315 317 312 308 304 306 304 311 316 317 319 319 322 325 328 330 331 333 333 332 331 330 330 330 329 329 328 326 326 328 329
320 321 322 324 324 321 323 316 315 315 316 318 312 314 316 309 309 308 306 304 305 307 311 313 315 319 324 326 328 330 330 331 332 332 331 331 330 330 330 329 327 325 327 327
315 313 319 320 318 319 315 316 316 315 318 321 319 317 318 313 310 309 308 307 306 305 303 305 309 313 317 321 325 327 328 329 330 331 331 331 330 331 331 329 327 325 325 326
317 318 313 316 316 314 317 321 322 321 320 323 309 315 321 315 306 308 309 307 307 305 303 301 300 302 306 313 319 323 325 326 328 329 330 330 331 331 331 332 329 324 325 325
321 322 316 315 316 317 318 320 322 325 320 317 306 318 317 312 316 314 304 303 304 303 301 302 302 302 304 306 311 318 322 324 326 327 328 330 330 331 331 332 330 324 324 324
320 318 313 315 314 315 316 321 311 313 299 308 308 308 307 304 303 302 301 302 303 302 301 302 302 302 304 305 308 313 318 322 324 325 327 328 328 330 330 330 329 325 324 324
313 316 313 313 314 313 315 313 319 316 322 316 311 307 315 308 306 304 303 304 304 302 301 301 302 303 305 306 308 312 316 319 323 325 326 327 326 328 330 329 328 325 324 322
306 311 312 313 317 318 317 318 316 315 310 314 310 311 302 310 308 305 305 304 304 304 302 302 304 306 307 308 309 310 311 312 313 319 325 325 326 326 328 328 327 325 323 320
308 308 314 312 308 313 313 317 314 317 315 306 308 308 304 300 303 302 302 302 303 303 302 302 304 306 308 309 310 310 310 310 309 309 314 322 325 326 326 326 325 323 321 315
308 308 308 313 311 308 315 313 315 311 309 314 312 319 301 302 303 302 302 302 303 304 303 303 303 304 306 308 310 311 311 311 310 311 314 319 321 322 323 323 322 318 317 311
307 307 308 313 311 309 311 314 314 316 318 317 314 317 312 307 304 303 302 301 303 304 304 303 302 304 305 308 309 309 309 309 309 311 314 316 317 318 319 319 319 314 312 304
307 307 309 309 308 308 310 312 313 316 317 318 318 315 311 309 307 304 304 303 304 305 304 303 303 302 302 303 305 306 308 309 311 311 312 313 314 314 313 313 310 311 302 299
304 305 308 308 307 309 310 309 312 312 314 315 314 312 307 304 301 302 305 305 304 304 304 304 303 301 300 302 304 306 307 308 309 309 309 310 309 310 308 306 302 300 295 293
306 306 303 301 307 310 308 308 310 312 310 311 312 313 304 304 304 303 304 304 305 304 304 304 303 302 302 302 305 304 305 307 305 306 306 306 305 304 302 300 296 293 292 291
310 306 302 300 305 314 310 306 308 310 310 310 310 310 307 307 307 303 302 303 303 304 304 303 303 303 302 303 303 305 305 304 304 303 303 303 302 301 299 295 293 291 290 289
305 308 302 310 303 307 310 307 305 307 309 307 307 308 306 304 304 305 302 302 304 302 303 304 304 303 302 303 303 303 301 302 301 300 300 299 299 298 295 291 290 289 288 287
305 306 308 293 306 307 306 305 301 303 310 306 306 307 305 301 305 307 306 302 302 302 303 303 304 303 302 301 301 300 298 298 296 298 299 299 298 297 292 290 289 288 287 287
305 304 309 306 301 302 302 302 302 306 308 299 303 304 303 304 306 302 301 301 303 302 303 304 303 302 302 301 300 297 296 295 298 298 297 296 294 293 291 289 288 287 286 286
306 306 309 305 306 312 300 302 306 305 302 303 303 302 302 301 302 300 300 299 298 299 302 302 302 302 301 301 299 296 295 296 297 296 295 293 291 290 290 289 287 286 285 284
307 305 304 310 308 304 299 303 300 300 301 303 303 302 302 301 300 299 298 297 296 294 297 300 301 301 300 299 298 296 296 296 295 294 292 291 290 289 288 287 286 284 284 283
299 295 302 304 299 303 300 299 299 300 301 300 299 299 298 300 298 297 296 294 294 292 292 295 299 298 297 297 297 297 296 295 294 291 289 288 288 287 286 285 285 284 283 282
300 300 297 297 297 296 296 296 298 298 298 298 296 296 296 297 297 295 294 291 290 290 292 294 294 295 295 295 295 295 295 294 292 290 287 286 286 286 285 284 284 283 283 284
298 300 305 306 302 302 300 297 297 298 296 295 296 295 293 293 294 293 291 289 288 288 290 291 291 292 293 292 293 293 293 293 291 286 285 283 283 282 282 281 280 280 281 282

GFSCGP_925_thetae_102.txt.gz
Theta_e
321 324 326 325 325 326 327 327 328 326 318 323 325 326 322 320 316 316 320 324 329 330 330 331 332 332 332 332 330 328 325 325 325 326 326 327 327 327 328 330 328 326 326 325
323 328 325 322 323 326 326 328 329 321 316 322 327 327 326 326 324 318 317 319 324 328 330 330 331 332 332 333 332 331 329 326 325 326 328 329 329 330 330 329 327 326 326 327
324 322 324 326 326 326 327 329 329 327 319 316 312 323 325 323 324 324 315 315 320 325 328 329 329 331 332 333 333 333 332 330 327 327 329 330 331 331 331 329 327 327 327 327
322 321 324 325 328 327 327 322 323 319 323 330 318 331 329 324 324 323 315 313 317 321 325 326 328 329 330 331 333 332 333 332 331 330 330 330 331 331 330 329 327 327 327 327
323 324 325 326 326 327 323 318 320 319 321 320 321 322 328 324 322 322 323 317 314 316 321 325 326 327 329 329 330 332 333 333 332 331 331 331 331 332 331 330 328 327 325 327
319 315 322 324 324 324 316 317 317 317 320 324 327 324 329 328 323 322 321 316 314 313 314 319 323 324 326 327 328 329 331 332 332 332 332 331 331 332 332 330 329 327 326 325
320 321 315 318 319 318 319 323 325 325 326 330 314 326 327 325 324 321 320 318 315 314 313 313 316 319 321 323 325 327 328 330 331 332 332 332 332 332 332 331 329 328 326 325
323 324 318 316 321 319 320 324 325 327 326 325 313 323 323 319 320 320 313 313 314 313 312 312 311 312 315 318 321 323 325 328 329 331 331 331 331 332 332 331 330 327 327 325
322 321 315 316 316 318 318 324 316 317 306 317 319 317 314 313 313 308 313 317 314 311 310 309 309 308 309 310 314 319 322 325 327 329 330 330 330 331 331 331 331 327 328 325
319 321 314 314 314 314 319 316 321 322 329 327 323 317 320 318 317 314 310 310 313 314 308 307 307 306 306 307 308 311 317 322 325 327 328 329 329 329 329 329 328 326 328 324
317 318 314 314 318 318 318 319 319 319 322 325 325 322 315 313 313 313 311 308 308 309 309 308 306 305 306 306 307 308 310 315 321 325 327 327 327 327 327 326 326 328 328 324
310 314 317 315 310 315 318 319 319 323 321 317 317 321 308 306 305 306 308 307 307 306 308 307 307 307 308 308 308 308 309 310 314 321 324 325 325 325 325 325 327 328 326 323
311 314 316 314 311 310 318 318 318 318 314 318 324 323 305 306 308 307 308 308 308 307 307 307 307 307 308 309 309 309 309 309 310 311 319 321 323 324 325 325 325 326 322 321
310 311 317 320 317 315 316 318 318 319 320 321 320 320 318 317 313 309 307 309 310 308 308 308 308 307 308 309 309 310 309 310 310 310 311 313 317 319 321 322 322 322 319 317
312 314 311 311 312 313 316 318 317 319 320 321 320 320 318 317 317 317 311 308 308 308 308 308 308 308 307 308 308 309 309 308 308 309 308 309 311 314 316 316 316 316 314 313
308 313 312 310 311 312 313 314 318 318 319 319 319 318 316 314 310 309 308 307 308 309 309 308 308 307 306 307 307 306 307 307 307 308 308 308 310 310 312 313 310 308 306 306
310 311 315 316 311 312 315 314 316 316 316 318 320 318 316 314 312 313 313 310 307 308 308 308 308 307 306 306 306 306 306 305 307 307 308 309 309 308 307 306 303 302 302 302
312 311 314 312 310 317 314 307 312 315 314 314 315 315 314 314 312 312 312 312 311 307 307 308 308 307 306 305 304 305 305 305 306 306 306 307 305 303 302 302 300 298 296 295
311 312 311 315 317 314 312 308 310 312 313 312 313 313 312 312 312 310 310 308 309 310 309 307 307 306 306 304 303 302 303 303 303 302 304 304 303 300 299 296 295 295 292 290
310 311 315 309 317 317 310 306 306 309 312 311 311 311 311 310 310 311 311 305 305 305 304 304 305 304 304 303 301 300 300 300 300 302 304 303 302 301 298 296 294 292 289 288
312 313 315 313 318 313 308 304 305 315 315 304 305 309 309 309 309 305 303 303 302 302 302 303 303 304 303 301 299 299 298 298 301 302 302 302 300 299 298 294 292 290 288 287
311 314 315 312 315 315 305 303 311 310 303 304 304 304 304 304 303 302 301 301 300 300 299 301 303 302 301 300 299 298 297 298 299 299 299 299 298 296 295 293 289 288 287 285
313 312 315 314 315 308 304 307 303 303 305 304 305 303 302 303 302 301 300 299 298 296 296 295 297 299 299 299 299 298 298 298 297 296 295 294 293 292 290 288 287 285 284 284
306 302 313 312 307 306 304 301 301 301 302 301 301 300 301 302 300 300 298 297 296 293 292 293 296 296 296 296 296 296 297 296 295 293 291 290 290 288 288 286 286 285 283 283
307 305 305 308 303 302 301 300 301 300 300 299 298 297 298 299 298 297 295 293 291 290 290 291 291 292 292 293 294 295 295 295 294 292 290 288 286 286 285 285 284 284 284 284
301 305 311 313 305 307 303 300 299 300 298 297 298 296 293 293 294 293 291 289 288 288 288 289 289 289 289 290 291 292 291 292 291 289 287 286 285 284 283 283 281 282 283 283

GFSCGP_925_thetae_105.txt.gz
Theta_e
320 322 327 328 326 327 328 327 327 326 322 326 326 326 327 326 326 324 320 320 321 327 328 330 332 333 333 328 324 325 326 327 329 329 329 328 328 328 327 328 329 330 328 326
323 326 322 324 326 328 328 330 329 326 321 324 326 328 326 326 327 327 324 323 320 321 326 328 331 333 333 332 329 325 325 325 326 327 327 327 327 327 327 328 330 330 328 326
324 322 321 323 325 328 329 331 330 329 322 321 324 328 327 326 326 326 327 326 322 319 323 327 329 332 333 334 333 330 328 327 326 326 326 327 329 330 330 330 331 330 329 327
322 320 323 323 324 326 329 327 328 324 328 333 324 335 330 328 328 327 328 327 326 321 319 324 327 330 333 333 334 334 333 330 328 326 327 329 331 331 331 331 331 330 327 327
324 321 323 327 325 324 327 325 327 326 325 324 325 326 329 326 327 328 325 326 327 323 320 321 325 328 330 333 333 334 334 333 331 329 328 330 331 331 332 332 331 330 326 327
322 320 321 322 323 325 319 320 320 318 323 329 330 327 329 327 327 327 325 324 326 323 319 320 322 326 329 331 333 334 334 334 334 332 331 331 332 333 333 333 331 331 329 326
322 324 320 321 322 321 322 326 329 329 330 332 321 329 326 325 326 325 326 324 323 324 322 319 321 324 327 329 332 333 334 334 334 334 333 332 332 333 333 333 333 331 329 328
325 323 322 322 323 320 324 326 325 326 326 324 319 327 325 322 322 320 322 321 318 321 318 318 318 321 325 327 329 331 331 332 333 334 334 333 333 333 333 333 333 332 329 328
323 324 318 321 320 320 320 326 322 320 312 323 322 321 319 319 318 317 316 317 321 317 315 316 316 315 320 324 326 328 329 330 331 332 333 334 334 334 334 333 334 332 330 328
319 322 315 316 317 317 322 319 323 325 330 328 322 323 323 321 321 319 318 317 316 316 318 315 312 312 313 314 318 322 325 327 328 330 331 332 333 333 333 333 333 333 331 327
318 320 315 317 319 320 321 322 323 323 325 327 326 322 320 318 310 312 313 311 310 310 310 312 312 310 309 309 310 312 317 321 324 326 329 330 331 332 332 332 332 331 330 328
317 318 319 318 311 317 320 321 322 324 324 322 323 323 310 311 311 310 310 310 310 309 309 310 310 309 309 309 309 309 310 312 317 322 326 328 330 330 330 329 329 329 326 326
315 318 316 315 315 314 320 320 321 319 318 323 325 321 315 315 310 310 310 309 313 311 311 311 311 310 310 310 310 310 310 310 311 316 323 326 328 328 327 327 327 327 324 325
314 317 319 321 320 319 320 321 320 321 322 322 322 320 315 313 313 311 311 315 313 313 311 311 311 311 310 310 310 311 310 310 311 312 317 323 323 324 324 324 325 325 324 323
314 318 316 316 317 319 320 321 320 321 321 322 321 321 320 319 318 318 317 317 314 312 311 311 311 311 310 310 310 311 311 311 311 311 312 316 319 319 321 322 322 322 320 319
313 316 313 314 315 318 320 319 320 321 321 321 321 320 317 317 316 315 315 315 314 312 311 311 311 310 309 309 309 310 311 311 310 310 311 311 311 313 315 317 317 316 314 313
314 315 320 317 314 314 317 318 321 320 319 320 321 319 317 317 316 315 315 314 315 312 310 310 311 310 310 309 308 309 310 310 308 308 309 309 308 308 309 311 312 312 310 308
313 316 316 313 316 318 316 311 316 319 318 318 318 318 317 316 316 316 315 314 314 313 312 311 309 309 310 309 308 308 308 308 306 307 307 308 307 307 307 307 307 305 304 302
312 314 313 315 318 317 312 310 313 316 316 316 317 316 316 315 314 313 313 313 313 312 310 307 307 307 307 308 307 306 306 305 305 305 306 306 306 304 303 301 299 299 298 296
312 313 316 316 319 320 313 312 311 313 314 313 314 314 314 313 313 313 307 306 306 306 306 305 305 306 306 306 305 304 302 302 302 304 305 305 305 304 302 301 298 296 296 295
315 316 318 317 323 320 311 306 311 316 317 309 312 312 312 312 312 307 305 305 303 302 302 303 305 305 304 302 301 300 300 300 302 303 304 304 302 302 301 298 295 293 291 291
315 316 318 316 319 317 309 307 312 312 306 306 307 306 306 307 306 304 304 303 301 301 300 299 303 302 300 299 299 299 298 299 299 300 300 300 300 298 297 296 294 291 290 289
315 315 318 316 318 311 307 310 307 306 309 307 308 305 304 305 304 303 302 301 298 296 295 295 297 297 296 297 298 297 297 297 297 297 297 297 297 296 295 294 292 289 288 286
310 308 316 314 312 309 307 303 304 305 305 304 304 303 304 303 303 300 297 295 295 292 291 291 292 292 291 292 293 294 295 295 295 294 293 293 292 291 290 289 289 288 286 285
308 308 309 310 305 305 303 304 304 303 302 301 300 301 302 301 299 298 294 292 291 290 289 289 288 288 288 289 289 290 291 291 292 291 291 290 289 289 288 288 287 286 286 286
300 303 311 314 307 310 308 304 303 302 302 299 297 295 294 297 296 293 291 289 288 287 287 286 286 286 286 287 288 288 289 289 289 289 288 287 287 286 286 285 285 284 284 285

GFSCGP_925_thetae_108.txt.gz
Theta_e
322 324 325 324 326 326 325 326 328 325 323 324 323 323 322 322 322 321 319 316 316 320 327 331 332 332 334 329 324 328 329 330 330 330 329 328 328 327 326 326 326 328 328 327
324 324 321 321 326 327 328 329 327 325 320 324 324 325 324 323 323 323 324 322 316 316 321 328 331 332 334 331 324 324 329 329 330 329 329 329 328 328 327 327 327 329 329 328
324 321 320 321 323 329 328 329 329 327 320 320 322 325 324 324 323 323 323 323 321 317 316 322 329 331 333 333 326 324 326 328 329 329 330 329 328 328 328 327 327 328 329 328
323 319 321 322 322 328 331 327 328 325 326 331 322 331 326 326 325 324 324 323 324 322 316 317 326 330 332 333 332 326 325 325 326 327 328 327 326 327 327 327 328 328 329 329
324 320 321 322 322 325 326 326 327 326 327 325 326 328 326 324 326 326 325 324 323 323 319 315 320 328 331 332 333 332 328 326 326 325 326 326 326 328 329 330 330 330 330 329
322 319 320 321 320 322 320 321 320 320 324 330 328 327 328 326 325 323 323 322 321 323 323 317 318 325 329 331 333 333 333 330 329 327 326 326 326 328 330 331 331 331 331 330
323 321 319 320 323 321 323 326 328 330 329 331 325 327 327 323 322 322 321 320 319 319 322 319 314 319 326 329 332 333 334 334 333 330 328 326 327 329 331 331 331 331 331 330
323 324 321 320 323 323 324 325 324 327 326 322 319 323 324 323 321 319 319 317 318 315 316 316 313 317 323 327 329 332 333 334 334 333 332 330 328 330 331 332 332 331 331 330
325 325 321 321 320 321 324 327 321 319 307 319 320 319 318 317 316 315 314 313 316 316 313 315 314 315 320 325 328 330 332 333 333 333 333 332 331 331 332 332 332 333 331 331
319 322 318 318 319 320 321 319 324 321 322 323 320 320 320 317 315 315 315 315 312 312 314 311 309 312 314 320 325 327 330 331 331 332 333 333 333 332 332 332 332 333 333 332
319 319 316 318 320 321 321 323 321 321 322 324 323 319 317 314 309 310 309 308 308 308 307 306 307 310 310 311 314 321 325 328 329 329 331 332 333 333 333 333 333 333 333 332
320 319 318 320 312 315 319 322 321 322 322 320 319 319 310 306 307 307 307 308 309 309 307 307 307 308 309 308 308 309 313 319 323 326 327 329 330 331 332 333 333 333 333 332
319 319 317 317 317 315 320 319 320 320 317 320 320 318 309 307 309 308 307 309 309 309 309 308 307 307 308 309 309 309 309 309 310 315 321 324 327 329 331 331 332 332 332 331
316 317 318 321 320 318 321 321 320 321 319 319 319 318 313 310 310 307 307 307 313 312 309 307 308 308 309 309 309 310 310 310 310 310 311 316 323 326 328 329 328 328 329 329
316 317 316 315 318 318 318 320 320 321 320 320 317 318 316 311 311 312 312 313 312 311 310 308 308 307 309 309 309 310 310 310 310 311 310 312 320 323 324 324 324 323 323 325
315 316 313 313 317 319 319 319 320 320 319 319 318 317 315 314 314 313 314 312 312 312 311 309 308 308 308 308 309 309 310 310 311 311 311 311 313 317 318 318 319 320 321 321
316 311 314 317 317 317 321 319 320 319 319 319 320 318 314 314 315 315 314 312 311 310 309 308 306 307 307 308 309 309 309 310 311 310 310 311 311 313 314 314 315 316 315 315
315 313 313 315 315 320 314 316 318 319 318 318 318 317 316 315 315 314 313 312 311 310 309 307 305 306 306 308 308 308 308 309 309 308 308 308 309 308 307 307 307 308 309 309
314 313 313 316 316 314 311 309 317 319 319 316 317 317 315 314 313 311 308 306 306 306 305 305 305 305 305 306 306 306 307 308 307 306 306 306 306 305 304 303 305 304 305 305
315 314 314 316 315 314 313 309 309 312 316 313 315 315 315 313 313 309 304 304 303 303 303 302 305 304 303 302 304 304 303 302 302 303 303 304 304 304 305 305 303 301 300 300
313 313 316 315 309 311 307 307 310 312 311 307 311 313 311 311 309 304 302 301 301 300 299 301 302 300 298 299 300 300 300 299 300 301 302 302 303 303 303 301 300 298 296 294
315 316 316 311 306 311 305 307 312 309 305 305 306 305 306 303 302 301 300 298 296 295 295 297 297 294 295 297 298 297 295 296 297 298 299 299 299 300 300 299 298 295 294 291
311 311 312 310 309 308 305 308 305 305 304 306 304 304 302 301 301 299 298 295 293 292 292 293 293 292 293 294 295 294 292 294 295 295 295 295 296 297 297 295 293 291 290 289
305 303 307 305 304 306 303 304 303 305 304 303 302 302 301 301 298 296 294 293 291 290 290 291 290 289 288 290 291 291 293 294 294 294 293 292 292 292 291 291 291 290 289 288
302 306 303 305 301 302 303 302 302 300 299 299 299 300 299 299 297 294 292 290 289 288 287 287 287 286 286 286 287 288 290 291 292 291 291 291 291 290 290 289 289 288 288 288
290 292 302 304 297 301 304 301 300 299 298 295 295 294 292 294 292 290 288 287 286 285 285 283 283 283 283 283 283 285 286 287 288 288 288 287 287 287 287 287 286 285 285 286

GFSCGP_925_thetae_111.txt.gz
Theta_e
322 323 324 322 322 322 323 324 326 323 320 320 319 319 318 318 316 313 312 313 312 324 329 331 332 333 333 331 328 328 331 330 330 331 329 325 325 324 323 323 325 325 325 323
323 325 320 319 323 325 325 326 324 323 320 321 322 322 321 318 319 318 318 317 314 313 320 329 330 332 332 333 327 326 326 328 330 330 329 328 326 326 325 324 325 325 326 326
323 322 319 320 321 325 326 326 327 325 320 320 322 323 322 320 319 319 319 319 319 316 313 326 328 330 331 331 325 325 325 325 328 330 329 328 328 327 327 326 325 325 326 328
322 319 320 320 321 324 327 323 326 324 324 327 322 330 325 322 322 321 321 320 321 319 313 315 327 329 330 331 331 324 325 326 327 328 329 328 328 327 327 327 326 326 327 328
323 321 321 321 321 320 325 324 325 324 324 326 326 327 324 322 323 322 322 321 321 319 318 314 323 328 329 331 331 327 323 326 327 328 328 328 327 327 326 327 327 327 327 329
320 319 319 319 318 319 319 321 321 321 325 330 328 327 327 325 323 322 321 321 320 320 319 317 316 326 328 330 331 329 323 323 326 327 327 327 327 326 326 326 327 327 327 327
320 321 320 317 320 320 322 325 329 331 330 328 324 326 327 322 320 320 320 318 316 315 317 319 314 318 326 329 331 331 328 324 324 324 325 326 326 325 325 326 327 328 329 329
322 322 321 320 318 322 323 325 324 327 327 324 318 325 325 321 321 320 317 316 315 314 311 316 316 314 324 327 330 331 331 330 327 325 324 324 324 324 325 326 328 329 329 329
320 323 319 319 318 319 321 326 320 317 302 316 318 316 316 316 319 317 314 313 311 311 313 311 312 313 318 325 328 330 331 331 331 330 328 326 325 325 325 326 328 329 329 329
318 323 320 320 319 320 320 320 324 321 318 319 317 318 318 317 317 315 314 311 310 309 309 309 308 310 314 319 325 328 330 331 331 332 332 331 328 327 326 327 329 330 330 330
318 320 318 318 322 323 320 323 321 320 318 319 318 317 313 315 313 310 307 306 306 306 304 304 304 307 308 310 319 325 328 329 330 331 332 332 332 330 329 328 329 330 331 331
320 320 320 320 314 314 319 322 321 323 321 318 317 316 310 306 306 306 305 307 306 306 306 305 305 307 308 308 308 309 317 325 328 329 331 331 332 332 332 331 330 330 331 331
319 315 322 319 317 315 321 319 321 317 316 320 319 317 308 305 305 305 306 306 307 307 308 306 306 306 307 308 308 308 308 308 311 319 324 327 328 330 331 332 332 331 331 331
316 315 318 322 320 320 322 320 320 320 319 318 319 315 312 306 307 305 306 306 306 307 307 304 305 305 307 308 309 309 309 310 310 309 309 312 319 324 327 329 330 331 332 332
317 316 316 317 317 319 320 321 320 321 319 319 318 317 314 310 306 306 304 304 310 308 307 305 305 304 306 308 308 309 309 309 310 310 310 309 310 314 320 323 327 329 327 328
317 317 317 318 317 318 320 318 319 320 320 319 317 316 313 313 311 309 309 310 310 311 311 307 307 305 306 307 308 308 308 309 310 310 310 310 310 311 318 322 323 322 322 323
319 315 317 320 317 318 321 319 320 319 318 319 319 317 312 312 312 310 310 311 311 309 309 309 308 305 304 305 307 307 308 308 309 310 310 310 310 311 313 315 316 317 316 316
309 316 313 315 318 323 316 315 317 319 318 318 318 315 314 312 312 311 311 312 311 309 308 305 304 304 305 305 307 307 307 308 308 309 308 308 308 309 309 309 308 310 310 310
315 315 314 317 321 314 311 313 316 318 319 316 317 315 313 312 311 312 308 306 305 304 303 303 304 303 303 304 304 305 306 307 307 306 306 306 307 306 305 304 304 304 305 305
316 315 315 313 319 320 312 308 314 315 319 315 316 316 315 313 316 313 303 301 300 300 300 302 301 300 300 300 301 302 301 301 301 302 303 304 304 305 305 304 304 304 304 303
313 312 318 316 309 308 307 307 314 320 316 309 313 315 314 315 315 304 300 299 298 297 299 300 298 296 296 298 299 298 297 297 298 300 301 301 302 302 303 303 302 300 298 297
315 315 315 308 303 313 304 311 316 310 304 305 307 309 311 303 301 300 298 296 295 294 296 296 294 293 294 296 297 295 294 295 296 297 298 299 298 299 299 299 298 296 295 294
314 311 312 311 309 306 304 308 305 302 303 305 303 302 303 301 299 298 295 293 292 291 291 291 291 289 289 290 291 290 290 293 294 295 295 295 295 295 296 294 293 292 291 290
305 301 309 306 302 303 303 302 303 303 303 301 300 299 300 299 297 295 293 291 289 288 287 288 287 285 284 286 287 288 290 291 291 291 290 290 291 291 291 291 291 291 291 289
295 299 302 301 298 300 302 300 301 299 298 297 295 297 297 296 294 293 290 288 286 285 285 285 284 282 282 284 285 287 289 290 290 289 289 288 288 288 288 288 287 287 287 287
284 284 295 301 290 291 299 294 297 297 296 294 294 293 291 292 290 288 286 285 284 282 282 281 280 280 280 282 283 285 286 288 289 288 287 286 286 286 286 286 286 286 286 286

GFSCGP_925_thetae_114.txt.gz
Theta_e
321 323 325 322 319 320 319 321 322 321 319 317 318 320 318 318 316 315 311 310 312 324 328 330 330 330 331 331 331 331 330 332 333 331 327 325 324 324 323 322 322 322 324 323
323 326 320 319 320 322 322 325 323 322 320 318 319 319 318 316 315 315 313 311 310 311 322 328 330 330 330 331 331 331 331 331 332 332 329 326 324 324 324 323 322 322 323 324
323 321 320 319 321 323 323 323 325 324 320 319 321 322 321 318 317 316 315 315 314 313 312 322 328 329 330 330 330 331 330 330 331 331 331 329 326 324 323 323 323 323 324 324
322 318 321 319 321 321 322 321 324 325 323 325 320 327 322 321 320 318 319 318 318 317 317 313 325 328 329 330 331 330 329 328 329 330 329 329 328 326 325 324 324 324 323 324
322 321 321 322 320 320 321 320 323 324 324 325 325 326 323 321 322 321 320 320 319 318 317 316 317 326 328 330 330 330 328 327 327 327 328 328 328 327 326 326 326 325 325 324
319 320 319 320 318 318 318 321 320 320 324 330 325 326 323 323 322 321 319 318 318 317 316 317 315 322 327 329 329 328 326 327 326 326 326 327 328 328 326 326 326 326 326 325
318 319 319 318 320 317 322 323 326 328 327 323 319 323 323 320 319 321 321 319 315 314 315 316 315 316 325 327 328 327 324 324 326 326 326 326 327 327 327 325 325 325 325 326
316 317 318 319 321 321 321 322 321 325 324 321 320 327 324 319 320 320 318 316 314 313 312 312 315 314 321 326 327 328 324 323 324 326 326 326 326 326 325 325 324 325 325 325
322 321 316 317 319 318 320 323 318 316 301 315 318 317 314 314 316 318 318 315 314 311 309 310 309 315 314 323 326 328 328 325 323 324 324 325 325 325 325 325 324 324 325 325
315 319 318 317 317 318 320 318 323 322 320 318 316 316 320 316 317 317 315 313 311 309 307 306 306 309 312 318 325 327 329 329 328 327 325 323 323 324 324 324 324 324 325 326
314 316 316 319 321 321 321 322 322 320 316 320 317 316 311 316 316 317 313 309 307 304 303 303 304 306 306 310 320 326 327 328 329 329 329 327 326 324 324 324 324 324 325 326
315 315 315 318 316 315 319 320 321 323 322 317 316 317 311 306 308 309 307 305 304 303 303 303 304 305 306 306 308 317 324 326 328 329 330 330 330 330 328 326 325 325 326 327
316 318 318 320 317 316 318 320 320 320 314 319 322 319 308 304 306 305 305 305 305 306 306 305 304 304 305 306 307 307 307 309 316 324 327 328 330 330 330 330 329 328 327 327
315 314 317 318 319 318 320 321 320 320 321 319 318 317 313 306 306 305 305 305 305 306 306 304 304 304 306 307 308 308 309 309 309 308 308 311 318 323 326 327 329 329 330 329
316 318 315 315 315 318 319 321 321 322 320 320 318 318 316 309 305 304 304 305 306 307 307 304 304 303 305 306 307 308 308 309 308 309 309 309 309 308 310 314 319 323 326 328
313 316 317 316 315 317 317 320 320 321 321 321 318 315 314 312 306 304 304 303 306 308 307 305 303 304 304 305 306 307 307 308 308 309 309 309 309 309 310 315 319 320 322 322
308 311 315 317 314 316 319 317 319 319 319 319 320 318 310 312 310 306 304 304 305 308 308 306 305 304 304 305 306 306 306 307 308 309 309 309 309 309 310 311 314 316 315 315
307 307 307 309 316 320 316 313 316 319 318 318 318 316 315 313 313 310 307 307 307 307 306 305 304 304 304 305 305 306 306 307 307 308 308 308 308 308 308 308 308 309 309 310
305 307 306 309 317 316 312 310 316 318 319 316 317 317 314 311 311 311 307 307 306 305 303 303 303 303 302 302 303 303 304 305 305 305 305 305 305 305 305 304 303 304 305 305
306 307 308 310 318 321 314 308 314 315 320 316 316 316 315 312 315 314 303 302 301 301 301 301 300 299 299 299 301 301 300 300 299 300 301 302 303 304 303 303 304 304 303 302
312 311 311 312 318 312 308 307 314 321 318 312 314 315 315 314 315 307 301 300 298 299 299 298 297 294 294 296 298 296 295 294 295 298 299 300 300 299 301 302 302 300 300 299
314 316 315 316 316 317 304 313 317 313 304 305 307 310 314 313 305 302 299 296 295 295 295 294 291 289 291 293 295 292 290 292 295 296 297 297 297 298 299 299 298 297 296 295
313 314 313 315 314 304 307 303 304 302 303 305 304 305 310 305 300 298 296 294 292 291 290 290 288 286 287 289 290 288 288 292 294 295 295 294 295 295 295 295 294 293 292 291
307 297 310 309 302 299 298 299 298 300 302 299 299 300 303 300 297 294 292 290 289 287 286 286 285 283 282 285 286 286 289 291 292 292 291 291 291 291 292 292 291 291 290 289
289 291 296 303 296 297 298 292 292 296 296 296 294 295 296 296 294 292 289 287 286 284 283 283 282 280 280 284 285 287 288 288 289 289 288 288 288 288 288 288 288 288 287 287
280 279 287 295 284 286 294 289 289 291 291 291 292 292 290 292 290 288 286 284 283 281 280 279 279 279 279 281 282 284 286 287 288 287 286 286 286 286 286 285 285 285 285 285

GFSCGP_925_thetae_117.txt.gz
Theta_e
320 323 325 321 319 320 318 320 321 320 319 318 318 320 321 318 315 315 314 311 316 324 327 327 328 329 330 331 331 331 331 331 332 332 328 327 327 326 325 324 323 321 322 321
322 325 321 319 319 321 322 323 323 320 319 317 318 318 316 315 315 315 315 313 311 309 317 323 328 328 328 330 331 331 331 331 331 332 331 327 326 326 326 325 324 322 321 321
322 320 319 319 320 322 322 323 323 323 319 317 319 320 320 317 314 314 313 314 313 312 311 312 325 328 329 328 329 330 331 330 330 331 331 329 325 324 324 324 324 323 322 321
320 318 320 320 321 320 323 319 321 322 324 324 319 324 319 319 319 317 317 316 314 312 311 311 317 326 328 329 329 329 329 330 330 330 331 330 327 324 323 324 324 323 322 322
318 319 321 321 320 319 321 319 321 322 323 323 323 325 320 318 320 318 318 317 317 315 315 314 312 321 326 328 329 329 329 329 330 330 330 330 329 328 326 325 324 323 323 323
318 319 318 318 317 318 317 320 320 318 321 324 321 323 320 320 320 319 317 317 317 316 315 315 316 316 322 325 328 329 328 328 328 329 329 329 328 328 327 326 325 324 324 324
319 319 319 319 320 317 320 321 326 327 326 321 313 321 321 318 317 317 317 317 316 314 314 314 314 313 316 322 326 328 327 326 327 328 328 328 328 327 327 327 326 325 325 325
320 319 318 318 320 320 321 322 322 323 323 319 316 321 319 317 317 317 316 316 313 313 312 312 313 314 314 320 325 327 327 326 326 326 327 327 327 327 326 326 326 325 325 325
314 316 315 315 317 318 320 324 318 319 301 313 317 317 315 313 313 315 317 317 315 314 313 311 311 312 314 317 323 326 327 324 324 325 326 326 326 326 326 325 325 325 324 324
314 320 317 314 316 316 319 318 323 322 323 318 316 315 319 316 315 315 316 315 313 311 310 308 306 309 310 314 320 324 326 325 323 324 325 326 326 326 326 325 325 325 324 323
314 315 311 318 319 319 320 320 322 321 317 319 317 316 310 314 313 315 314 312 310 308 306 305 303 305 306 309 314 322 325 326 324 323 323 324 325 325 325 325 325 325 324 324
312 314 310 313 316 317 317 319 320 324 320 318 315 319 309 310 307 307 309 308 305 303 301 301 302 304 305 305 312 318 324 326 327 327 324 323 323 323 323 323 323 323 323 323
313 314 315 310 313 314 320 320 319 319 316 319 318 320 309 303 303 304 305 303 303 304 304 302 302 302 303 304 305 307 316 322 325 327 328 328 328 327 327 326 325 325 324 324
313 311 311 311 308 311 316 317 318 321 323 321 319 318 314 311 306 304 303 303 303 304 304 303 302 302 304 305 306 307 307 307 307 309 317 323 326 327 327 328 328 328 328 327
314 316 313 313 312 314 317 315 316 319 319 321 321 318 317 314 310 306 302 303 304 305 306 304 302 302 304 306 307 307 307 307 307 308 308 308 307 308 309 311 315 320 323 324
312 312 314 314 314 313 315 315 317 317 317 316 318 319 316 311 308 304 303 303 303 305 306 305 302 302 303 305 305 305 305 306 307 307 308 308 308 308 309 310 312 315 316 317
309 310 310 308 312 311 316 314 314 316 317 319 321 318 315 313 311 309 304 302 303 303 306 306 304 302 304 304 305 305 306 306 306 307 307 307 308 308 308 308 309 311 312 312
304 303 299 299 303 310 308 310 312 313 314 315 318 318 317 316 314 310 310 306 304 301 304 304 303 304 304 304 304 304 305 305 305 306 306 306 306 306 306 305 304 304 304 305
303 303 298 297 293 305 304 304 311 313 314 313 314 314 315 314 310 310 308 305 304 303 302 303 304 303 302 302 302 302 303 303 303 302 302 303 304 305 303 302 302 302 302 304
304 304 302 292 296 303 303 308 310 312 316 312 312 313 314 311 316 316 305 304 303 303 303 301 301 300 300 298 299 300 298 298 296 297 299 300 301 301 301 302 302 302 302 302
307 306 305 303 300 302 304 306 311 317 316 311 313 313 314 315 315 311 303 301 300 300 299 299 298 295 294 296 297 295 294 292 293 295 296 297 298 300 301 301 302 301 301 300
306 307 307 306 307 307 305 308 315 312 304 304 305 312 313 314 312 304 301 298 296 295 294 293 291 288 290 293 295 291 290 292 294 294 295 296 297 298 298 299 297 297 297 296
307 308 310 308 307 303 301 298 296 296 300 302 302 302 308 309 303 299 296 294 293 292 290 289 287 285 286 288 291 289 288 291 293 294 293 294 295 296 296 296 295 295 294 293
305 291 305 307 300 294 293 292 290 291 296 296 297 297 301 303 298 294 292 291 290 288 286 286 285 283 282 285 287 288 289 290 292 292 291 291 292 292 292 292 292 291 290 289
288 286 289 301 294 290 294 287 286 289 290 290 292 292 296 295 293 292 290 288 287 285 283 283 282 280 279 282 284 286 288 289 289 289 288 288 288 288 288 288 288 287 286 287
278 276 283 292 280 279 282 284 283 285 287 287 289 290 289 291 290 288 286 284 283 281 280 278 277 277 277 279 281 284 285 286 287 286 286 286 287 286 286 285 285 285 285 286